     2.11           OBSERVATION DATA    G (GPS)             RINEX VERSION / TYPE
teqc 2010Oct21 OPUS Account 20111029 19:17:57UTC            PGM / RUN BY / DATE
R 1522                                                      MARKER NAME
1171                                                        MARKER NUMBER
CSMIDDLETON NGS                                             OBSERVER / AGENCY
0220320152 TRIMBLE 5700 2.01                                REC # / TYPE / VERS
12214372 TRM41249.00 NONE                                   ANT # / TYPE
  -740082.0545 -5499428.3183  3134366.3404                  APPROX POSITION XYZ
        2.0000        0.0000        0.0000                  ANTENNA: DELTA H/E/N
     1     1                                                WAVELENGTH FACT L1/2
     5    L1    L2    C1    P1    P2                        # / TYPES OF OBSERV
    15                                                      LEAP SECONDS
  2011     9    24    16    51   30.0000000     GPS         TIME OF FIRST OBS
                                                            END OF HEADER
 11  9 24 16 51 30.0000000  0  7G07G08G11G17G24G26G28
    279452.12958    207096.12956  20846913.1414                   20846911.6054
   -416539.78958   -318320.80956  19975656.0474                   19975654.4574
     78607.96157     55281.50855  21725803.5864                   21725802.4064
  -1007188.23457   -764649.56256  21733238.5084                   21733237.4534
   -367336.47757   -281492.04755  22030500.5784                   22030500.5274
   -466023.04757   -355763.09054  22723268.6094                   22723268.1994
   -552532.24658   -422843.23856  21730366.8914                   21730364.5864
 11  9 24 16 52  0.0000000  0  7G07G08G11G17G24G26G28
    307221.23048    228734.33246  20852197.5554                   20852196.3244
   -451522.80548   -345580.32846  19968999.0634                   19968997.2704
     88722.58647     63162.99645  21727728.5634                   21727727.2624
  -1096734.35248   -834425.75046  21716198.6024                   21716197.4384
   -397713.07847   -305162.14145  22024720.3284                   22024720.8164
   -504970.53947   -386111.79744  22715857.4694                   22715856.4144
   -602896.39847   -462088.03946  21720783.1884                   21720780.9384
 11  9 24 16 52 30.0000000  0  7G07G08G11G17G24G26G28
    335424.16448    250710.57446  20857564.5634                   20857563.3284
   -486013.99648   -372456.61346  19962435.5004                   19962433.8444
     99358.88347     71450.96945  21729752.7034                   21729751.4104
  -1185959.05547   -903951.47346  21699219.7894                   21699218.5394
   -427572.29347   -328429.08245  22019038.2114                   22019038.0394
   -543346.94947   -416015.50444  22708554.4844                   22708554.5704
   -653260.68748   -501332.94546  21711198.9844                   21711196.4844
 11  9 24 16 53  0.0000000  0  7G07G08G11G17G24G26G28
    364074.10248    273035.13746  20863016.5394                   20863014.8794
   -519996.58248   -398936.57846  19955968.9304                   19955967.4414
    110530.45747     80156.05145  21731878.6564                   21731877.3404
  -1274846.72747   -973214.58246  21682304.7974                   21682303.7854
   -456898.66047   -351280.80545  22013457.5554                   22013457.5664
   -581137.84047   -445462.94544  22701363.4144                   22701362.9654
   -703610.27748   -540566.39846  21701617.6414                   21701615.7384
 11  9 24 16 53 30.0000000  0  7G07G08G11G17G24G26G28
    393172.28948    295708.98046  20868553.7664                   20868552.2584
   -553467.72348   -425018.02046  19949599.6804                   19949597.8914
    122237.77347     89278.59045  21734106.7114                   21734104.9734
  -1363395.33647  -1042213.48446  21665454.6024                   21665453.6724
   -485689.86347   -373715.52045  22007978.5084                   22007979.2154
   -618341.91447   -474453.15645  22694282.9694                   22694283.5634
   -753943.95748   -579787.44946  21692039.4614                   21692037.2194
 11  9 24 16 54  0.0000000  0  7G07G08G11G17G24G26G28
    422711.84448    318726.74646  20874175.2114                   20874173.6684
   -586431.94148   -450704.45346  19943326.9224                   19943325.3634
    134473.72348     98813.06645  21736434.9454                   21736433.4024
  -1451610.51647  -1110952.57046  21648667.8444                   21648666.7074
   -513951.23047   -395737.37945  22002600.5634                   22002600.8444
   -654965.19147   -502990.79344  22687314.4144                   22687314.4654
   -804267.62548   -619000.70346  21682463.1564                   21682461.1804
 11  9 24 16 54 30.0000000  0  7G07G08G11G17G24G26G28
    452689.54348    342085.92646  20879879.5634                   20879878.3164
   -618890.23848   -475996.66046  19937150.1414                   19937148.7384
    147234.51648    108756.49645  21738863.1644                   21738861.5514
  -1539493.98847  -1179433.18446  21631944.2814                   21631942.9964
   -541684.85247   -417348.00045  21997322.9384                   21997323.5514
   -691010.71147   -531078.22744  22680455.1724                   22680455.0474
   -854583.96148   -658208.23846  21672888.3364                   21672886.1214
 11  9 24 16 55  0.0000000  0  7G07G08G11G17G24G26G28
    483102.66047    365784.39146  20885667.0944                   20885665.5554
   -650842.78148   -500894.77746  19931069.8674                   19931068.0904
    160517.09047    119106.50445  21741391.0474                   21741389.5314
  -1627046.98047  -1247656.28546  21615283.3914                   21615282.4494
   -568891.37947   -438547.91445  21992146.2504                   21992146.3054
   -726480.30547   -558716.89144  22673705.3524                   22673705.4694
   -904894.57448   -697411.32446  21663314.8914                   21663312.2384
 11  9 24 16 55 30.0000000  0  7G07G08G11G17G24G26G28
    513947.21947    389819.03946  20891536.7974                   20891535.0704
   -682291.94548   -525400.65647  19925085.5704                   19925083.9654
    174316.73048    129859.43445  21744017.1724                   21744015.2584
  -1714272.36347  -1315624.10246  21598684.4304                   21598683.5744
   -595573.66447   -459339.31245  21987069.0084                   21987069.0124
   -761377.94547   -585909.87145  22667064.2344                   22667064.3284
   -955203.11748   -736612.79346  21653741.3364                   21653738.8714
 11  9 24 16 56  0.0000000  0  7G07G08G11G17G24G26G28
    545224.05947    414190.53546  20897488.2664                   20897486.8594
   -713234.29748   -549511.60946  19919197.0474                   19919195.1334
    188634.57048    141016.15245  21746741.7114                   21746740.1454
  -1801167.67247  -1383334.71146  21582148.8594                   21582148.3594
   -621729.00047   -479720.09845  21982091.9844                   21982091.6524
   -795702.01247   -612655.91845  22660533.4774                   22660532.8134
  -1005507.47348   -775810.99246  21644168.8674                   21644166.2034
 11  9 24 16 56 30.0000000  0  7G07G08G11G17G24G26G28
    576929.70747    438896.16846  20903522.0314                   20903520.6994
   -743670.88748   -573228.45746  19913405.4144                   19913403.3364
    203466.39148    152573.37945  21749564.0394                   21749562.2814
  -1887735.09047  -1450789.82846  21565675.6724                   21565675.0784
   -647359.48847   -499691.92245  21977214.0474                   21977214.3874
   -829455.39847   -638957.28545  22654109.4454                   22654109.9734
  -1055810.10548   -815007.85946  21634596.3284                   21634593.8834
 11  9 24 16 57  0.0000000  0  7G07G08G11G17G24G26G28
    609062.72347    463934.81346  20909636.3594                   20909635.3634
   -773600.93448   -596550.60946  19907709.8984                   19907707.9964
    218810.25848    164529.60545  21752484.0004                   21752482.0474
  -1973974.68747  -1517989.49246  21549264.8984                   21549263.7274
   -672465.14847   -519254.77745  21972436.4384                   21972437.4064
   -862639.31647   -664814.90244  22647794.7664                   22647795.1994
  -1106111.97348   -854204.12146  21625024.2664                   21625021.8484
 11  9 24 16 57 30.0000000  0  7G07G08G11G17G24G26G28
    641624.55147    489307.59446  20915832.8444                   20915831.5824
   -803020.61348   -619475.06646  19902111.6644                   19902109.8364
    234667.17648    176885.60945  21755501.6024                   21755500.0164
  -2059883.80947  -1584931.64146  21532917.0394                   21532916.2154
   -697043.33247   -538406.62945  21967759.3054                   21967760.1804
   -895251.80547   -690227.25044  22641589.5634                   22641588.9884
  -1156410.52348   -893397.80546  21615452.8284                   21615450.5864
 11  9 24 16 58  0.0000000  0  7G07G08G11G17G24G26G28
    674610.91047    515011.18046  20922110.2194                   20922109.1524
   -831931.94548   -642003.41446  19896609.8984                   19896608.3094
    251032.78148    189638.00045  21758615.5634                   21758614.2734
  -2145464.89147  -1651618.17646  21516631.2974                   21516630.6644
   -721096.23847   -557149.16045  21963182.3444                   21963182.6844
   -927296.62947   -715197.27045  22635491.3134                   22635491.1564
  -1206708.96548   -932591.40646  21605881.1334                   21605879.0204
 11  9 24 16 58 30.0000000  0  7G07G08G11G17G24G26G28
    708022.98847    541046.49246  20928468.2034                   20928466.9574
   -860331.69548   -664133.12146  19891205.6334                   19891204.1414
    267907.57047    202787.14545  21761826.6484                   21761825.0664
  -2230715.23447  -1718046.99646  21500408.7734                   21500407.9104
   -744621.41047   -575480.46945  21958705.6024                   21958706.3984
   -958772.04747   -739723.57845  22629501.7344                   22629502.0314
  -1257005.25848   -971783.34046  21596310.2814                   21596307.7424
 11  9 24 16 59  0.0000000  0  7G07G08G11G17G24G26G28
    741858.78947    567411.97346  20934907.1414                   20934905.9734
   -888219.65248   -685864.02346  19885898.7424                   19885897.1134
    285289.18447    216331.22745  21765134.7114                   21765132.6804
  -2315635.71547  -1784218.77746  21484249.3754                   21484247.9344
   -767619.68447   -593401.21545  21954329.0394                   21954330.0124
   -989679.69547   -763807.48044  22623620.1564                   22623619.9884
  -1307300.26648  -1010974.27046  21586739.3524                   21586737.2424
 11  9 24 16 59 30.0000000  0  7G07G08G11G17G24G26G28
    776118.93047    594108.11746  20941426.5944                   20941425.5354
   -915593.06248   -707193.99246  19880689.5704                   19880687.8914
    303177.68448    230270.27345  21768538.9924                   21768536.8404
  -2400224.60247  -1850132.18046  21468152.2194                   21468151.3204
   -790088.86747   -610909.67645  21950053.4534                   21950053.5664
  -1020018.64847   -787448.25045  22617847.2974                   22617847.0314
  -1357592.60548  -1050163.10946  21577169.2584                   21577166.7034
 11  9 24 17  0  0.0000000  0  7G07G08G11G17G24G26G28
    810802.62947    621134.30546  20948026.8984                   20948025.6804
   -942450.48447   -728121.88746  19875579.0394                   19875577.4384
    321572.00448    244603.48445  21772038.7504                   21772037.0234
  -2484480.95347  -1915786.45746  21452118.7814                   21452117.7544
   -812028.26647   -628005.32445  21945878.6254                   21945879.1764
  -1049789.23047   -810646.11745  22612181.7974                   22612182.1804
  -1407881.78548  -1089349.50046  21567599.4144                   21567597.4694
 11  9 24 17  0 30.0000000  0  7G07G08G11G17G24G26G28
    845908.75847    648489.66046  20954707.5004                   20954706.1374
   -968791.07847   -748647.05146  19870566.3834                   19870564.6524
    340470.23048    259329.33645  21775635.2274                   21775633.6054
  -2568404.82047  -1981181.65646  21436148.7424                   21436147.9024
   -833437.90247   -644688.16045  21941804.1174                   21941804.7854
  -1078992.43447   -833401.87944  22606624.5784                   22606624.8204
  -1458168.25848  -1128533.77746  21558030.4224                   21558027.9264
 11  9 24 17  1  0.0000000  0  7G07G08G11G17G24G26G28
    881436.65247    676173.66846  20961468.0234                   20961466.8524
   -994613.00848   -768768.06646  19865652.8134                   19865651.4534
    359871.58648    274447.23845  21779327.1484                   21779325.6334
  -2651995.03147  -2046316.87146  21420242.0394                   21420240.7894
   -854316.64147   -660957.32845  21937831.3594                   21937831.7974
  -1107628.25847   -855715.53145  22601175.3834                   22601175.6174
  -1508451.11748  -1167715.24246  21548461.6564                   21548459.5124
 11  9 24 17  1 30.0000000  0  7G07G08G11G17G24G26G28
    917385.78547    704185.91046  20968309.0084                   20968308.0434
  -1019914.07048   -788483.21146  19860838.2034                   19860836.6094
    379775.40647    289956.68045  21783114.4924                   21783112.8284
  -2735250.56647  -2111191.29746  21404398.7114                   21404397.7504
   -874663.52747   -676812.05545  21933959.5864                   21933960.1254
  -1135696.38747   -877586.82045  22595834.5554                   22595833.9924
  -1558729.57448  -1206893.27046  21538893.8754                   21538891.9024
 11  9 24 17  2  0.0000000  0  7G07G08G11G17G24G26G28
   2529174.27047   1960124.92246  21275022.2814                   21275021.1054
    530727.80548    419809.11746  20155915.3984                   20155914.0664
   1975599.58248   1533455.99245  22086789.9454                   22086788.5594
  -1242747.90247   -948202.18746  21688412.7584                   21688411.7074
    680942.62147    535348.56345  22229981.2114                   22229982.4184
    412223.15647    328584.21945  22890393.6954                   22890393.7344
    -33581.53548    -18466.23846  21829120.1804                   21829117.7704
 11  9 24 17  2 30.0000000  0  7G07G08G11G17G24G26G28
   2565961.03547   1988789.85946  21282022.6884                   21282021.7154
    506469.71947    400906.68446  20151299.3524                   20151297.8134
   1996501.91448   1549743.47345  22090767.6564                   22090766.1294
  -1325334.34847  -1012555.23846  21672696.8524                   21672696.1054
    661658.46147    520321.93045  22226311.7584                   22226312.7114
    385285.86347    307594.09445  22885267.6954                   22885267.9104
    -83852.75848    -57638.62946  21819553.9694                   21819551.3754
 11  9 24 17  3  0.0000000  0  7G07G08G11G17G24G26G28
   2603168.12547   2017782.32846  21289102.6484                   21289101.6214
    482737.77748    382414.23446  20146783.2664                   20146781.8324
   2017904.04748   1566420.41845  22094840.1724                   22094838.5944
  -1407583.23047  -1076645.25846  21657045.5314                   21657044.3754
    642909.18447    505712.09045  22222744.0704                   22222744.1994
    358915.95747    287046.09445  22880249.6024                   22880249.6764
   -134117.13347    -96805.69146  21809988.7344                   21809986.7704
 11  9 24 17  3 30.0000000  0  7G07G08G11G17G24G26G28
   2640790.80947   2047098.62546  21296262.1174                   21296261.2034
    459529.54748    364329.85946  20142366.7894                   20142365.6844
   2039800.74648   1583482.74245  22099007.5084                   22099005.7934
  -1489497.60547  -1140474.61746  21641457.7194                   21641456.5004
    624691.27347    491516.30145  22219277.3444                   22219277.9924
    333108.80547    266936.58245  22875338.7734                   22875339.0164
   -184378.26247   -135970.21146  21800424.3284                   21800422.4494
 11  9 24 17  4  0.0000000  0  7G07G08G11G17G24G26G28
   2678829.02047   2076738.71146  21303500.8444                   21303499.6644
    436847.18048    346655.25846  20138050.5084                   20138049.2624
   2062191.74647   1600930.24245  22103267.9064                   22103266.7704
  -1571075.94147  -1204042.13746  21625933.8444                   21625932.6484
    607006.30147    477735.78945  22215911.6564                   22215912.8204
    307865.02747    247266.09045  22870535.0634                   22870534.9654
   -234634.87147   -175131.21946  21790860.5474                   21790858.8244
 11  9 24 17  4 30.0000000  0  7G07G08G11G17G24G26G28
   2717284.19147   2106703.70346  21310818.4534                   21310817.8444
    414694.44548    329393.35546  20133835.3364                   20133833.9534
   2085077.91448   1618763.56345  22107623.1334                   22107621.6994
  -1652315.14147  -1267345.39546  21610474.6414                   21610473.0864
    589856.98447    464372.67645  22212648.6484                   22212649.3984
    283186.35547    228035.91044  22865838.8594                   22865839.0004
   -284883.88347   -214286.29746  21781298.8594                   21781296.4924
 11  9 24 17  5  0.0000000  0  7G07G08G11G17G24G26G28
   2756153.26647   2136991.21546  21318215.3914                   21318214.1254
    393070.21548    312543.28146  20129720.2974                   20129718.9454
   2108455.96147   1636980.18845  22112072.2974                   22112070.1954
  -1733217.17247  -1330385.91446  21595079.5164                   21595078.2154
    573241.43847    451425.47345  22209486.8524                   22209487.2664
    259069.77747    209243.72744  22861249.6804                   22861249.6094
   -335127.44547   -253437.13346  21771737.6804                   21771735.4614
 11  9 24 17  5 30.0000000  0  7G07G08G11G17G24G26G28
   2795438.09048   2167602.67646  21325690.8594                   21325689.3754
    371978.84048    296108.41447  20125706.5704                   20125705.0904
   2132326.92247   1655580.88745  22116613.9694                   22116613.0204
  -1813778.60948  -1393161.03546  21579748.9454                   21579748.0354
    557163.02047    438896.82845  22206427.4614                   22206427.4064
    235517.63747    190891.38745  22856767.5314                   22856768.4694
   -385362.41448   -292581.27746  21762178.4614                   21762175.9804
 11  9 24 17  6  0.0000000  0  7G07G08G11G17G24G26G28
   2835138.81348   2198538.22346  21333245.9534                   21333244.7504
    351422.48048    280090.43846  20121794.6724                   20121793.5824
   2156690.68847   1674565.58245  22121251.0474                   22121249.3674
  -1893998.02348  -1455669.65646  21564483.8364                   21564482.8014
    541622.99647    426787.71145  22203470.2424                   22203470.4494
    212530.18847    172979.04345  22852393.4144                   22852393.5474
   -435587.00847   -331717.33646  21752620.5864                   21752618.4384
 11  9 24 17  6 30.0000000  0  7G07G08G11G17G24G26G28
   2875253.83248   2229796.60546  21340879.6884                   21340878.2464
    331401.69148    264489.79746  20117985.2734                   20117983.9494
   2181545.29748   1693932.77045  22125980.2114                   22125979.2034
  -1973874.85548  -1517911.32846  21549283.7274                   21549282.7114
    526621.53547    415098.25045  22200615.1024                   22200615.5784
    190106.50047    155506.01245  22848126.4774                   22848126.9804
   -485801.05947   -370845.18046  21743065.9224                   21743063.4884
 11  9 24 17  7  0.0000000  0  7G07G08G11G17G24G26G28
   2915782.04747   2261376.94146  21348591.8444                   21348590.9454
    311917.27748    249307.09846  20114277.7664                   20114276.0864
   2206888.82448   1713680.92245  22130802.9384                   22130801.7274
  -2053409.55147  -1579886.39846  21534148.7274                   21534147.1644
    512158.55547    403828.38745  22197863.3754                   22197863.5514
    168245.24247    138471.21545  22843966.1724                   22843966.4534
   -536005.19547   -409965.29746  21733512.3524                   21733510.1294
 11  9 24 17  7 30.0000000  0  7G07G08G11G17G24G26G28
   2956722.73847   2293278.69546  21356382.6724                   21356381.5864
    292971.46947    234544.09446  20110672.4384                   20110671.2034
   2232720.91047   1733809.78145  22135718.8054                   22135717.4654
  -2132600.77047  -1641593.81646  21519079.3984                   21519078.0314
    498235.18847    392979.00445  22195213.1954                   22195214.2854
    146946.63746    121874.87145  22839913.3134                   22839913.4494
   -586197.47347   -449076.16846  21723960.8444                   21723958.6604
 11  9 24 17  8  0.0000000  0  7G07G08G11G17G24G26G28
   2998075.04347   2325501.18446  21364251.6724                   21364250.7304
    274564.94948    220201.31646  20107169.4924                   20107168.4574
   2259039.56647   1754317.76245  22140727.0394                   22140725.8444
  -2211447.84047  -1703033.07846  21504074.9614                   21504074.1294
    484851.33647    382550.01245  22192666.4614                   22192667.0474
    126209.59847    105716.09845  22835967.4454                   22835967.4264
   -636377.96147   -488177.85946  21714411.7814                   21714409.6334
 11  9 24 17  8 30.0000000  0  7G07G08G11G17G24G26G28
   3039839.25447   2358044.64146  21372199.6954                   21372197.9574
    256699.96948    206280.51246  20103770.1484                   20103768.3594
   2285844.82047   1775204.91845  22145828.0944                   22145826.7274
  -2289949.39547  -1764203.10946  21489136.7424                   21489135.6054
    472008.37147    372542.49245  22190222.6644                   22190223.3404
    106034.82047     89995.46545  22832128.4454                   22832128.2664
   -686544.83248   -527268.94146  21704865.5554                   21704863.1214
 11  9 24 17  9  0.0000000  0  7G07G08G11G17G24G26G28
   3082015.21547   2390908.94146  21380225.3364                   21380224.2854
    239378.94147    192783.57046  20100474.1724                   20100472.5274
   2313135.93447   1796470.68445  22151021.0944                   22151020.3404
  -2368103.82847  -1825102.65246  21474264.3834                   21474263.3634
    459707.63347    362957.49245  22187881.7424                   22187882.5634
     86422.25047     74712.91445  22828396.5234                   22828396.3834
   -736696.48448   -566348.15246  21695322.0394                   21695319.6564
 11  9 24 17  9 30.0000000  0  7G07G08G11G17G24G26G28
   3124603.57847   2424094.59046  21388329.8524                   21388328.5824
    222604.65648    179712.66446  20097281.8364                   20097280.5044
   2340913.00447   1818115.09445  22156307.1954                   22156306.0234
  -2445908.92647  -1885729.98446  21459458.6334                   21459457.4774
    447951.03547    353796.48845  22185644.9454                   22185645.5004
     67372.46947     59868.89545  22824771.5864                   22824771.6524
   -786831.02048   -605414.03946  21685782.0234                   21685779.5704
 11  9 24 17 10  0.0000000  0  7G07G08G11G17G24G26G28
   3167602.25447   2457599.96146  21396511.9774                   21396511.2424
    206377.43048    167068.03546  20094194.0704                   20094193.0394
   2369173.89547   1840136.51645  22161685.2344                   22161684.0044
  -2523365.42247  -1946085.68046  21444719.0704                   21444717.8914
    436737.91847    345058.96945  22183511.0704                   22183511.8594
     48884.29347     45462.49645  22821252.9924                   22821253.3754
   -836948.49248   -644466.62146  21676244.3524                   21676242.5354
 11  9 24 17 10 30.0000000  0  7G07G08G11G17G24G26G28
   3211013.73847   2491427.01246  21404772.9694                   21404772.2814
    190701.04748    154852.63746  20091210.8914                   20091209.4414
   2397920.43847   1862536.35545  22167155.6094                   22167154.3874
  -2600469.54747  -2006166.79746  21430046.7194                   21430045.6054
    426071.90247    336747.77345  22181481.5314                   22181482.0634
     30959.93447     31495.42645  22817842.2274                   22817842.5984
   -887045.05948   -683502.91046  21666711.5394                   21666709.3714
 11  9 24 17 11  0.0000000  0  7G07G08G11G17G24G26G28
   3254835.80547   2525573.98846  21413112.3594                   21413111.1954
    175575.57048    143066.50846  20088332.5394                   20088331.4924
   2427149.83647   1885312.46545  22172717.8524                   22172716.8204
  -2677221.99247  -2065973.88746  21415440.9694                   21415439.8834
    415951.86347    328862.01645  22179555.4064                   22179556.0204
     13597.45347     17966.18445  22814538.2424                   22814538.3204
   -937121.23448   -722523.32446  21657182.2814                   21657180.1484
 11  9 24 17 11 30.0000000  0  7G07G08G11G17G24G26G28
   3299066.70747   2560039.53546  21421529.1414                   21421528.2464
    161001.84048    131710.31346  20085559.3134                   20085558.2664
   2456859.74247   1908462.98445  22178371.4614                   22178370.5984
  -2753622.86747  -2125507.02346  21400902.3594                   21400901.0234
    406377.33247    321401.32045  22177733.7424                   22177734.7624
     -3204.98047      4873.34445  22811340.5944                   22811341.0984
   -987177.30148   -761528.06246  21647657.1484                   21647654.9774
 11  9 24 17 12  0.0000000  0  7G07G08G11G17G24G26G28
   3343706.35947   2594823.59846  21430023.9534                   21430023.1764
    146981.81648    120785.58246  20082891.3984                   20082890.2814
   2487050.09847   1931987.87945  22184116.7974                   22184115.7074
  -2829670.02747  -2184764.53146  21386431.2114                   21386429.9694
    397349.69947    314366.78545  22176015.6174                   22176016.3984
    -19446.57047     -7782.47345  22808250.4304                   22808250.4024
  -1037211.12948   -800515.46946  21638135.6884                   21638133.4574
 11  9 24 17 12 30.0000000  0  7G07G08G11G17G24G26G28
   3388749.68847   2629922.21146  21438595.4144                   21438594.1954
    133512.32048    110289.82847  20080328.3054                   20080327.4924
   2517715.05947   1955882.60545  22189951.5314                   22189950.4454
  -2905367.98448  -2243749.93446  21372026.2194                   21372024.9574
    388864.98047    307755.29345  22174401.0164                   22174401.8324
    -35132.70747    -20005.48445  22805264.9454                   22805265.8054
  -1087226.18048   -839488.24246  21628618.1724                   21628615.9024
 11  9 24 17 13  0.0000000  0  7G07G08G11G17G24G26G28
   3434197.07047   2665335.67246  21447243.8284                   21447242.8284
    120595.75448    100224.93046  20077870.6414                   20077869.2344
   2548854.52347   1980147.06645  22195877.2814                   22195876.7234
  -2980714.69947  -2302461.64546  21357688.1334                   21357686.8834
    380924.83647    301568.15245  22172890.1334                   22172890.7114
    -50263.00447    -31795.37145  22802385.9304                   22802386.5474
  -1137220.56248   -878444.91846  21619104.9384                   21619102.6174
 11  9 24 17 13 30.0000000  0  7G07G08G11G17G24G26G28
   3480047.82847   2701063.45346  21455969.0004                   21455967.9804
    108233.75848     90592.16046  20075518.5004                   20075516.9344
   2580467.38747   2004780.42645  22201893.1954                   22201892.1214
  -3055709.10547  -2360898.82046  21343417.5164                   21343416.1094
    373529.68847    295805.67645  22171482.9454                   22171483.6294
    -64837.69547    -43152.32044  22799612.3914                   22799613.1804
  -1187193.30148   -917384.73046  21609595.0474                   21609592.9064
 11  9 24 17 14  0.0000000  0  7G07G08G11G17G24G26G28
   3526302.67247   2737106.10246  21464771.0004                   21464770.2344
     96428.98448     81393.58646  20073271.8834                   20073270.4064
   2612553.75447   2029782.73045  22207998.7584                   22207997.7624
  -3130349.07847  -2419059.82446  21329213.6024                   21329212.6994
    366681.22347    290469.18445  22170179.8754                   22170180.5164
    -78856.05547    -54075.76645  22796945.2344                   22796945.7704
  -1237141.78148   -956305.63346  21600090.4924                   21600088.0824
 11  9 24 17 14 30.0000000  0  7G07G08G11G17G24G26G28
   3572957.63747   2773460.52346  21473649.1484                   21473648.5234
     85179.31348     72627.56646  20071130.9064                   20071129.6564
   2645109.14147   2055150.52745  22214194.0784                   22214192.8914
  -3204636.97347  -2476946.48046  21315077.2974                   21315076.2544
    360376.66847    285556.53145  22168980.3984                   22168981.1844
    -92322.22747    -64568.93445  22794381.9384                   22794382.7934
  -1287067.80548   -995209.04346  21590589.9144                   21590587.5354
 11  9 24 17 15  0.0000000  0  7G07G08G11G17G24G26G28
   3620012.43447   2810126.51246  21482603.7664                   21482602.7304
     74486.82048     64295.71546  20069096.3984                   20069095.2304
   2678133.00847   2080883.36345  22220478.2274                   22220477.2584
  -3278571.70347  -2534557.93746  21301007.9064                   21301006.4924
    354617.07447    281068.51245  22167884.3524                   22167884.6374
   -105236.05947    -74631.70745  22791924.9844                   22791925.2854
  -1336970.10548  -1034093.96946  21581093.8594                   21581091.2234
 11  9 24 17 15 30.0000000  0  7G07G08G11G17G24G26G28
   3667466.17647   2847103.36746  21491633.8674                   21491632.9884
     64352.91048     56399.12146  20067168.2734                   20067166.7734
   2711624.09447   2106980.26245  22226851.6254                   22226850.4104
  -3352152.41847  -2591893.54746  21287006.0084                   21287005.1684
    349402.91047    277005.50045  22166891.9924                   22166892.3524
   -117598.26247    -84264.62945  22789572.9064                   22789572.9574
  -1386847.50048  -1072959.48446  21571602.4924                   21571600.1454
 11  9 24 17 16  0.0000000  0  7G07G08G11G17G24G26G28
   3715317.12547   2884389.72346  21500739.4924                   21500738.6684
     54777.36348     48937.61746  20065345.9144                   20065344.4694
   2745580.11747   2133439.45345  22233313.4844                   22233312.5704
  -3425379.55947  -2648953.63346  21273071.4144                   21273070.5634
    344733.44547    273366.93445  22166003.2034                   22166004.1094
   -129410.73847    -93469.21944  22787324.5554                   22787325.1174
  -1436700.02748  -1111805.62546  21562115.8524                   21562113.6994
 11  9 24 17 16 30.0000000  0  7G07G08G11G17G24G26G28
   3763562.69147   2921983.58246  21509920.6254                   21509919.7344
     45759.09448     41910.35246  20063629.8204                   20063628.5984
   2779997.56647   2160258.19945  22239862.6414                   22239861.9924
  -3498254.55148  -2705739.32846  21259203.5234                   21259202.6804
    340606.78947    270151.33245  22165217.7034                   22165218.7424
   -140676.15247   -102247.51645  22785180.9774                   22785181.3524
  -1486528.68448  -1150633.16446  21552634.0004                   21552631.2464
 11  9 24 17 17  0.0000000  0  7G07G08G11G17G24G26G28
   3812204.40247   2959886.10946  21519176.7584                   21519175.8324
     37302.62548     35320.85546  20062020.5704                   20062019.0744
   2814878.03547   2187437.73845  22246500.7114                   22246499.4774
  -3570773.41047  -2762247.52046  21245403.6414                   21245402.4964
    337026.35247    267361.35545  22164536.7504                   22164537.1094
   -151392.50047   -110597.96145  22783142.0784                   22783142.5634
  -1536329.18448  -1189438.75446  21543156.7504                   21543154.5234
 11  9 24 17 17 30.0000000  0  7G07G08G11G17G24G26G28
   3861239.84048   2998095.45346  21528507.9224                   21528506.8674
     29407.41848     29168.70346  20060518.0394                   20060516.9454
   2850218.80947   2214975.94145  22253225.5704                   22253224.3204
  -3642937.49248  -2818479.25846  21231671.1804                   21231670.3444
    333990.82047    264995.98045  22163959.2734                   22163959.6414
   -161562.16847   -118522.42645  22781207.5634                   22781207.3874
  -1586102.47748  -1228223.14846  21533685.2114                   21533683.3204
 11  9 24 17 18  0.0000000  0  7G07G08G11G17G24G26G28
   3910668.95347   3036611.54346  21537913.6414                   21537913.4574
     22075.08648     23455.15246  20059123.0164                   20059121.9384
   2886018.81347   2242872.00045  22260038.0234                   22260036.9574
  -3714745.53948  -2874433.56646  21218006.5554                   21218005.2624
    331500.63747    263055.54745  22163485.3204                   22163485.7854
   -171185.46547   -126021.15245  22779375.4694                   22779375.8484
  -1635846.67648  -1266984.87146  21524219.3524                   21524217.1994
 11  9 24 17 18 30.0000000  0  7G07G08G11G17G24G26G28
   3960489.66847   3075432.78546  21547394.6564                   21547394.0274
     15305.86748     18180.40246  20057835.0634                   20057833.8284
   2922275.85547   2271124.18045  22266937.6024                   22266937.0864
  -3786197.40647  -2930110.33646  21204409.7194                   21204408.6644
    329555.08247    261539.51645  22163114.9614                   22163116.0354
   -180263.88346   -133095.30145  22777647.8444                   22777648.6884
  -1685561.21948  -1305723.48046  21514758.9304                   21514756.9614
 11  9 24 17 19  0.0000000  0  7G07G08G11G17G24G26G28
   4010700.44147   3114557.96146  21556949.4144                   21556948.6914
      9099.78148     13344.44946  20056653.7814                   20056652.7584
   2958987.76647   2299730.80145  22273923.4694                   22273922.5664
  -3857293.75848  -2985510.07446  21190880.5634                   21190879.7274
    328153.68847    260447.48845  22162848.6174                   22162848.9964
   -188799.43047   -139746.42244  22776023.6254                   22776024.3674
  -1735245.93448  -1344438.85946  21505304.4844                   21505301.9884
 11  9 24 17 19 30.0000000  0  7G07G08G11G17G24G26G28
   4061300.76647   3153986.68846  21566578.7274                   21566577.7464
      3458.49248      8948.60246  20055580.3204                   20055579.2114
   2996153.45747   2328691.02745  22280995.9614                   22280994.8594
  -3928033.53948  -3040631.96546  21177419.3204                   21177418.0944
    327297.03547    259779.94545  22162685.3444                   22162685.8834
   -196792.52347   -145974.86344  22774502.3444                   22774503.1334
  -1784899.54748  -1383130.00446  21495855.5704                   21495853.4614
 11  9 24 17 20  0.0000000  0  7G07G08G11G17G24G26G28
   4112289.18447   3193717.81646  21576281.4774                   21576280.8094
     -1617.48848      4993.25046  20054614.7504                   20054613.6844
   3033771.21147   2358003.50045  22288154.5394                   22288153.4844
  -3998416.41048  -3095475.75846  21164025.7664                   21164024.7624
    326984.82847    259536.63745  22162626.1094                   22162626.6454
   -204244.57447   -151781.70344  22773084.6334                   22773085.1214
  -1834521.26248  -1421796.28546  21486412.9304                   21486410.7974
 11  9 24 17 20 30.0000000  0  7G07G08G11G17G24G26G28
   4163664.91447   3233750.73446  21586057.8204                   21586057.2304
     -6127.20748      1479.13746  20053756.3134                   20053755.2464
   3071839.89147   2387667.35245  22295399.0474                   22295397.9344
  -4068441.58248  -3150040.82046  21150700.4534                   21150699.4184
    327217.32447    259717.77745  22162670.5784                   22162670.9384
   -211156.41447   -157167.63745  22771769.2344                   22771769.9184
  -1884109.60548  -1460436.56246  21476976.6564                   21476974.5944
 11  9 24 17 21  0.0000000  0  7G07G08G11G17G24G26G28
   4215428.66847   3274086.01646  21595908.2424                   21595908.0944
    -10067.77348     -1591.48046  20053006.7034                   20053005.1334
   3110359.75447   2417682.74245  22302729.2894                   22302728.2704
  -4138106.63348  -3204325.26646  21137443.3134                   21137442.2974
    327996.34447    260324.75845  22162818.8834                   22162819.5474
   -217527.15247   -162131.91044  22770557.1564                   22770557.7274
  -1933661.69948  -1499048.60946  21467547.1564                   21467544.7624
 11  9 24 17 21 30.0000000  0  7G07G08G11G17G24G26G28
   4267578.14547   3314721.86746  21605832.4064                   21605831.6994
    -13439.76248     -4219.04346  20052364.9064                   20052363.8094
   3149327.61347   2448047.25445  22310144.1254                   22310143.5984
  -4207413.04748  -3258330.25446  21124254.8524                   21124253.5124
    329320.27047    261356.37545  22163070.4224                   22163071.2544
   -223359.44547   -166676.60944  22769447.5944                   22769447.9884
  -1983177.83248  -1537632.61346  21458124.5394                   21458122.0824
 11  9 24 17 22  0.0000000  0  7G07G08G11G17G24G26G28
   4320109.25847   3355655.09846  21615828.6094                   21615828.1764
    -16245.39148     -6405.28946  20051830.8204                   20051829.7074
   3188739.05547   2478757.40245  22317644.6024                   22317643.3324
  -4276363.07048  -3312057.53146  21111134.4304                   21111132.8794
    331186.24247    262810.35245  22163425.5634                   22163425.9694
   -228657.12947   -170804.73045  22768439.1334                   22768439.5084
  -2032659.74648  -1576189.96546  21448708.3674                   21448706.0514
 11  9 24 17 22 30.0000000  0  7G07G08G11G17G24G26G28
   4373023.81347   3396887.10546  21625897.9774                   21625897.7344
    -18480.66048     -8147.09846  20051405.8914                   20051404.6764
   3228595.83647   2509814.56645  22325228.7344                   22325227.5634
  -4344952.91048  -3365504.14846  21098081.9304                   21098080.8244
    333597.19547    264688.98445  22163884.6484                   22163884.8834
   -233418.17647   -174514.70745  22767533.2504                   22767533.8914
  -2082103.37948  -1614717.48046  21439299.7974                   21439297.4224
 11  9 24 17 23  0.0000000  0  7G07G08G11G17G24G26G28
   4426320.03147   3438416.50846  21636040.2274                   21636039.7304
    -20145.73448     -9444.60946  20051088.8364                   20051087.7154
   3268895.43847   2541216.79345  22332897.2274                   22332897.2074
  -4413183.03548  -3418670.46946  21085098.1804                   21085097.1684
    336552.27347    266991.60945  22164446.6564                   22164447.7584
   -237644.88347   -177808.30544  22766729.1804                   22766729.7774
  -2131508.77048  -1653215.20746  21429898.3594                   21429896.0594
 11  9 24 17 23 30.0000000  0  7G07G08G11G17G24G26G28
   4479994.03947   3480240.30546  21646253.8444                   21646253.9024
    -21242.86348    -10299.56246  20050880.0634                   20050879.1644
   3309633.44947   2572960.62545  22340649.7424                   22340649.0904
  -4481055.66048  -3471558.21946  21072182.6024                   21072181.3834
    340048.67647    269716.04745  22165112.1804                   22165112.9654
   -241341.18747   -180688.60944  22766025.5784                   22766026.4574
  -2180876.97748  -1691683.94946  21420503.6724                   21420501.6724
 11  9 24 17 24  0.0000000  0  7G07G08G11G17G24G26G28
   4534043.74247   3522356.84846  21656539.2814                   21656538.8164
    -21771.96548    -10711.89146  20050779.5944                   20050778.6564
   3350807.38347   2605044.13344  22348484.5784                   22348484.4774
  -4548571.53148  -3524167.98046  21059334.9924                   21059333.7034
    344085.10247    272861.28545  22165880.4224                   22165880.4804
   -244509.09847   -183157.16444  22765423.2894                   22765423.2624
  -2230207.95748  -1730123.68746  21411116.3594                   21411114.4734
 11  9 24 17 24 30.0000000  0  7G07G08G11G17G24G26G28
   4588468.44147   3564765.58646  21666895.6334                   21666895.6844
    -21731.93048    -10680.74646  20050787.1884                   20050785.7544
   3392416.18447   2637466.50845  22356403.1644                   22356401.8754
  -4615729.77748  -3576499.07446  21046555.2034                   21046553.9964
    348661.78147    276427.50445  22166751.4224                   22166751.9614
   -247149.41047   -185214.62144  22764921.1094                   22764921.4384
  -2279499.95748  -1768533.05546  21401736.4774                   21401734.4924
 11  9 24 17 25  0.0000000  0  7G07G08G11G17G24G26G28
   4643265.47747   3607464.45346  21677323.5234                   21677323.2464
    -21123.35948    -10206.58246  20050902.9534                   20050902.1524
   3434456.62547   2670225.23445  22364403.1254                   22364401.9414
  -4682531.37148  -3628552.25446  21033843.0704                   21033841.9614
    353777.29747    280413.59445  22167724.9614                   22167725.5864
   -249264.68747   -186862.93045  22764517.9224                   22764518.6644
  -2328753.07048  -1806912.11746  21392363.8444                   21392361.8014
 11  9 24 17 25 30.0000000  0  7G07G08G11G17G24G26G28
   4698434.67647   3650453.32446  21687821.8914                   21687822.1254
    -19944.75848     -9288.23846  20051127.1024                   20051126.1294
   3476928.02047   2703319.76644  22372484.7274                   22372483.9144
  -4748975.00048  -3680326.50446  21021199.0164                   21021198.2814
    359432.32447    284820.08245  22168800.6724                   22168801.4414
   -250855.30147   -188102.42244  22764215.4384                   22764215.8594
  -2377965.55948  -1845259.53546  21382999.0084                   21382996.8204
 11  9 24 17 26  0.0000000  0  7G07G08G11G17G24G26G28
   4753971.28147   3693728.48446  21698390.2504                   21698390.2234
    -18199.44148     -7928.30146  20051459.4924                   20051458.3204
   3519825.28147   2736746.14545  22380648.1564                   22380647.6454
  -4815063.92248  -3731824.35546  21008622.8754                   21008621.7344
    365622.94547    289643.90645  22169978.6724                   22169979.8484
   -251926.31247   -188937.04344  22764012.2114                   22764012.4224
  -2427139.85548  -1883577.18746  21373641.4924                   21373639.5514
 11  9 24 17 26 30.0000000  0  7G07G08G11G17G24G26G28
   4809875.21547   3737289.87546  21709028.5704                   21709028.4104
    -15885.59048     -6125.35246  20051899.8754                   20051898.6054
   3563147.85247   2770503.92644  22388891.9384                   22388891.5554
  -4880796.67648  -3783044.67646  20996114.1024                   20996113.1844
    372350.13347    294885.84445  22171258.6414                   22171260.0864
   -252477.78947   -189366.82444  22763907.0554                   22763907.6134
  -2476273.49648  -1921863.15246  21364291.5084                   21364289.3484
 11  9 24 17 27  0.0000000  0  7G07G08G11G17G24G26G28
   4866146.54747   3781137.53546  21719737.0234                   21719736.2814
    -13000.99648     -3877.67246  20052448.6724                   20052447.7234
   3606895.48447   2804592.91445  22397216.9844                   22397216.7424
  -4946171.60248  -3833986.17646  20983674.0164                   20983672.9224
    379614.79747    300546.58645  22172641.3754                   22172642.5704
   -252509.73447   -189391.78145  22763900.8364                   22763901.4574
  -2525363.99248  -1960115.50446  21354950.1414                   21354947.7664
 11  9 24 17 27 30.0000000  0  7G07G08G11G17G24G26G28
   4922783.94947   3825270.45346  21730514.8594                   21730514.5514
     -9545.32048     -1184.98846  20053106.2814                   20053105.0124
   3651066.16047   2839011.56644  22405622.4224                   22405622.3554
  -5011188.42247  -3884648.62146  20971301.6884                   20971300.6454
    387416.64547    306625.90245  22174126.0944                   22174126.7074
   -252023.62547   -189013.05944  22763993.2734                   22763993.7624
  -2574410.14848  -1998333.30546  21345617.1484                   21345615.0044
 11  9 24 17 28  0.0000000  0  7G07G08G11G17G24G26G28
   4979786.05147   3869687.55546  21741362.2424                   21741361.6254
     -5518.25048      1952.94546  20053872.9064                   20053871.8404
   3695658.57847   2873758.83245  22414108.6644                   22414107.4774
  -5075846.69548  -3935031.69146  20958997.4844                   20958996.5824
    395755.35547    313123.57445  22175713.1484                   22175713.8284
   -251020.94147   -188231.80544  22764184.6174                   22764184.6564
  -2623410.75448  -2036515.60246  21336292.3524                   21336290.1524
 11  9 24 17 28 30.0000000  0  8G07G08G11G17G24G26G28G04
   5037150.66847   3914387.13746  21752278.1024                   21752278.1914
      -920.48848      5535.56646  20054747.7194                   20054746.9064
   3740669.35547   2908832.09845  22422673.8444                   22422672.8674
  -5140147.72348  -3985136.37546  20946761.5554                   20946760.2344
    404629.28947    320038.28945  22177401.6484                   22177402.4064
   -249504.23847   -187050.02344  22764472.9694                   22764473.5044
  -2672365.86348  -2074662.45746  21326976.6644                   21326974.5594
   1403137.66056   1100126.52053  24440607.2814                   24440614.3914
 11  9 24 17 29  0.0000000  0  8G07G08G11G17G24G26G28G04
   5094870.11347   3959363.20346  21763261.9924                   21763262.0634
      4242.64148      9558.73046  20055730.3364                   20055729.7384
   3786091.03947   2944225.55945  22431317.1954                   22431316.6414
  -5204097.12547  -4034967.07446  20934592.5234                   20934590.9614
    414031.93047    327364.97745  22179190.7664                   22179191.7774
   -247480.89147   -185473.45744  22764858.3134                   22764858.4414
  -2721280.43448  -2112777.71546  21317668.6024                   21317666.8054
   1261058.05146    989415.45343  24413570.3674                   24413577.5394
 11  9 24 17 29 30.0000000  0  8G07G08G11G17G24G26G28G04
   5152934.63747   4004608.16446  21774311.2194                   21774311.6994
      9962.25448     14015.52046  20056818.6484                   20056817.7274
   3831912.99647   2979930.90644  22440036.8594                   22440036.2894
  -5267703.16048  -4084530.21146  20922488.5314                   20922487.3794
    423954.07447    335096.48845  22181079.1954                   22181080.1914
   -244961.29347   -183510.18744  22765337.2734                   22765338.2664
  -2770161.67648  -2150867.00046  21308366.6954                   21308364.7974
   1118894.11346    878638.67243  24386517.2584                   24386524.1254
 11  9 24 17 30  0.0000000  0  8G07G08G11G17G24G26G28G04
   6786762.80147   5277720.89145  22085218.6174                   22085218.5784
   1591661.12548   1246508.09446  20357806.1644                   20357805.1804
   5453553.77747   4243547.02745  22748624.9454                   22748624.2624
  -3755541.72747  -2906222.59046  21210242.9384                   21210242.2424
   2009817.12547   1570833.88345  22482858.7274                   22482860.0944
   1333475.12147   1046440.18844  23065704.2894                   23065704.8874
  -1243585.03148   -961326.77346  21598864.5164                   21598862.4774
   2552076.01646   1995404.13343  24659242.6644                   24659249.1094
 11  9 24 17 30 30.0000000  0  8G07G08G11G17G24G26G28G04
   6845523.27047   5323508.14546  22096400.4064                   22096400.3594
   1598505.67248   1251841.45346  20359108.4454                   20359107.9414
   5500180.97347   4279879.84045  22757497.8204                   22757497.2934
  -3818450.76248  -2955242.61346  21198271.9534                   21198270.9694
   2020787.03147   1579381.84045  22484946.3204                   22484947.8284
   1336992.73847   1049181.14144  23066373.1254                   23066373.5904
  -1292386.21948   -999353.68446  21589578.2814                   21589575.7424
   2409763.18446   1884511.34843  24632160.7034                   24632167.8484
 11  9 24 17 31  0.0000000  0  8G07G08G11G17G24G26G28G04
   6904634.82847   5369568.97345  22107649.0864                   22107649.0474
   1605918.09048   1257617.30946  20360519.1484                   20360518.2894
   5547213.34447   4316528.35545  22766448.1484                   22766447.2624
  -3881005.48848  -3003986.53546  21186368.4694                   21186366.9304
   2032285.18047   1588341.38745  22487134.2274                   22487135.3204
   1341012.29347   1052313.19144  23067138.3674                   23067139.0314
  -1341140.37148  -1037343.93046  21580300.2814                   21580298.2704
   2267385.70346   1773568.14843  24605067.2274                   24605073.2704
 11  9 24 17 31 30.0000000  0  8G07G08G11G17G24G26G28G04
   6964096.68847   5415902.77346  22118964.3284                   22118964.2894
   1613899.54348   1263836.57046  20362038.0084                   20362037.3874
   5594649.67647   4353491.66045  22775474.6884                   22775474.4534
  -3943205.49648  -3052454.05946  21174531.9064                   21174530.8674
   2044311.71547   1597712.68445  22489423.3364                   22489424.2074
   1345532.83647   1055835.63344  23067998.3204                   23067999.3404
  -1389845.38748  -1075295.89546  21571031.8754                   21571030.0634
   2124947.62146   1662577.76243  24577961.9224                   24577968.2584
 11  9 24 17 32  0.0000000  0  8G07G08G11G17G24G26G28G04
   7023906.36347   5462507.60245  22130345.7034                   22130346.0984
   1622448.78948   1270498.27046  20363664.7584                   20363663.8714
   5642486.80147   4390767.26645  22784578.0944                   22784578.1174
  -4005051.92248  -3100646.05946  21162763.0554                   21162761.4734
   2056864.56347   1607494.06645  22491811.9384                   22491812.6414
   1350551.21147   1059745.99644  23068953.2734                   23068954.3754
  -1438501.59848  -1113209.83246  21561772.9224                   21561770.9734
   1982450.69946   1551541.52342  24550844.9844                   24550851.6684
 11  9 24 17 32 30.0000000  0  8G07G08G11G17G24G26G28G04
   7084063.52747   5509383.18045  22141793.1254                   22141793.5084
   1631567.59048   1277603.77046  20365400.0784                   20365399.1954
   5690724.28947   4428354.84844  22793756.8284                   22793756.9304
  -4066543.11748  -3148561.26646  21151061.2894                   21151060.3954
   2069944.83647   1617686.46145  22494301.1024                   22494301.6804
   1356067.80547   1064044.56644  23070003.5704                   23070004.5124
  -1487106.48448  -1151083.78146  21552524.0704                   21552521.7424
   1839899.57445   1440463.04342  24523717.8524                   24523724.3984
 11  9 24 17 33  0.0000000  0  8G07G08G11G17G24G26G28G04
   7144563.41047   5556525.82045  22153306.4924                   22153306.2934
   1641252.64848   1285150.52346  20367243.2114                   20367242.5704
   5739357.07047   4466250.43444  22803011.8524                   22803011.3954
  -4127682.43047  -3196202.27346  21139426.9694                   21139426.0274
   2083548.28147   1628286.51245  22496889.7504                   22496890.5314
   1362077.03547   1068727.01244  23071146.8984                   23071147.6214
  -1535661.87548  -1188919.15246  21543284.2974                   21543282.3014
   1697293.73846   1329341.91442  24496580.1254                   24496587.1254
 11  9 24 17 33 30.0000000  0  8G07G08G11G17G24G26G28G04
   7205402.53947   5603932.80945  22164883.3444                   22164883.9654
   1651501.53548   1293136.61346  20369193.4534                   20369192.5434
   5788380.84847   4504450.69544  22812341.3914                   22812339.9304
  -4188472.01248  -3243570.77046  21127858.9694                   21127858.2074
   2097672.16047   1639292.08245  22499577.1644                   22499578.4024
   1368574.93047   1073790.24644  23072383.7114                   23072384.5784
  -1584168.84448  -1226716.80546  21534053.7034                   21534051.5904
   1554634.35246   1218179.14843  24469433.4774                   24469439.4064
 11  9 24 17 34  0.0000000  0  8G07G08G11G17G24G26G28G04
   7266580.25047   5651603.60545  22176525.6884                   22176525.6134
   1662315.86348   1301563.31346  20371251.4304                   20371250.6254
   5837794.50447   4542954.75844  22821743.8674                   22821743.3874
  -4248910.84847  -3290665.95346  21116358.2974                   21116356.9144
   2112316.62547   1650703.30545  22502364.2664                   22502365.0394
   1375560.69947   1079233.62544  23073712.7194                   23073713.5354
  -1632625.23048  -1264475.04346  21524832.9774                   21524830.9184
   1411925.38746   1106977.65643  24442276.3524                   24442283.0664
 11  9 24 17 34 30.0000000  0  8G07G08G11G17G24G26G28G04
   7328092.75447   5699535.30145  22188230.9534                   22188231.0634
   1673693.49648   1310428.94946  20373416.7664                   20373416.0554
   5887594.23447   4581759.67244  22831220.6724                   22831220.0944
  -4309000.87148  -3337489.34046  21104923.1644                   21104922.1214
   2127479.02347   1662518.12545  22505249.4224                   22505250.4344
   1383030.83647   1085054.43844  23075134.7034                   23075135.3954
  -1681031.66848  -1302194.34846  21515621.0634                   21515619.1684
   1269168.27346    995738.64143  24415111.4304                   24415116.7074
 11  9 24 17 35  0.0000000  0  8G07G08G11G17G24G26G28G04
   7389938.77747   5747726.88345  22200000.0164                   22200000.4024
   1685634.04748   1319733.22346  20375688.9144                   20375688.3204
   5937778.10947   4620863.91044  22840770.0784                   22840770.0164
  -4368742.18447  -3384041.00046  21093554.7504                   21093553.4774
   2143157.99647   1674735.46145  22508232.9844                   22508234.1374
   1390983.13747   1091250.96144  23076647.8914                   23076648.6994
  -1729387.43748  -1339874.18046  21506419.3204                   21506417.1804
   1126365.51646    884464.09843  24387935.8674                   24387942.4694
 11  9 24 17 35 30.0000000  0  8G07G08G11G17G24G26G28G04
   7452113.42247   5796174.52345  22211831.5084                   22211831.8054
   1698135.02048   1329474.18446  20378067.6094                   20378067.2344
   5988341.36747   4660263.76644  22850392.9144                   22850391.7154
  -4428137.60547  -3430323.13746  21082252.3984                   21082251.1804
   2159350.13347   1687352.66445  22511314.3134                   22511314.8714
   1399413.17647   1097819.76644  23078251.9384                   23078252.8954
  -1777694.06648  -1377515.71546  21497226.8914                   21497224.7194
    983517.84446    773154.48843  24360752.8054                   24360759.4614
 11  9 24 17 36  0.0000000  0  8G07G08G11G17G24G26G28G04
   7514615.51247   5844877.32445  22223725.6334                   22223725.4454
   1711195.87948   1339651.42646  20380553.2034                   20380552.6214
   6039281.73447   4699957.46944  22860085.8524                   22860085.5634
  -4487187.36347  -3476335.92646  21071015.5554                   21071014.4574
   2176054.53147   1700369.03545  22514493.3054                   22514493.6024
   1408319.05547   1104759.33644  23079946.8594                   23079947.7344
  -1825950.31248  -1415117.98846  21488044.3054                   21488041.9454
    840628.14547    661812.16843  24333562.1804                   24333567.8794
 11  9 24 17 36 30.0000000  0  8G07G08G11G17G24G26G28G04
   7577444.19547   5893834.60245  22235681.7194                   22235681.9304
   1724817.56648   1350265.67246  20383145.6804                   20383144.5784
   6090598.07047   4739944.14844  22869851.4844                   22869850.6414
  -4545890.69547  -3522078.77346  21059844.5394                   21059843.0354
   2193271.20747   1713784.58645  22517769.5634                   22517770.7274
   1417699.39547   1112068.62544  23081731.5704                   23081732.8554
  -1874153.98048  -1452679.30546  21478871.3054                   21478869.5664
    697700.36747    550440.14543  24306363.7424                   24306369.3594
 11  9 24 17 37  0.0000000  0  8G07G08G11G17G24G26G28G04
   7640597.13747   5943044.54745  22247699.4924                   22247699.6454
   1738999.71548   1361316.64146  20385844.3594                   20385843.6884
   6142288.02747   4780221.94944  22879688.1644                   22879686.9694
  -4604248.04747  -3567552.02746  21048739.6174                   21048738.1724
   2210998.64147   1727598.12545  22521143.3364                   22521143.5744
   1427551.74247   1119745.71544  23083607.0864                   23083607.8984
  -1922304.55148  -1490199.23446  21469708.3284                   21469706.4574
    554737.07847    439040.47344  24279158.2034                   24279164.5514
 11  9 24 17 37 30.0000000  0  8G07G08G11G17G24G26G28G04
   7704073.87947   5992506.81345  22259778.3054                   22259778.8954
   1753742.74648   1372804.67646  20388650.0554                   20388649.2894
   6194350.19547   4820789.81344  22889594.9774                   22889594.3134
  -4662258.28947  -3612754.81246  21037700.4694                   21037699.3524
   2229237.23847   1741809.96945  22524613.8834                   22524614.5664
   1437875.74247   1127790.32444  23085571.5004                   23085572.4694
  -1970399.62548  -1527675.92246  21460556.2664                   21460554.0474
    411742.73446    327616.59043  24251946.9924                   24251952.9454
 11  9 24 17 38  0.0000000  0  8G07G08G11G17G24G26G28G04
   7767873.06347   6042220.32045  22271919.0474                   22271919.8554
   1769046.86748   1384729.91046  20391562.3284                   20391561.5864
   6246783.15247   4861646.57844  22899572.1484                   22899571.7704
  -4719921.62948  -3657687.27346  21026727.5554                   21026726.4574
   2247985.83647   1756419.21545  22528181.4844                   22528182.2854
   1448669.01247   1136200.59444  23087625.5394                   23087626.4804
  -2018438.09848  -1565108.50846  21451415.0234                   21451412.5594
    268720.44546    216170.91843  24224730.7814                   24224736.3134
 11  9 24 17 38 30.0000000  0  8G07G08G11G17G24G26G28G04
   7831992.47347   6092183.34845  22284120.9924                   22284121.4924
   1784911.35948   1397091.79346  20394581.1484                   20394580.5314
   6299584.50847   4902790.41844  22909620.6174                   22909619.9454
  -4777238.35548  -3702349.65246  21015820.6094                   21015819.3714
   2267243.48447   1771425.12544  22531846.3204                   22531846.8554
   1459929.84847   1144975.18844  23089768.2034                   23089769.1024
  -2066418.57048  -1602495.89846  21442284.4064                   21442282.4384
    125673.09046    104705.71943  24197509.6174                   24197514.7734
 11  9 24 17 39  0.0000000  0  8G07G08G11G17G24G26G28G04
   7896429.94947   6142394.22745  22296383.1254                   22296383.8134
   1801335.57048   1409889.82446  20397706.4144                   20397705.7974
   6352751.23847   4944218.96544  22919737.5394                   22919737.6374
  -4834209.45748  -3746742.71146  21004979.4614                   21004978.1604
   2287008.45347   1786826.35545  22535607.0394                   22535607.5514
   1471655.20347   1154111.76644  23091999.6804                   23092001.0984
  -2114340.43048  -1639837.61746  21433165.4774                   21433163.2814
    -17397.01246     -6777.20343  24170283.4534                   24170289.6954
 11  9 24 17 39 30.0000000  0  8G07G08G11G17G24G26G28G04
   7961183.12147   6192851.10245  22308704.8834                   22308705.7274
   1818318.59048   1423123.29346  20400938.2894                   20400937.6844
   6406280.83647   4985930.24644  22929923.9064                   22929923.9144
  -4890835.35248  -3790866.78146  20994203.6954                   20994202.5744
   2307278.92247   1802621.47345  22539464.6024                   22539465.6764
   1483842.46947   1163608.25844  23094318.6024                   23094320.2734
  -2162203.57448  -1677133.57846  21424057.1804                   21424054.9304
   -160487.06646   -118275.69943  24143054.6174                   24143059.6884
 11  9 24 17 40  0.0000000  0  8G07G08G11G17G24G26G28G04
   8026248.97747   6243551.62945  22321087.0234                   22321087.5354
   1835858.63348   1436790.80946  20404276.0864                   20404275.4734
   6460169.89547   5027921.63344  22940178.8834                   22940178.6604
  -4947117.93048  -3834723.32046  20983493.7274                   20983492.2194
   2328052.59047   1818808.69944  22543417.9534                   22543418.5084
   1496488.24647   1173462.03544  23096725.1884                   23096726.0864
  -2210007.72348  -1714383.57446  21414960.4144                   21414958.7154
   -303595.52746   -229788.53143  24115821.8134                   24115827.1764
 11  9 24 17 40 30.0000000  0  8G07G08G11G17G24G26G28G04
   8091625.23447   6294494.02045  22333527.8204                   22333528.3284
   1853954.84448   1450891.69146  20407719.7894                   20407719.1764
   6514415.71147   5070191.02744  22950501.5474                   22950500.9494
  -5003057.75848  -3878312.78546  20972848.3134                   20972847.5474
   2349327.77047   1835386.70744  22547466.6334                   22547467.0354
   1509590.05147   1183671.16044  23099218.6884                   23099220.1804
  -2257752.17648  -1751587.04746  21405874.9224                   21405872.9964
   -446719.65646   -341313.56243  24088585.2344                   24088590.5474
 11  9 24 17 41  0.0000000  0  8G07G08G11G17G24G26G28G04
   8157311.30547   6345677.82445  22346027.7974                   22346028.3484
   1872608.31348   1465426.80546  20411269.4844                   20411269.0514
   6569017.68847   5112737.93044  22960892.2424                   22960891.3054
  -5058653.44148  -3921634.08246  20962269.0864                   20962268.2384
   2371104.83247   1852355.79344  22551610.3984                   22551611.0004
   1523147.06647   1194234.99244  23101798.5944                   23101799.2194
  -2305434.39848  -1788742.04346  21396801.5084                   21396799.3444
   -589855.06246   -452847.39543  24061348.3204                   24061353.3164
 11  9 24 17 41 30.0000000  0  8G07G08G11G17G24G26G28G04
   8223303.88747   6397100.46545  22358585.7344                   22358586.3834
   1891816.70748   1480394.32846  20414924.7504                   20414924.2814
   6623971.65247   5155559.12544  22971349.2424                   22971349.4344
  -5113907.27348  -3964689.00846  20951754.7814                   20951753.4964
   2393380.87547   1869713.69545  22555849.2734                   22555850.4414
   1537155.21547   1205150.36344  23104464.5314                   23104465.3444
  -2353054.91048  -1825848.94146  21387739.7584                   21387737.4064
   -733000.45346   -564389.00443  24034108.3834                   24034112.9804
 11  9 24 17 42  0.0000000  0  8G07G08G11G17G24G26G28G04
   8289603.48047   6448762.33645  22371202.1564                   22371202.7384
   1911582.30948   1495796.03946  20418685.9384                   20418685.3874
   6679278.03947   5198654.93044  22981873.8364                   22981873.3754
  -5168816.87148  -4007475.70346  20941305.6254                   20941304.1024
   2416157.09447   1887461.34844  22560183.7814                   22560184.2664
   1551614.84047   1216417.52344  23107216.0864                   23107217.0594
  -2400610.23048  -1862905.05146  21378689.9384                   21378687.8834
   -876150.09446   -675933.95743  24006867.7734                   24006872.2624
 11  9 24 17 42 30.0000000  0  8G07G08G11G17G24G26G28G04
   8356207.22347   6500661.19545  22383876.2424                   22383876.8524
   1931903.35548   1511630.55546  20422553.1414                   20422552.3914
   6734933.73047   5242022.90644  22992464.7424                   22992465.0124
  -5223383.74248  -4049995.33246  20930921.9774                   20930920.7894
   2439431.30547   1905597.04345  22564612.4924                   22564613.4574
   1566523.20347   1228034.35944  23110052.7974                   23110053.8594
  -2448099.83648  -1899909.94946  21369652.8524                   21369651.0594
  -1019301.88346   -787480.57844  23979626.8984                   23979631.4694
 11  9 24 17 43  0.0000000  0  8G07G08G11G17G24G26G28G04
   8423113.38347   6552795.70745  22396608.4844                   22396609.3594
   1952779.39848   1527897.53946  20426525.7114                   20426525.2704
   6790936.29347   5285661.19144  23003122.3524                   23003121.6334
  -5277608.09848  -4092248.05946  20920603.2894                   20920601.9804
   2463202.29347   1924119.82444  22569136.3134                   22569136.9414
   1581877.69947   1239998.82444  23112975.0164                   23112975.8404
  -2495522.40648  -1936862.61346  21360628.9064                   21360626.6214
  -1162452.63346   -899026.37944  23952385.3134                   23952390.4024
 11  9 24 17 43 30.0000000  0  8G07G08G11G17G24G26G28G04
   8490319.50447   6605163.95745  22409397.1884                   22409398.2704
   1974209.06348   1544595.91446  20430603.3834                   20430603.2544
   6847283.14547   5329567.73444  23013844.7344                   23013844.2274
  -5331490.92248  -4134234.66446  20910349.8204                   20910348.4614
   2487468.09847   1943028.18844  22573753.8204                   22573754.6414
   1597675.43847   1252308.66844  23115981.5314                   23115982.4574
  -2542877.79748  -1973762.93046  21351617.6094                   21351615.2854
  -1305599.98046  -1010569.57044  23925145.3364                   23925150.4654
 11  9 24 17 44  0.0000000  0  8G07G08G11G17G24G26G28G04
   8557825.34847   6657765.76245  22422243.3594                   22422244.4414
   1996193.34048   1561726.46546  20434786.9064                   20434786.8094
   6903973.55947   5373742.00444  23024632.2274                   23024632.1374
  -5385030.93048  -4175954.14546  20900161.5004                   20900159.8954
   2512228.79347   1962322.18444  22578465.6804                   22578466.6174
   1613915.80147   1264963.43444  23119071.6484                   23119072.4694
  -2590163.04748  -2010608.58646  21342619.4774                   21342617.0904
  -1448739.39146  -1122106.55143  23897906.9454                   23897911.9264
 11  9 24 17 44 30.0000000  0  8G07G08G11G17G24G26G28G04
   8625627.83247   6710598.69945  22435145.6174                   22435147.2194
   2018730.72748   1579288.00046  20439075.7584                   20439075.6054
   6961004.20347   5418181.36744  23035485.1174                   23035485.3164
  -5438229.31248  -4217407.43046  20890038.1644                   20890036.9734
   2537482.16847   1982000.08644  22583271.6254                   22583272.3914
   1630595.44547   1277960.46944  23122245.9694                   23122247.1484
  -2637377.93448  -2047399.42246  21333634.7734                   21333632.9734
  -1591868.93046  -1233635.83243  23870669.7424                   23870674.3984
 11  9 24 17 45  0.0000000  0  8G07G08G11G17G24G26G28G04
   8693724.16447   6763660.61345  22448104.9064                   22448105.4614
   2041819.71948   1597279.35946  20443469.7274                   20443468.9654
   7018371.77747   5462883.29344  23046401.8524                   23046401.2854
  -5491087.54348  -4258595.64846  20879979.3364                   20879978.3444
   2563226.12547   2002060.27044  22588169.9224                   22588171.2114
   1647711.07047   1291297.24644  23125503.1254                   23125503.4774
  -2684521.92248  -2084135.00846  21324663.5864                   21324661.5044
  -1734986.19546  -1345155.56643  23843435.6094                   23843439.7384
 11  9 24 17 45 30.0000000  0  8G07G08G11G17G24G26G28G04
   8762112.63347   6816950.17245  22461118.6024                   22461119.8014
   2065459.59048   1615699.98046  20447968.2424                   20447967.9734
   7076073.97347   5507845.96144  23057382.0784                   23057382.2704
  -5543606.22348  -4299519.28546  20869985.3524                   20869984.5554
   2589459.12947   2022501.53144  22593162.1564                   22593163.0434
   1665260.20347   1304971.82044  23128842.2894                   23128844.0744
  -2731593.86348  -2120814.45746  21315706.3984                   21315703.9344
  -1878088.11346  -1456663.33243  23816203.7424                   23816208.9964
 11  9 24 17 46  0.0000000  0  8G07G08G11G17G24G26G28G04
   8830792.58647   6870466.86345  22474187.9224                   22474189.2544
   2089650.76648   1634550.19146  20452571.3204                   20452571.3714
   7134110.52747   5553069.15244  23068425.8674                   23068425.5664
  -5595783.96548  -4340177.26646  20860056.2584                   20860055.4804
   2616181.36747   2043324.00044  22598247.5084                   22598248.1294
   1683242.27747   1318983.73444  23132264.0164                   23132265.7934
  -2778591.03548  -2157435.63746  21306762.6254                   21306760.7074
  -2021170.06246  -1568155.53143  23788975.3364                   23788981.0204
 11  9 24 17 46 30.0000000  0  8G07G08G11G17G24G26G28G04
   8899762.57047   6924209.53945  22487312.4614                   22487313.6484
   2114393.63748   1653830.29346  20457280.1954                   20457279.7504
   7192479.32846   5598551.24244  23079533.6174                   23079533.3984
  -5647620.91848  -4380569.68446  20850191.8444                   20850190.7934
   2643392.00847   2064527.04744  22603425.5474                   22603426.0044
   1701655.46547   1333331.59844  23135768.0314                   23135769.3014
  -2825511.73848  -2193997.22746  21297834.0234                   21297832.0664
  -2164228.34446  -1679629.32443  23761752.6334                   23761757.6294
 11  9 24 17 47  0.0000000  0  8G07G08G11G17G24G26G28G04
   8969019.18447   6978175.55945  22500491.7194                   22500492.8164
   2139685.47748   1673538.16046  20462092.8674                   20462092.3554
   7251176.70747   5644289.37144  23090703.2274                   23090703.4384
  -5699118.42248  -4420697.60246  20840392.6804                   20840391.5164
   2671088.02047   2086108.31645  22608695.6484                   22608696.9414
   1720495.82047   1348012.30544  23139353.7504                   23139355.1334
  -2872356.27748  -2230499.47346  21288919.7734                   21288917.6564
  -2307261.26246  -1791083.34443  23734533.5234                   23734538.7344
 11  9 24 17 47 30.0000000  0  8G07G08G11G17G24G26G28G04
   9038562.64547   7032365.10545  22513725.4924                   22513726.7584
   2165527.91848   1693675.07046  20467010.6644                   20467010.3054
   7310202.48446   5690283.39144  23101935.6954                   23101935.6414
  -5750275.34048  -4460560.12546  20830657.6174                   20830656.5234
   2699269.87947   2108068.15645  22614059.0234                   22614059.3954
   1739762.86347   1363025.48844  23143019.7814                   23143021.2464
  -2919121.47748  -2266939.89546  21280020.9844                   21280018.5124
  -2450263.99246  -1902513.85543  23707321.6414                   23707326.5474
 11  9 24 17 48  0.0000000  0  8G07G08G11G17G24G26G28G04
   9108391.90647   7086777.33645  22527013.7894                   22527015.1414
   2191920.88348   1714240.94946  20472033.2034                   20472032.9384
   7369555.21146   5736532.17244  23113229.6644                   23113230.0744
  -5801091.00448  -4500156.73846  20820987.8284                   20820986.6914
   2727937.19547   2130406.28545  22619513.7034                   22619515.1134
   1759455.14847   1378370.05144  23146766.9774                   23146768.9734
  -2965804.69948  -2303316.44146  21271137.0784                   21271135.2854
  -2593232.41047  -2013917.62543  23680115.3364                   23680120.2814
 11  9 24 17 48 30.0000000  0  8G07G08G11G17G24G26G28G04
   9178502.27347   7141408.62545  22540355.6414                   22540356.6174
   2218861.03148   1735233.21946  20477159.4304                   20477159.2774
   7429230.40647   5783032.23444  23124585.9694                   23124586.0744
  -5851568.52748  -4539489.87146  20811382.1254                   20811381.0044
   2757086.36747   2153119.87545  22625060.8524                   22625062.1334
   1779568.09847   1394042.38744  23150594.8914                   23150596.7464
  -3012407.05548  -2339629.96546  21262269.1724                   21262266.7074
  -2736165.55547  -2125293.88343  23652915.9304                   23652919.6724
 11  9 24 17 49  0.0000000  0  8G07G08G11G17G24G26G28G04
   9248892.55547   7196258.02045  22553750.4774                   22553751.8284
   2246347.85548   1756651.45746  20482390.2274                   20482390.1134
   7489226.07847   5829781.99244  23136003.0864                   23136002.6684
  -5901707.77048  -4578559.39846  20801840.6414                   20801839.9804
   2786716.05147   2176207.89845  22630699.3284                   22630700.4844
   1800099.37947   1410040.71544  23154501.8444                   23154503.2154
  -3058927.44148  -2375879.62946  21253416.9924                   21253414.4804
  -2879060.09047  -2236640.10543  23625723.9774                   23625727.8134
 11  9 24 17 49 30.0000000  0  8G07G08G11G17G24G26G28G04
   9319557.96947   7251321.80945  22567197.7894                   22567199.0944
   2274377.68448   1778492.80546  20487724.4064                   20487724.1804
   7549537.24247   5876777.61744  23147479.6954                   23147480.1844
  -5951511.74648  -4617367.68746  20792363.8594                   20792362.1524
   2816822.27747   2199667.25045  22636428.1564                   22636429.4534
   1821044.03147   1426361.13344  23158487.4614                   23158488.9144
  -3105366.59048  -2412065.98446  21244579.5474                   21244577.0274
  -3021915.44547  -2347955.78143  23598539.2814                   23598543.2734
 11  9 24 17 50  0.0000000  0  8G07G08G11G17G24G26G28G04
   9390495.41847   7306597.55545  22580697.0944                   22580698.3164
   2302948.46948   1800755.69946  20493161.1884                   20493161.3914
   7610160.51247   5924016.44144  23159015.7894                   23159016.7854
  -6000982.10948  -4655916.02046  20782949.9454                   20782948.7424
   2847402.16047   2223495.67245  22642247.5164                   22642248.5634
   1842398.62147   1443000.97744  23162551.2974                   23162552.4734
  -3151724.27348  -2448188.86346  21235758.0314                   21235755.7734
  -3164729.56647  -2459239.31244  23571362.4614                   23571367.0944
 11  9 24 17 50 30.0000000  0  8G07G08G11G17G24G26G28G04
   9461702.77047   7362083.62945  22594247.1884                   22594248.8954
   2332059.61348   1823439.64146  20498700.8674                   20498700.6174
   7671093.42646   5971496.53544  23170611.3284                   23170611.1564
  -6050119.66048  -4694205.01246  20773599.1174                   20773598.1684
   2878453.96947   2247691.82845  22648156.3674                   22648157.7344
   1864160.21947   1459957.98444  23166692.0634                   23166693.4694
  -3197999.85548  -2484247.77046  21226951.8594                   21226950.0204
  -3307499.57447  -2570488.48043  23544194.5394                   23544198.3554
 11  9 24 17 51  0.0000000  0  8G07G08G11G17G24G26G28G04
   9533175.46147   7417776.45345  22607848.1174                   22607849.7154
   2361707.23448   1846541.61346  20504342.6484                   20504342.7074
   7732331.60546   6019214.50044  23182264.7894                   23182264.5744
  -6098927.13748  -4732236.80946  20764311.4534                   20764310.5234
   2909973.73847   2272252.64545  22654154.6094                   22654156.3324
   1886324.16447   1477228.50444  23170909.4384                   23170911.5594
  -3244194.13348  -2520243.30946  21218161.4224                   21218159.4804
  -3450224.74647  -2681702.69143  23517034.3594                   23517038.2814
 11  9 24 17 51 30.0000000  0  8G07G08G11G17G24G26G28G04
   9604912.09447   7473674.94545  22621499.4144                   22621501.2814
   2391891.24248   1870061.54746  20510086.8834                   20510086.4414
   7793872.52346   6067168.37544  23193974.7114                   23193975.4104
  -6147404.63748  -4770011.48446  20755086.8754                   20755085.1214
   2941960.46547   2297177.31645  22660241.8284                   22660242.9344
   1908888.29747   1494810.85244  23175204.4144                   23175205.0354
  -3290305.43448  -2556174.19946  21209386.6884                   21209384.9024
  -3592901.41047  -2792879.11344  23489883.8984                   23489887.4384
 11  9 24 17 52  0.0000000  0  8G07G08G11G17G24G26G28G04
   9676909.30147   7529776.49245  22635199.9384                   22635201.4344
   2422609.04348   1893997.42646  20515932.2584                   20515932.0704
   7855712.59446   6115355.33244  23205743.2344                   23205743.2624
  -6195554.30948  -4807530.70346  20745923.9694                   20745922.6334
   2974411.14946   2322463.54744  22666416.8524                   22666417.9534
   1931848.46147   1512701.80144  23179573.0394                   23179574.7194
  -3336333.63748  -2592040.34046  21200627.7664                   21200625.8524
  -3735527.80546  -2904016.32843  23462742.5634                   23462746.5984
 11  9 24 17 52 30.0000000  0  8G07G08G11G17G24G26G28G04
   9749165.09047   7586079.50845  22648950.1414                   22648951.2464
   2453860.04348   1918348.78546  20521878.7584                   20521878.6764
   7917850.09846   6163774.07443  23217567.4534                   23217567.6374
  -6243376.07848  -4844794.41046  20736823.5164                   20736822.5634
   3007324.45347   2348110.19144  22672679.5944                   22672681.1454
   1955202.66047   1530899.78544  23184017.5234                   23184018.6844
  -3382277.38748  -2627840.68046  21191884.8834                   21191883.0314
  -3878100.60246  -3015111.80144  23435611.8284                   23435615.8444
 11  9 24 17 53  0.0000000  0  8G07G08G11G17G24G26G28G04
   9821676.85947   7642581.99245  22662748.5784                   22662750.1174
   2485642.60248   1943114.34446  20527927.0784                   20527926.9654
   7980281.87946   6212422.12143  23229448.3364                   23229447.6334
  -6290871.08248  -4881803.49646  20727785.6954                   20727784.6054
   3040698.01247   2374115.50044  22679030.3444                   22679032.2344
   1978947.71147   1549402.33644  23188536.0784                   23188537.5434
  -3428135.90248  -2663574.59046  21183158.6644                   21183156.3914
  -4020617.32847  -3126163.57044  23408491.3524                   23408495.4264
 11  9 24 17 53 30.0000000  0  8G07G08G11G17G24G26G28G04
   9894443.94547   7699283.43845  22676595.9614                   22676597.5004
   2517956.46148   1968293.91446  20534076.2734                   20534075.9224
   8043007.20746   6261298.91444  23241384.8594                   23241385.0234
  -6338038.92248  -4918557.65646  20718810.0944                   20718808.9024
   3074531.53547   2400479.24644  22685468.8204                   22685470.2114
   2003082.29747   1568208.41044  23193128.9924                   23193130.6374
  -3473906.37548  -2699239.91446  21174448.6334                   21174446.5704
  -4163073.45747  -3237168.15644  23381382.9614                   23381387.1884
 11  9 24 17 54  0.0000000  0  8G07G08G11G17G24G26G28G04
   9967462.50847   7756180.82845  22690491.2584                   22690492.7304
   2550798.91848   1993885.36346  20540326.3054                   20540325.9494
   8106021.92646   6310401.17244  23253376.6644                   23253375.9494
  -6384881.58248  -4955058.41846  20709895.9144                   20709894.7274
   3108821.62547   2427198.73044  22691994.0084                   22691995.2664
   2027602.18047   1587314.71144  23197794.4924                   23197796.3364
  -3519589.21548  -2734836.94146  21165755.6174                   21165753.4104
  -4305467.57047  -3348124.40244  23354286.0314                   23354290.0084
 11  9 24 17 54 30.0000000  0  8G07G08G11G17G24G26G28G04
  10040731.23847   7813273.15645  22704433.7424                   22704435.3554
   2584169.63748   2019888.45346  20546676.2504                   20546676.2424
   8169324.38746   6359727.65244  23265422.3914                   23265422.6644
  -6431398.82048  -4991305.61346  20701043.9304                   20701042.9964
   3143567.44147   2454273.35244  22698606.4224                   22698607.2274
   2052505.53547   1606719.83644  23202533.5474                   23202535.2304
  -3565182.23048  -2770363.98446  21157079.6804                   21157077.4104
  -4447795.44147  -3459029.05544  23327202.0394                   23327205.3714
 11  9 24 17 55  0.0000000  0  8G07G08G11G17G24G26G28G04
  10114249.79347   7870560.14844  22718424.2274                   22718425.6954
   2618069.25048   2046303.66446  20553127.1414                   20553126.6094
   8232913.93047   6409277.83644  23277522.5784                   23277523.1844
  -6477589.59848  -5027298.42246  20692254.2034                   20692252.9534
   3178769.06347   2481703.13744  22705304.9384                   22705305.9574
   2077791.50447   1626423.09044  23207345.2114                   23207347.0474
  -3610682.53548  -2805818.78146  21148420.9384                   21148418.9304
  -4590052.53947  -3569878.57444  23300131.6804                   23300134.4804
 11  9 24 17 55 30.0000000  0  8G07G08G11G17G24G26G28G04
  10188013.84447   7928038.43445  22732461.2194                   22732463.3834
   2652494.74648   2073128.66046  20559678.1564                   20559678.2304
   8296786.17247   6459048.30544  23289677.5944                   23289677.6414
  -6523456.97748  -5063039.22746  20683525.9614                   20683524.5044
   3214422.31347   2509484.82844  22712089.6094                   22712090.4184
   2103455.22347   1646420.70344  23212229.4844                   23212231.1454
  -3656091.00048  -2841202.01646  21139780.0394                   21139777.9574
  -4732237.86747  -3680672.17244  23273074.3284                   23273077.1254
 11  9 24 17 56  0.0000000  0  8G07G08G11G17G24G26G28G04
  10262019.14547   7985704.68845  22746544.1484                   22746545.8404
   2687442.11748   2100360.30546  20566328.3364                   20566328.3244
   8360936.56646   6509035.51244  23301884.8364                   23301885.8244
  -6569003.33248  -5098529.89146  20674858.7894                   20674857.5864
   3250523.21547   2537615.35544  22718959.1884                   22718960.4574
   2129491.74247   1666708.80944  23217184.1644                   23217185.3134
  -3701408.23848  -2876514.17646  21131156.6254                   21131154.5124
  -4874350.23047  -3791408.92644  23246031.1954                   23246034.3954
 11  9 24 17 56 30.0000000  0  8G07G08G11G17G24G26G28G04
  10336267.00047   8043559.94545  22760672.4694                   22760675.2114
   2722913.59848   2128000.35546  20573078.5394                   20573078.3794
   8425365.93447   6559240.11344  23314145.9454                   23314145.6254
  -6614226.29348  -5133768.55946  20666253.1414                   20666251.9104
   3287073.37546   2566095.92644  22725914.7274                   22725915.7814
   2155901.86347   1687288.02344  23222209.4144                   23222211.4104
  -3746629.68048  -2911751.67646  21122551.3754                   21122549.2774
  -5016383.50047  -3902084.02344  23219002.4614                   23219006.1094
 11  9 24 17 57  0.0000000  0  8G07G08G11G17G24G26G28G04
  11986170.21547   9329198.59045  23074639.3834                   23074641.3954
   4334324.33248   3383645.01646  20879719.8134                   20879719.8014
  10065487.47746   7837256.78544  23626250.3204                   23626250.6024
  -5083707.27748  -3941156.33646  20957501.3054                   20957499.8164
   4899487.36746   3822522.37144  23032746.7344                   23032747.7894
   3758099.45347   2935753.59844  23527097.7734                   23527099.7154
  -2216334.72348  -1719314.07046  21413756.7734                   21413754.6174
  -3582911.98447  -2785093.05544  23491783.0234                   23491786.7774
 11  9 24 17 57 30.0000000  0  8G07G08G11G17G24G26G28G04
  12060889.62947   9387421.28145  23088858.5004                   23088860.7234
   4370833.43048   3412093.58646  20886667.4924                   20886667.2664
  10130460.87946   7887885.30944  23638614.6414                   23638615.3014
  -5128292.09048  -3975897.75046  20949016.6174                   20949015.8014
   4936923.87147   3851693.61344  23039870.4064                   23039871.8984
   3785241.64147   2956903.23044  23532262.7584                   23532264.7734
  -2261367.38348  -1754404.47746  21405187.2344                   21405185.0234
  -3724784.08247  -2895642.57044  23464785.7504                   23464789.1054
 11  9 24 17 58  0.0000000  0  8G07G08G11G17G24G26G28G04
  12135840.20747   9445824.10545  23103121.2114                   23103123.2934
   4407857.79748   3440943.68046  20893713.0784                   20893712.7584
  10195701.71147   7938722.20743  23651029.3054                   23651029.6214
  -5172560.11348  -4010392.31646  20940592.9844                   20940591.7584
   4974799.54347   3881207.05944  23047078.4614                   23047079.8594
   3812744.45347   2978333.90244  23537496.1484                   23537498.4924
  -2306304.84848  -1789420.69946  21396636.1644                   21396634.0434
  -3866572.30547  -3006126.73044  23437804.5004                   23437807.4574
 11  9 24 17 58 30.0000000  0  8G07G08G11G17G24G26G28G04
  12211020.37947   9504405.82845  23117427.5084                   23117430.2154
   4445396.80148   3470194.77746  20900856.4384                   20900856.5594
  10261207.71947   7989765.77043  23663494.8914                   23663494.9414
  -5216511.64848  -4044640.26646  20932229.7584                   20932228.3014
   5013112.95347   3911061.59444  23054369.1024                   23054370.6174
   3840605.70747   3000043.85944  23542798.2034                   23542800.3984
  -2351145.27348  -1824361.30546  21388103.1484                   21388101.0474
  -4008272.93046  -3116542.67944  23410839.5314                   23410843.1724
 11  9 24 17 59  0.0000000  0  8G07G08G11G17G24G26G28G04
  12286427.64147   9563164.52045  23131777.4144                   23131779.0634
   4483448.95348   3499845.73046  20908097.5554                   20908097.2814
  10326976.26647   8041013.86743  23676009.9224                   23676010.7934
  -5260147.28948  -4078642.05946  20923925.7894                   20923924.5084
   5051862.26647   3941255.79744  23061743.3054                   23061744.5904
   3868822.62547   3022030.97744  23548167.8674                   23548169.7664
  -2395887.27348  -1859225.21546  21379588.9144                   21379587.0394
  -4149883.04746  -3226888.00444  23383891.9924                   23383895.4144
 11  9 24 17 59 30.0000000  0  8G07G08G11G17G24G26G28G04
  12362058.55147   9622097.49244  23146169.5164                   23146171.2114
   4522011.43848   3529894.34446  20915435.9064                   20915436.0044
  10393003.78546   8092463.78143  23688575.0554                   23688575.1724
  -5303469.50448  -4112399.64146  20915681.8444                   20915680.7344
   5091044.02747   3971786.97344  23069199.1804                   23069200.3754
   3897391.00447   3044291.94944  23553604.4694                   23553606.0744
  -2440531.17248  -1894012.68746  21371093.6024                   21371091.3444
  -4291400.92646  -3337161.48844  23356961.2814                   23356964.9924
 11  9 24 18  0  0.0000000  0  8G07G08G11G17G24G26G28G04
  12437909.34047   9681201.78944  23160603.5234                   23160606.0204
   4561081.07448   3560338.14546  20922870.3444                   20922870.7304
  10459286.39146   8144112.45343  23701188.0394                   23701188.4064
  -5346480.44148  -4145914.66046  20907496.9924                   20907495.9844
   5130654.90646   4002652.52044  23076736.8054                   23076738.6764
   3926306.53147   3066823.41444  23559107.5084                   23559108.6564
  -2485077.10948  -1928723.81646  21362616.8674                   21362614.8954
  -4432824.77746  -3447361.73444  23330049.5314                   23330052.8134
 11  9 24 18  0 30.0000000  0  8G07G08G11G17G24G26G28G04
  12513980.28946   9740477.64144  23175079.5164                   23175082.0594
   4600658.87147   3591177.91046  20930402.1564                   20930401.8404
  10525824.03146   8195959.84843  23713849.7344                   23713850.7114
  -5389178.20748  -4179185.64546  20899371.9774                   20899370.9574
   5170695.34446   4033852.80144  23084356.6484                   23084357.5784
   3955568.87547   3089625.14144  23564675.4844                   23564677.5004
  -2529521.00848  -1963355.44146  21354159.3444                   21354157.5274
  -4574149.10247  -3557484.40644  23303156.3364                   23303159.7854
 11  9 24 18  1  0.0000000  0  8G07G08G11G17G24G26G28G04
  12590267.33646   9799921.87544  23189596.3134                   23189598.6884
   4640741.73448   3622411.24246  20938029.7034                   20938029.5664
  10592612.71147   8248002.87143  23726559.6024                   23726560.5124
  -5431565.47748  -4212214.68447  20891305.9304                   20891304.7304
   5211161.70347   4065384.96144  23092057.0554                   23092058.2154
   3985173.34047   3112693.45344  23570309.2504                   23570310.9144
  -2573863.32848  -1997907.91046  21345721.3134                   21345719.2774
  -4715372.73847  -3667528.61744  23276282.3054                   23276285.7624
 11  9 24 18  1 30.0000000  0  8G07G08G11G17G24G26G28G04
  12666768.59047   9859533.01644  23204153.8674                   23204156.7194
   4681328.39848   3654037.12546  20945752.9844                   20945753.6024
  10659649.99247   8300239.61744  23739316.3444                   23739317.3914
  -5473642.23048  -4245001.77046  20883299.2194                   20883297.8954
   5252052.24247   4097247.64544  23099837.5864                   23099839.5354
   4015117.39547   3136026.35944  23576007.3674                   23576009.5514
  -2618102.38748  -2032379.91046  21337303.0004                   21337301.2734
  -4856492.27347  -3777491.72344  23249428.1094                   23249431.2114
 11  9 24 18  2  0.0000000  0  8G07G08G11G17G24G26G28G04
  12743483.07046   9919310.27744  23218752.7424                   23218755.6954
   4722418.44948   3686055.25446  20953572.3364                   20953572.6254
  10726934.66447   8352669.08644  23752120.3754                   23752121.1884
  -5515408.83648  -4277547.18446  20875351.0554                   20875349.9264
   5293366.22347   4129440.26644  23107700.0864                   23107701.2504
   4045399.72347   3159622.85944  23581770.3834                   23581772.2034
  -2662235.52348  -2066769.39146  21328904.7664                   21328902.6954
  -4997503.02347  -3887370.07044  23222594.0944                   23222597.2464
 11  9 24 18  2 30.0000000  0  8G07G08G11G17G24G26G28G04
  12820406.89146   9979250.66445  23233391.4224                   23233393.8444
   4764008.62948   3718463.10246  20961487.0004                   20961486.9264
  10794462.98847   8405288.45744  23764970.3914                   23764970.9454
  -5556867.42248  -4309852.57046  20867461.7974                   20867460.8554
   5335099.96547   4161960.00044  23115641.1174                   23115643.1094
   4076015.61747   3183479.28944  23587596.3054                   23587598.3404
  -2706263.35948  -2101076.80946  21320526.4064                   21320524.5204
  -5138403.62947  -3997162.57444  23195781.3834                   23195785.2074
 11  9 24 18  3  0.0000000  0  8G07G08G11G17G24G26G28G04
  12897541.18447  10039355.04745  23248069.5314                   23248072.3524
   4806100.75048   3751262.06346  20969496.2584                   20969497.0274
  10862235.94947   8458098.41844  23777867.3914                   23777868.5084
  -5598015.28148  -4341915.84446  20859631.5234                   20859630.4224
   5377254.77047   4194807.78944  23123664.1414                   23123665.3014
   4106965.82047   3207596.18844  23593486.2504                   23593488.3874
  -2750180.77748  -2135298.20346  21312169.5554                   21312167.5314
  -5279187.60247  -4106864.23844  23168990.9384                   23168994.5664
 11  9 24 18  3 30.0000000  0  8G07G08G11G17G24G26G28G04
  12974883.88347  10099621.82845  23262788.0944                   23262790.4414
   4848693.48848   3784451.11746  20977601.9224                   20977602.0434
  10930250.94947   8511096.95744  23790810.3444                   23790811.5044
  -5638852.78548  -4373737.28546  20851860.5704                   20851859.6884
   5419828.99647   4227982.40644  23131766.0314                   23131767.1724
   4138247.41847   3231971.32444  23599438.9694                   23599440.7504
  -2793986.23048  -2169432.35946  21303833.2194                   21303831.2504
  -5419851.68447  -4216472.47344  23142223.5554                   23142226.2734
 11  9 24 18  4  0.0000000  0  8G07G08G11G17G24G26G28G04
  13052429.37147  10160046.62945  23277544.0784                   23277547.1954
   4891781.98848   3818026.47746  20985801.5554                   20985801.7664
  10998502.32846   8564279.71144  23803798.3914                   23803799.9614
  -5679384.23848  -4405320.24646  20844148.0474                   20844146.2544
   5462817.02747   4261479.48844  23139945.4924                   23139947.7114
   4169854.41047   3256600.00844  23605453.1484                   23605456.1334
  -2837681.64548  -2203480.75846  21295518.4774                   21295516.4494
  -5560396.08647  -4325987.45744  23115478.3594                   23115482.0514
 11  9 24 18  4 30.0000000  0  8G07G08G11G17G24G26G28G04
  13130175.71147  10220627.91445  23292339.0704                   23292342.4064
   4935364.84448   3851987.05146  20994095.1804                   20994095.3134
  11066988.09046   8617645.09444  23816830.2734                   23816832.6054
  -5719610.35548  -4436665.27746  20836493.2344                   20836491.8324
   5506217.36347   4295297.84444  23148204.7034                   23148206.5634
   4201783.96147   3281480.06644  23611529.2424                   23611531.8794
  -2881265.41448  -2237442.15646  21287224.8914                   21287222.7384
  -5700817.54347  -4435406.60544  23088757.3444                   23088760.4344
 11  9 24 18  5  0.0000000  0  8G07G08G11G17G24G26G28G04
  13208122.12946  10281365.15244  23307171.9144                   23307175.0984
   4979441.84048   3886332.69546  21002482.6804                   21002482.7304
  11135707.50846   8671192.58243  23829907.8204                   23829909.0084
  -5759530.19148  -4467771.64146  20828896.4224                   20828895.1134
   5550029.60947   4329437.17644  23156541.9534                   23156543.8244
   4234035.17247   3306610.77344  23617667.0554                   23617669.1644
  -2924734.36748  -2271314.09046  21278953.0084                   21278951.1484
  -5841111.03947  -4544726.05144  23062060.1484                   23062062.8164
 11  9 24 18  5 30.0000000  0  8G07G08G11G17G24G26G28G04
  13286265.84447  10342256.10244  23322042.6024                   23322045.7814
   5024010.54748   3921061.46946  21010963.8594                   21010964.1604
  11204657.23846   8724919.49243  23843028.2194                   23843030.4064
  -5799145.27348  -4498640.53946  20821358.0474                   20821356.5904
   5594250.97347   4363895.29344  23164956.7034                   23164958.7194
   4266604.41447   3331989.28544  23623864.2274                   23623866.9494
  -2968087.78548  -2305096.00446  21270703.1724                   21270701.0904
  -5981274.00447  -4653943.80944  23035387.4534                   23035390.6454
 11  9 24 18  6  0.0000000  0  8G07G08G11G17G24G26G28G04
  13364603.14547  10403297.89544  23336949.6254                   23336952.8204
   5069067.94947   3956171.05546  21019537.8134                   21019538.3444
  11273833.91046   8778823.21543  23856191.7584                   23856193.8834
  -5838457.75448  -4529273.64546  20813876.9614                   20813875.6644
   5638878.12146   4398669.60944  23173449.1334                   23173451.3834
   4299487.37147   3357612.24644  23630121.0394                   23630124.6414
  -3011325.65648  -2338787.87146  21262475.4224                   21262473.2624
  -6121304.77347  -4763058.51644  23008740.7814                   23008743.6024
 11  9 24 18  6 30.0000000  0  8G07G08G11G17G24G26G28G04
  13443129.30946  10464486.87144  23351892.6094                   23351895.9494
   5114609.90247   3991658.21146  21028204.4614                   21028204.6414
  11343232.33646   8832899.78543  23869398.3674                   23869399.9454
  -5877471.04748  -4559673.61746  20806453.2344                   20806451.8714
   5683906.28546   4433756.41844  23182018.1564                   23182019.3914
   4332678.51247   3383475.37144  23636438.2974                   23636440.4884
  -3054449.06247  -2372390.54746  21254269.2584                   21254267.3714
  -6261202.84447  -4872069.84444  22982119.1174                   22982121.5314
 11  9 24 18  7  0.0000000  0  8G07G08G11G17G24G26G28G04
  13521842.28146  10525821.38344  23366871.2274                   23366874.4844
   5160634.87548   4027521.74246  21036962.9454                   21036963.0634
  11412850.40646   8887147.48843  23882647.0554                   23882647.8404
  -5916185.73448  -4589840.91046  20799085.8834                   20799084.5984
   5729333.73447   4469154.34844  23190662.1484                   23190664.4574
   4366175.13346   3409576.49644  23642812.3364                   23642815.1524
  -3097456.33248  -2405902.71946  21246085.1254                   21246083.3284
  -6400964.80947  -4980975.11344  22955523.1954                   22955525.5394
 11  9 24 18  7 30.0000000  0  8G07G08G11G17G24G26G28G04
  13600741.51647  10587301.05944  23381885.9534                   23381889.4414
   5207142.97348   4063761.73846  21045812.6954                   21045813.1524
  11482687.33247   8941565.75043  23895936.7504                   23895937.6294
  -5954600.81648  -4619774.73846  20791775.3524                   20791774.5944
   5775160.02347   4504863.05144  23199382.2734                   23199384.5784
   4399976.23846   3435914.92244  23649244.2274                   23649247.0514
  -3140344.05148  -2439321.73846  21237924.0234                   21237922.0124
  -6540585.67247  -5089770.44144  22928954.0704                   22928956.9344
 11  9 24 18  8  0.0000000  0  8G07G08G11G17G24G26G28G04
  13679822.62946  10648922.44144  23396934.5084                   23396937.6684
   5254130.18848   4100375.07046  21054754.5784                   21054754.6254
  11552738.79346   8996151.24243  23909266.7974                   23909267.2274
  -5992719.20748  -4649477.37946  20784521.9774                   20784520.5864
   5821381.03547   4540879.34044  23208178.5944                   23208180.5984
   4434076.91847   3462486.75044  23655734.4224                   23655736.7934
  -3183112.76248  -2472648.02046  21229785.2034                   21229783.0044
  -6680064.52347  -5198455.11344  22902412.0084                   22902414.4774
 11  9 24 18  8 30.0000000  0  8G07G08G11G17G24G26G28G04
  13759083.33647  10710683.78144  23412017.7504                   23412020.9414
   5301594.97748   4137360.53546  21063786.8134                   21063786.7974
  11623002.70747   9050902.25843  23922637.8364                   23922638.1644
  -6030541.83648  -4678949.56246  20777324.7274                   20777323.5314
   5867994.56647   4577201.48044  23217048.8984                   23217050.7034
   4468474.22747   3489289.73044  23662279.3754                   23662281.8674
  -3225761.36348  -2505880.70746  21221669.6094                   21221667.3014
  -6819397.98047  -5307026.49244  22875897.6644                   22875900.4184
 11  9 24 18  9  0.0000000  0  8G07G08G11G17G24G26G28G04
  13838522.05947  10772583.81344  23427134.8134                   23427138.1374
   5349536.32847   4174717.34446  21072909.7274                   21072910.0554
  11693477.18847   9105817.35243  23936048.8984                   23936048.7854
  -6068068.70348  -4708191.28946  20770183.5554                   20770182.2194
   5914999.41046   4613828.55144  23225994.1484                   23225995.4844
   4503166.03947   3516322.19944  23668881.1804                   23668884.1054
  -3268287.29748  -2539017.80946  21213577.3134                   21213575.1334
  -6958582.15647  -5415481.55144  22849411.4614                   22849414.4224
 11  9 24 18  9 30.0000000  0  8G07G08G11G17G24G26G28G04
  13918135.56347  10834620.06344  23442284.7894                   23442288.5004
   5397950.74647   4212442.76646  21082122.8204                   21082123.1724
  11764158.09447   9160893.27743  23949498.4924                   23949499.5234
  -6105301.83648  -4737204.12146  20763098.2034                   20763097.2274
   5962391.92647   4650757.69144  23235012.3204                   23235014.7734
   4538148.07047   3543580.77744  23675538.8674                   23675540.3204
  -3310690.43048  -2572059.21946  21205508.2504                   21205506.3834
  -7097615.07847  -5523818.72744  22822954.6884                   22822956.5204
 11  9 24 18 10  0.0000000  0  8G07G08G11G17G24G26G28G04
  13997927.32047  10896795.18044  23457468.7664                   23457472.5664
   5446842.31647   4250540.01246  21091426.4694                   21091426.9184
  11835049.37947   9216133.12543  23962989.1564                   23962990.0164
  -6142236.88748  -4765984.68046  20756069.7814                   20756068.6764
   6010175.90246   4687991.86744  23244105.4924                   23244107.5864
   4573423.17247   3571067.76244  23682250.7734                   23682254.0234
  -3352963.52748  -2604999.30546  21197464.0784                   21197461.9734
  -7236488.12947  -5632031.35944  22796527.2814                   22796530.3634
 11  9 24 18 10 30.0000000  0  8G07G08G11G17G24G26G28G04
  14077894.71547  10959107.16444  23472686.2504                   23472690.3164
   5496209.14148   4289007.57446  21100820.7274                   21100821.1684
  11906148.41846   9271534.84443  23976518.9924                   23976520.5124
  -6178873.99648  -4794533.07846  20749098.3284                   20749096.8914
   6058349.36747   4725529.54744  23253272.3364                   23253274.8444
   4608988.62947   3598780.98444  23689019.0864                   23689021.4844
  -3395104.98048  -2637836.80946  21189444.6564                   21189442.3404
  -7375197.74247  -5740116.62544  22770131.6414                   22770134.0664
 11  9 24 18 11  0.0000000  0  8G07G08G11G17G24G26G28G04
  14158039.54746  11021557.39844  23487937.4844                   23487941.2624
   5546053.28548   4327847.07446  21110305.9144                   21110306.3134
  11977457.32046   9327100.07443  23990088.8054                   23990090.2894
  -6215210.30948  -4822847.09846  20742183.5314                   20742182.2704
   6106913.88747   4763371.93444  23262513.8754                   23262516.2814
   4644845.37147   3626721.17644  23695842.8524                   23695845.5124
  -3437109.24648  -2670567.41046  21181451.5234                   21181449.8484
  -7513736.82847  -5848069.02044  22743768.6254                   22743771.4884
 11  9 24 18 11 30.0000000  0  8G07G08G11G17G24G26G28G04
  14238359.75046  11084144.28144  23503222.2194                   23503225.8834
   5596373.14848   4367057.26646  21119881.6484                   21119881.7854
  12048973.51646   9382826.80943  24003697.7344                   24003699.8014
  -6251246.69948  -4850927.39846  20735325.8364                   20735324.4144
   6155867.40647   4801517.44544  23271829.8444                   23271831.9844
   4680990.32447   3654885.95744  23702720.3914                   23702723.0394
  -3478974.89548  -2703190.00446  21173484.6954                   21173482.8444
  -7652102.39847  -5955886.21144  22717438.7424                   22717441.1684
 11  9 24 18 12  0.0000000  0  8G07G08G11G17G24G26G28G04
  14318854.74646  11146867.35944  23518539.8364                   23518543.5474
   5647168.68048   4406638.10946  21129547.8204                   21129548.4104
  12120696.41846   9438714.62943  24017345.7584                   24017348.4694
  -6286982.00448  -4878773.09846  20728525.8754                   20728524.5354
   6205209.82846   4839965.99644  23281219.2344                   23281220.9614
   4717422.58647   3683274.60544  23709653.6804                   23709656.6844
  -3520698.64848  -2735702.02046  21165544.9144                   21165542.9144
  -7790289.33647  -6063564.21544  22691142.7584                   22691144.7234
 11  9 24 18 12 30.0000000  0  8G07G08G11G17G24G26G28G04
  14399522.88346  11209725.35544  23533891.4534                   23533894.2544
   5698438.55948   4446588.55946  21139304.4454                   21139304.9964
  12192624.21146   9494762.10243  24031033.1564                   24031035.0664
  -6322416.55948  -4906384.44146  20721783.1484                   20721781.3954
   6254939.45346   4878716.25444  23290682.2344                   23290684.3324
   4754140.02047   3711885.48044  23716640.8364                   23716643.2234
  -3562278.10548  -2768101.61346  21157632.4774                   21157630.7234
  -7928293.62947  -6171099.89544  22664880.6884                   22664883.1724
 11  9 24 18 13  0.0000000  0  8G07G08G11G17G24G26G28G04
  14480359.67646  11272714.79344  23549273.8444                   23549277.5864
   5750178.26248   4486905.11346  21149150.1954                   21149150.7664
  12264752.16046   9550965.52743  24044760.1564                   24044760.8484
  -6357553.87148  -4933764.17246  20715096.4454                   20715095.1954
   6305051.59447   4917764.55144  23300218.4924                   23300220.6844
   4791137.05547   3740714.18844  23723680.6334                   23723684.3834
  -3603714.23448  -2800389.52346  21149747.7344                   21149745.7344
  -8066114.64547  -6278492.77744  22638654.0234                   22638656.8134
 11  9 24 18 13 30.0000000  0  8G07G08G11G17G24G26G28G04
  14561363.93447  11335834.70344  23564688.6024                   23564692.4774
   5802386.96548   4527587.11346  21159084.7504                   21159086.0004
  12337079.20746   9607324.11743  24058522.6484                   24058524.3364
  -6392393.28548  -4960911.77047  20708466.7584                   20708465.2974
   6355545.60947   4957110.44544  23309827.8594                   23309829.2544
   4828411.86347   3769759.38344  23730774.7664                   23730777.0824
  -3645004.21548  -2832563.54746  21141890.6174                   21141888.5124
  -8203747.98847  -6385739.43044  22612463.4454                   22612465.4734
 11  9 24 18 14  0.0000000  0  8G07G08G11G17G24G26G28G04
  14642529.44147  11399080.28944  23580134.6174                   23580138.5084
   5855059.30547   4568630.37546  21169108.1484                   21169109.0594
  12409599.38746   9663833.17243  24072323.5474                   24072325.2974
  -6426939.47748  -4987830.89146  20701892.8674                   20701891.2734
   6406415.55146   4996749.24244  23319507.3524                   23319509.7584
   4865958.10547   3799016.04344  23737918.9924                   23737922.1054
  -3686150.07848  -2864625.27346  21134060.7584                   21134058.5904
  -8341194.27747  -6492840.33245  22586308.1564                   22586310.7384
 11  9 24 18 14 30.0000000  0  8G07G08G11G17G24G26G28G04
  14723852.89147  11462448.94544  23595609.9924                   23595613.9694
   5908191.90248   4610032.29346  21179219.1804                   21179219.9454
  12482309.10547   9720489.96143  24086159.7034                   24086161.2584
  -6461194.88748  -5014523.42247  20695374.3204                   20695372.9534
   6457657.80947   5036678.16844  23329259.2504                   23329261.3094
   4903771.39847   3828480.81643  23745114.9064                   23745117.3054
  -3727151.60548  -2896574.53946  21126258.1724                   21126256.3954
  -8478451.25447  -6599793.70744  22560189.1564                   22560190.8164
 11  9 24 18 15  0.0000000  0  8G07G08G11G17G24G26G28G04
  14805332.06347  11525938.89144  23611114.9304                   23611119.3164
   5961782.75448   4651791.28546  21189417.3984                   21189417.3634
  12555205.81347   9777292.46543  24100031.8594                   24100032.3594
  -6495159.98448  -5040989.74246  20688910.7584                   20688909.4384
   6509270.12547   5076895.41844  23339080.8444                   23339083.3134
   4941848.91847   3858151.45744  23752361.3364                   23752363.8754
  -3768007.46948  -2928410.29346  21118483.7734                   21118481.6454
  -8615515.91847  -6706597.23445  22534106.3524                   22534109.0164
 11  9 24 18 15 30.0000000  0  8G07G08G11G17G24G26G28G04
  14886965.14547  11589548.81644  23626649.5004                   23626654.4064
   6015830.10948   4693906.00846  21199701.9614                   21199702.9414
  12628287.59847   9834239.23443  24113939.0234                   24113939.5434
  -6528835.32848  -5067230.27046  20682502.4924                   20682501.3094
   6561250.77047   5117399.72744  23348972.4144                   23348974.2304
   4980187.88347   3888025.85943  23759656.3204                   23759659.2544
  -3808715.48448  -2960130.84046  21110737.3204                   21110735.2734
  -8752384.90647  -6813248.25845  22508060.8914                   22508063.3244
 11  9 24 18 16  0.0000000  0  8G07G08G11G17G24G26G28G04
  14968747.83646  11653275.26244  23642212.1024                   23642217.1644
   6070330.26648   4736373.55546  21210073.3524                   21210074.0274
  12701550.76246   9891327.28543  24127880.3364                   24127880.8674
  -6562223.73048  -5093247.20347  20676149.0784                   20676147.5474
   6613595.95747   5158188.08644  23358933.4384                   23358935.4494
   5018783.82847   3918100.48444  23767002.2424                   23767004.6914
  -3849275.65648  -2991736.18046  21103019.1884                   21103017.2344
  -8889056.34447  -6919745.36345  22482053.1564                   22482055.3954
 11  9 24 18 16 30.0000000  0  8G07G08G11G17G24G26G28G04
  15050678.41446  11717116.95344  23657803.1644                   23657808.1954
   6125281.72747   4779192.77046  21220530.4064                   21220531.3834
  12774993.27046   9948555.10943  24141856.0554                   24141857.5514
  -6595325.55148  -5119040.83646  20669849.9454                   20669848.7114
   6666303.72747   5199258.96544  23368963.5234                   23368966.0434
   5057634.11347   3948373.30144  23774394.2664                   23774396.9184
  -3889686.19948  -3023224.93046  21095329.0474                   21095326.9384
  -9025526.78947  -7026085.84045  22456084.0474                   22456086.2584
 11  9 24 18 17  0.0000000  0  8G07G08G11G17G24G26G28G04
  15132754.15646  11781071.76244  23673422.2344                   23673427.0784
   6180682.53947   4822362.12946  21231072.9384                   21231073.7424
  12848612.61746  10005920.69543  24155864.6334                   24155867.3094
  -6628141.45348  -5144611.66846  20663605.6254                   20663603.9884
   6719371.50847   5240610.38744  23379061.9924                   23379064.2074
   5096735.76647   3978842.00044  23781835.3674                   23781839.0784
  -3929945.38348  -3054595.73046  21087667.9694                   21087666.0434
  -9161793.07847  -7132267.24245  22430153.3134                   22430155.8634
 11  9 24 18 17 30.0000000  0  8G07G08G11G17G24G26G28G04
  15214971.11746  11845136.59844  23689067.9304                   23689072.4774
   6236528.28547   4865878.18046  21241699.9774                   21241700.8794
  12922404.57846  10063420.77043  24169906.9614                   24169909.3874
  -6660674.79747  -5169962.32846  20657414.1174                   20657413.0434
   6772795.18847   5282239.09844  23389227.9454                   23389230.4614
   5136083.67647   4009502.51644  23789324.2034                   23789325.6884
  -3970053.88347  -3085849.12546  21080035.2974                   21080033.5824
  -9297854.33247  -7238288.87945  22404260.9064                   22404263.3134
 11  9 24 18 18  0.0000000  0  8G07G08G11G17G24G26G28G04
  15297325.60247  11909308.62144  23704739.3754                   23704744.6884
   6292815.85248   4909738.51246  21252410.8594                   21252411.8984
  12996365.67646  10121052.63343  24183981.2664                   24183983.7774
  -6692927.72748  -5195094.49246  20651276.7194                   20651275.4534
   6826571.23447   5324142.42244  23399461.4304                   23399463.7234
   5175673.56346   4040351.69544  23796855.9384                   23796860.2704
  -4010011.60948  -3116985.02746  21072432.0554                   21072429.9844
  -9433708.41447  -7344149.09845  22378409.0634                   22378411.4414
 11  9 24 18 18 30.0000000  0  8G07G08G11G17G24G26G28G04
  15379813.75847  11973584.82444  23720437.3364                   23720441.1884
   6349541.00447   4953939.80945  21263205.9454                   21263206.8754
  13070492.02346  10178813.27343  24198087.6884                   24198089.2464
  -6724902.70348  -5220010.06646  20645192.1804                   20645190.7544
   6880695.91047   5366317.38344  23409761.1334                   23409763.3054
   5215501.02047   4071385.85944  23804436.2034                   23804439.8244
  -4049817.60948  -3148002.71546  21064856.8984                   21064855.0944
  -9569353.77347  -7449846.66045  22352596.4304                   22352599.0744
 11  9 24 18 19  0.0000000  0  8G07G08G11G17G24G26G28G04
  15462433.97747  12037963.95744  23736159.1724                   23736163.7704
   6406702.32047   4998480.99245  21274083.2584                   21274084.3364
  13144781.50446  10236701.02343  24212224.2274                   24212226.5434
  -6756600.29348  -5244709.49246  20639160.3754                   20639159.2304
   6935167.66447   5408762.79744  23420127.0554                   23420128.8554
   5255563.44546   4102603.26243  23812059.2664                   23812062.3324
  -4089470.63748  -3178901.19546  21057311.4454                   21057309.4964
  -9704786.64147  -7555378.65245  22326824.0394                   22326826.6954
 11  9 24 18 19 30.0000000  0  8G07G08G11G17G24G26G28G04
  15545183.36747  12102443.73444  23751906.2894                   23751911.2464
   6464297.69147   5043360.38346  21285043.4144                   21285044.2624
  13219231.62147  10294713.96944  24226392.2734                   24226394.3364
  -6788021.59447  -5269193.62946  20633181.2894                   20633179.8404
   6989983.72347   5451476.52044  23430558.5784                   23430560.0634
   5295857.64847   4134001.13744  23819727.6334                   23819731.4774
  -4128969.40648  -3209679.47346  21049794.9384                   21049793.1524
  -9840004.10947  -7660742.80545  22301093.4064                   22301095.6094
 11  9 24 18 20  0.0000000  0  8G07G08G11G17G24G26G28G04
  15628059.40247  12167022.20344  23767676.7194                   23767681.6054
   6522324.52747   5088575.98845  21296085.7344                   21296086.5234
  13293839.90246  10352850.16043  24240589.8444                   24240592.0784
  -6819167.57848  -5293463.22346  20627254.5314                   20627252.9104
   7045141.47747   5494456.48044  23441054.6484                   23441056.8054
   5336380.31646   4165577.12543  23827437.7194                   23827442.0314
  -4168312.15248  -3240336.18046  21042308.4534                   21042306.6134
  -9975003.69947  -7765937.17645  22275403.5164                   22275405.3444
 11  9 24 18 20 30.0000000  0  8G07G08G11G17G24G26G28G04
  15711056.29346  12231694.83643  23783470.3984                   23783476.0664
   6580777.29347   5134123.49245  21307208.8594                   21307209.9064
  13368600.71546  10411105.17243  24254816.4844                   24254818.6804
  -6850043.10248  -5317522.07846  20621378.8204                   20621377.4614
   7100635.34847   5537698.35544  23451613.9924                   23451616.6914
   5377125.20747   4197326.21944  23835192.4224                   23835196.4344
  -4207500.68448  -3270872.72746  21034851.0234                   21034848.9964
 -10109785.16847  -7870961.59045  22249755.8054                   22249757.7464
 11  9 24 18 21  0.0000000  0  8G07G08G11G17G24G26G28G04
  15794176.47746  12296463.43844  23799287.8054                   23799293.4884
   6639658.23447   5180004.62545  21318413.3054                   21318414.4614
  13443516.00447  10469480.61343  24269072.6254                   24269074.3914
  -6880644.30548  -5341367.17647  20615555.8284                   20615554.1724
   7156467.37547   5581203.70744  23462239.0164                   23462241.1884
   5418093.75046   4229249.57843  23842988.2034                   23842992.3054
  -4246529.07048  -3301284.48046  21027424.4924                   21027422.3284
 -10244341.06647  -7975810.21545  22224150.2814                   22224152.4774
 11  9 24 18 21 30.0000000  0  8G07G08G11G17G24G26G28G04
  15877416.10246  12361325.12544  23815128.7814                   23815133.8794
   6698963.43047   5226216.34445  21329698.8594                   21329700.1294
  13518582.27346  10527973.68443  24283357.2274                   24283358.8914
  -6910973.68448  -5365000.45746  20609783.9774                   20609782.8954
   7212633.83247   5624969.68043  23472927.0864                   23472929.6914
   5459281.32047   4261343.68444  23850826.3204                   23850830.6094
  -4285397.06648  -3331571.25846  21020027.7894                   21020026.0784
 -10378669.62547  -8080481.69545  22198588.2344                   22198590.0864
 11  9 24 18 22  0.0000000  0  8G07G08G11G17G24G26G28G04
  15960775.31646  12426280.00044  23830991.6254                   23830997.4454
   6758693.07047   5272758.81645  21341065.3204                   21341066.1054
  13593799.95346  10586584.77043  24297670.8754                   24297672.8404
  -6941029.76248  -5388420.78946  20604064.3914                   20604063.3444
   7269134.70346   5668996.19944  23483678.8674                   23483681.2544
   5500687.36747   4293607.89544  23858706.1954                   23858709.9304
  -4324100.87948  -3361730.09846  21012663.0474                   21012660.8204
 -10512765.25047  -8184971.66845  22173070.9064                   22173072.6844
 11  9 24 18 22 30.0000000  0  9G07G08G11G17G24G26G28G04G20
  16044255.05147  12491328.81344  23846877.6174                   23846882.6294
   6818848.50447   5319633.05545  21352512.9144                   21352513.8284
  13669169.85946  10645314.39542  24312013.4844                   24312015.4064
  -6970809.69548  -5411625.92647  20598397.8134                   20598396.3594
   7325971.57446   5713284.55944  23494494.5394                   23494497.6724
   5542312.52047   4326042.99244  23866627.3444                   23866630.6374
  -4362634.96948  -3391756.68046  21005330.1484                   21005328.1374
 -10646621.37947  -8289275.02045  22147598.8984                   22147600.2974
   4636423.12956   3614296.77053  24467459.2274                   24467462.4024
 11  9 24 18 23  0.0000000  0  9G07G08G11G17G24G26G28G04G20
  16127844.39147  12556463.03144  23862784.7894                   23862789.7304
   6879419.14547   5366830.84045  21364039.1414                   21364040.2034
  13744680.91446  10704154.10542  24326382.7974                   24326384.3484
  -7000323.45748  -5434623.66446  20592781.5944                   20592780.2664
   7383133.07846   5757825.88343  23505371.7974                   23505374.9384
   5584145.32847   4358639.76644  23874587.6804                   23874592.2464
  -4401006.79348  -3421656.82446  20998027.9144                   20998026.3094
 -10780243.52747  -8393396.04745  22122170.5234                   22122172.8554
   4562658.53146   3556817.99243  24453421.5004                   24453425.7344
 11  9 24 18 23 30.0000000  0  9G07G08G11G17G24G26G28G04G20
  17786953.69147  13849275.16044  24178503.1024                   24178508.0314
   8515815.94947   6641945.11745  21675435.1644                   21675436.4844
  15395744.00846  11990696.59442  24640568.8914                   24640571.2234
  -5454155.63748  -4229817.57447  20887007.5474                   20887006.1804
   9016030.39546   7030213.30943  23816103.0314                   23816105.1804
   7201596.43046   5618991.12943  24182378.0394                   24182381.6564
  -2863797.68048  -2223831.56246  21290549.4534                   21290547.4964
  -9338208.47747  -7269732.25045  22396581.2344                   22396582.9964
   6064560.82446   4727131.55943  24739224.6804                   24739227.9224
 11  9 24 18 24  0.0000000  0  9G07G08G11G17G24G26G28G04G20
  17870751.86746  13914572.09444  24194449.5004                   24194454.9454
   8577206.57847   6689781.84445  21687117.4304                   21687118.1524
  15471527.72746  12049748.69143  24654990.9454                   24654993.5234
  -5483142.91048  -4252405.06647  20881491.2584                   20881490.1294
   9073831.06647   7075252.68043  23827102.0864                   23827104.1214
   7243831.50847   5651901.40244  24190416.3914                   24190419.3244
  -2901842.91848  -2253477.23046  21283309.1414                   21283307.7664
  -9471356.35947  -7373483.71545  22371243.4924                   22371245.6644
   5991293.60246   4670040.32043  24725281.9534                   24725285.3014
 11  9 24 18 24 30.0000000  0  8G07G08G17G24G26G28G04G20
  17954660.30947  13979955.00443  24210416.6724                   24210422.2114
   8639012.74647   6737942.37545  21698878.8284                   21698879.9884
  -5511859.46148  -4274781.60246  20876026.5474                   20876025.3244
   9131957.10946   7120545.59043  23838162.9064                   23838165.1214
   7286272.32047   5684972.01244  24198491.9064                   24198495.6764
  -2939713.34848  -2282986.66446  21276102.9614                   21276101.4224
  -9604253.39847  -7477039.70745  22345954.0704                   22345955.9964
   5918288.39846   4613153.25843  24711389.6804                   24711392.6884
 11  9 24 18 25  0.0000000  0  8G07G08G17G24G26G28G04G20
  18038681.95346  14045426.11343  24226405.6484                   24226411.3834
   8701237.57447   6786429.12545  21710720.1024                   21710721.3594
  -5540300.88347  -4296943.74246  20870614.6414                   20870613.3834
   9190411.42646   7166094.29343  23849286.8524                   23849289.3404
   7328921.53147   5718204.99644  24206608.7974                   24206612.0474
  -2977401.92248  -2312354.40646  21268931.1644                   21268929.5124
  -9736890.87947  -7580393.45345  22320713.6254                   22320715.7274
   5845553.46546   4556476.76243  24697549.0314                   24697552.1454
 11  9 24 18 25 30.0000000  0  8G07G08G17G24G26G28G04G20
  18122829.11346  14110995.03143  24242418.0084                   24242423.9384
   8763893.37547   6835251.69945  21722643.4774                   21722644.4774
  -5568453.37948  -4318880.76246  20865257.2114                   20865255.8754
   9249206.25447   7211908.34043  23860474.6254                   23860477.1684
   7371790.34047   5751609.07844  24214765.6804                   24214770.2774
  -3014892.21548  -2341567.64846  21261797.0234                   21261795.4384
  -9869251.12147  -7683531.17245  22295526.4384                   22295528.3754
   5773106.24646   4500024.50843  24683761.5944                   24683764.8404
 11  9 24 18 26  0.0000000  0  8G07G08G17G24G26G28G04G20
  18207104.96546  14176664.18843  24258456.0864                   24258461.5634
   8826982.94947   6884412.28145  21734648.6884                   21734649.8634
  -5596312.70748  -4340589.33646  20859955.8364                   20859954.4694
   9308344.58246   7257990.02744  23871728.8054                   23871731.2274
   7414881.30947   5785186.30544  24222966.6254                   24222969.0984
  -3052177.73048  -2370621.30946  21254701.8284                   21254700.2154
 -10001325.66447  -7786446.26645  22270393.7584                   22270395.2464
   5700954.96546   4443802.82843  24670032.0474                   24670035.0004
 11  9 24 18 26 30.0000000  0  8G07G08G17G24G26G28G04G20
  18291504.19546  14242429.46143  24274517.1484                   24274523.3874
   8890501.45747   6933907.09845  21746735.8754                   21746737.2304
  -5623882.37548  -4362072.20347  20854709.6804                   20854708.0634
   9367821.39846   7304335.49644  23883046.6094                   23883049.8364
   7458188.72347   5818932.19543  24231206.6954                   24231210.7384
  -3089259.12548  -2399515.92246  21247645.3284                   21247643.7114
 -10133114.11347  -7889138.44145  22245314.8204                   22245316.5234
   5629099.84446   4387811.90643  24656358.6254                   24656361.5784
 11  9 24 18 27  0.0000000  0  8G07G08G17G24G26G28G04G20
  18376023.86346  14308288.60944  24290600.6484                   24290607.2974
   8954445.71547   6983733.66845  21758904.3134                   21758905.8524
  -5651164.23048  -4383330.79347  20849518.2504                   20849516.4494
   9427633.68847   7350942.35944  23894428.7194                   23894431.5084
   7501709.09047   5852843.97743  24239488.7424                   24239492.9734
  -3126135.42248  -2428250.71546  21240628.1024                   21240626.6994
 -10264614.04347  -7991605.79345  22220290.8364                   22220292.8484
   5557543.02346   4332053.44543  24642740.9774                   24642744.7934
 11  9 24 18 27 30.0000000  0  8G07G08G17G24G26G28G04G20
  18460655.67246  14374235.12144  24306705.8984                   24306712.2774
   9018807.45347   7033885.55145  21771152.1414                   21771153.4734
  -5678165.26248  -4404370.56647  20844379.9454                   20844378.1134
   9487772.86747   7397803.93844  23905872.8914                   23905876.4144
   7545432.93047   5886914.36744  24247808.7734                   24247813.4884
  -3162811.27048  -2456829.30946  21233648.6414                   21233647.4144
 -10395828.41447  -8093850.64145  22195322.1414                   22195323.4064
   5486281.16446   4276524.80543  24629180.1954                   24629183.8594
 11  9 24 18 28  0.0000000  0  8G07G08G17G24G26G28G04G20
  18545391.15646  14440262.41444  24322830.5784                   24322837.5904
   9083578.21147   7084356.14145  21783477.3754                   21783478.9694
  -5704892.79348  -4425197.22347  20839293.9694                   20839292.1054
   9548230.60947   7444913.75044  23917377.9614                   23917380.8134
   7589351.50847   5921136.44943  24256167.1884                   24256170.7774
  -3199290.79348  -2485254.93046  21226706.9844                   21226705.7074
 -10526760.05147  -8195875.17645  22170406.2814                   22170408.0984
   5415310.91046   4221223.37943  24615675.3984                   24615678.1484
 11  9 24 18 28 30.0000000  0  8G07G08G17G24G26G28G04G20
  18630225.98046  14506367.10944  24338975.5864                   24338981.1414
   9148753.14547   7135141.67245  21795880.3284                   21795881.3794
  -5731349.67248  -4445812.98046  20834259.2814                   20834257.8794
   9609002.32047   7492268.20344  23928942.8054                   23928945.7544
   7633459.25847   5955505.94143  24264560.5004                   24264564.6914
  -3235574.83648  -2513528.22346  21219802.8054                   21219800.7304
 -10657408.12947  -8297678.75445  22145544.8204                   22145546.2624
   5344633.40646   4166150.09843  24602226.5554                   24602228.9344
 11  9 24 18 29  0.0000000  0  8G07G08G17G24G26G28G04G20
  18715156.99646  14572546.77344  24355136.7274                   24355143.0354
   9214329.46547   7186239.97345  21808359.1884                   21808360.0314
  -5757537.44548  -4466219.05146  20829275.7734                   20829274.4884
   9670085.33246   7539865.25844  23940566.5234                   23940569.3244
   7677752.72347   5990020.14543  24272989.5084                   24272993.2114
  -3271662.14848  -2541648.22346  21212935.2344                   21212933.5274
 -10787770.20347  -8399259.48445  22120737.4614                   22120739.1054
   5274250.74246   4111306.55143  24588832.4534                   24588835.2894
 11  9 24 18 29 30.0000000  0  8G07G08G17G24G26G28G04G20
  18800182.94546  14638800.40644  24371316.8444                   24371323.9964
   9280306.00047   7237650.13345  21820914.2504                   21820915.0474
  -5783456.26648  -4486415.53947  20824343.6804                   20824342.2814
   9731477.97746   7587703.57044  23952249.0004                   23952252.5004
   7722230.05947   6024677.64843  24281453.4454                   24281457.2974
  -3307550.13348  -2569612.90646  21206106.1414                   21206104.4534
 -10917841.94547  -8500613.97745  22095985.4924                   22095987.3554
   5204166.59846   4056695.60543  24575495.9614                   24575498.1454
 11  9 24 18 30  0.0000000  0  8G07G08G17G24G26G28G04G20
  18885300.37946  14705125.28143  24387513.8674                   24387521.4534
   9346678.39847   7289368.76245  21833543.8204                   21833545.7464
  -5809108.32048  -4506404.16046  20819462.0004                   20819461.0394
   9793176.37546   7635780.11743  23963989.6724                   23963993.0274
   7766886.85547   6059474.96543  24289951.4384                   24289955.5824
  -3343238.39148  -2597421.95346  21199314.7894                   21199313.4534
 -11047621.74647  -8601740.99245  22071289.2814                   22071290.4494
   5134382.47346   4002318.46543  24562215.5004                   24562218.8444
 11  9 24 18 30 30.0000000  0  8G07G08G17G24G26G28G04G20
  18970506.12946  14771519.00043  24403728.4224                   24403736.2584
   9413443.82047   7341393.62145  21846249.0554                   21846250.4804
  -5834495.18048  -4526186.14847  20814631.2974                   20814629.8834
   9855177.77746   7684092.76243  23975788.1174                   23975791.6374
   7811719.32447   6094409.21543  24298482.7974                   24298486.5274
  -3378726.15648  -2625074.78546  21192561.8204                   21192560.1374
 -11177107.10948  -8702638.58245  22046648.7974                   22046650.0354
   5064900.49646   3948176.76643  24548994.7034                   24548997.3914
 11  9 24 18 31  0.0000000  0  8G07G08G17G24G26G28G04G20
  19055798.20346  14837979.95343  24419959.2344                   24419967.0664
   9480600.32847   7393723.23445  21859028.7274                   21859030.3054
  -5859617.68748  -4545762.13346  20809850.6174                   20809849.2854
   9917479.95746   7732639.77743  23987643.0314                   23987647.0164
   7856724.96546   6129478.39143  24307046.2974                   24307051.3014
  -3414011.03148  -2652569.51646  21185847.4224                   21185846.0514
 -11306294.58648  -8803304.04745  22022065.7034                   22022066.6644
   4995723.82446   3894272.93443  24535829.2194                   24535832.8404
 11  9 24 18 31 30.0000000  0  8G07G08G17G24G26G28G04G20
  19141172.34446  14904504.85943  24436206.1174                   24436213.1804
   9548143.07047   7446353.81345  21871881.4304                   21871883.4574
  -5884478.92248  -4565134.53947  20805119.4614                   20805118.3524
   9980078.30146   7781417.59043  23999556.1644                   23999558.9574
   7901898.32847   6164678.22743  24315643.3284                   24315647.4884
  -3449093.84048  -2679906.78146  21179171.4924                   21179170.0664
 -11435183.47348  -8903736.84445  21997538.5944                   21997540.1564
   4926853.03546   3840607.45343  24522724.2344                   24522727.9224
 11  9 24 18 32  0.0000000  0  8G07G08G17G24G26G28G04G20
  19226625.85246  14971091.66043  24452467.9774                   24452475.5474
   9616069.70747   7499283.52345  21884807.6954                   21884809.6604
  -5909080.02348  -4584304.23846  20800438.5394                   20800436.8524
  10042970.55546   7830424.39543  24011524.1254                   24011527.0864
   7947236.76647   6200006.71943  24324271.0554                   24324275.4534
  -3483972.67248  -2707085.11746  21172534.4614                   21172532.7734
 -11563770.12548  -9003934.13345  21973069.1564                   21973070.7584
   4858290.91846   3787182.52342  24509676.9924                   24509680.2154
 11  9 24 18 32 30.0000000  0  8G07G08G17G24G26G28G04G20
  19312156.57546  15037738.58643  24468744.2034                   24468751.0434
   9684377.68047   7552510.36745  21897806.9694                   21897808.4884
  -5933421.95348  -4603271.98847  20795806.3674                   20795804.8554
  10106154.37946   7879658.44543  24023547.6564                   24023550.5314
   7992737.22747   6235461.42643  24332930.9694                   24332933.7034
  -3518645.90648  -2734103.24246  21165936.0004                   21165934.3874
 -11692051.98848  -9103893.93745  21948658.0084                   21948659.7304
   4790040.27346   3734000.30943  24496689.4304                   24496692.7234
 11  9 24 18 33  0.0000000  0  8G07G08G17G24G26G28G04G20
  19397762.37146  15104444.03544  24485034.7034                   24485041.9654
   9753064.74647   7606032.62145  21910877.6024                   21910879.1254
  -5957505.44548  -4622038.35546  20791223.3284                   20791221.7974
  10169627.68447   7929118.08243  24035626.3674                   24035629.4694
   8038396.82447   6271040.17643  24341618.6564                   24341623.1054
  -3553111.75448  -2760959.77746  21159377.2034                   21159375.6994
 -11820025.54348  -9203613.49645  21924305.2894                   21924307.0944
   4722103.79346   3681062.87143  24483761.3984                   24483764.0824
 11  9 24 18 33 30.0000000  0  8G07G08G17G24G26G28G04G20
  19483437.35946  15171203.37944  24501338.4384                   24501345.4264
   9822124.40247   7659845.19945  21924019.0704                   21924020.8834
  -5981335.33648  -4640607.11347  20786688.4384                   20786687.3754
  10233384.08646   7978798.29743  24047758.9384                   24047762.0554
   8084208.61746   6306737.52343  24350336.2584                   24350340.6954
  -3587372.42648  -2787656.43046  21152857.6954                   21152856.6564
 -11947691.85947  -9303093.65245  21900010.9774                   21900012.4104
   4654480.59445   3628369.54742  24470892.9614                   24470896.0434
 11  9 24 18 34  0.0000000  0  8G07G08G17G24G26G28G04G20
  19569182.57446  15238017.42644  24517655.3674                   24517662.7384
   9891557.84047   7713949.03545  21937231.9924                   21937233.7384
  -6004908.92648  -4658976.15646  20782202.6094                   20782201.3324
  10297424.85547   8028700.08643  24059945.6334                   24059948.8444
   8130173.31346   6342553.98843  24359083.6884                   24359087.8204
  -3621422.40648  -2814188.90246  21146378.3444                   21146377.0044
 -12075043.91847  -9402328.93045  21875776.6644                   21875778.3094
   4587177.29346   3575925.50843  24458086.0784                   24458088.5784
 11  9 24 18 34 30.0000000  0  8G07G08G17G24G26G28G04G20
  19654994.58246  15304883.50043  24533985.2274                   24533992.4614
   9961361.12547   7768341.07845  21950515.2734                   21950517.3324
  -6028228.62948  -4677147.36346  20777764.9304                   20777763.9184
  10361746.25047   8078820.53143  24072185.6484                   24072188.7664
   8176286.57847   6378486.23843  24367858.8444                   24367863.1094
  -3655261.51648  -2840557.06646  21139938.8284                   21139937.5314
 -12202080.12947  -9501318.09045  21851602.5944                   21851604.0394
   4520195.02346   3523731.62943  24445338.9774                   24445342.6684
 11  9 24 18 35  0.0000000  0  8G07G08G17G24G26G28G04G20
  19740873.71946  15371801.87543  24550327.4224                   24550335.6094
  10031534.17247   7823021.22745  21963869.0314                   21963870.7774
  -6051293.27348  -4695119.82046  20773376.1414                   20773374.9454
  10426348.18847   8129159.60244  24084479.7034                   24084481.9224
   8222547.89547   6414533.82043  24376662.2194                   24376666.9304
  -3688885.48447  -2866757.59046  21133540.4454                   21133539.1024
 -12328794.93748  -9600056.82045  21827489.4144                   21827490.7734
   4453538.80946   3471791.83643  24432654.8364                   24432657.5864
 11  9 24 18 35 30.0000000  0  8G07G08G17G24G26G28G04G20
  19826816.39146  15438769.77343  24566681.8984                   24566690.2934
  10102073.83247   7877987.04745  21977292.2974                   21977294.5274
  -6074104.21548  -4712894.58646  20769035.2274                   20769034.0824
  10491227.65247   8179714.91044  24096825.2114                   24096828.7664
   8268953.50047   6450693.85544  24385493.8594                   24385497.2624
  -3722293.53548  -2892789.86346  21127183.2424                   21127181.8874
 -12455185.93748  -9698543.21945  21803437.9694                   21803439.5274
   4387211.17646   3420108.00843  24420033.1024                   24420036.2424
 11  9 24 18 36  0.0000000  0  7G08G17G24G26G28G04G20
  10172979.15647   7933237.80145  21990785.2344                   21990787.3244
  -6096660.85248  -4730471.19146  20764742.7974                   20764741.6524
  10556383.82446   8230485.80943  24109224.4844                   24109227.8634
   8315502.12146   6486965.34443  24394351.0944                   24394355.9104
  -3755482.02348  -2918651.04346  21120867.6174                   21120866.3634
 -12581248.50848  -9796773.71545  21779448.8914                   21779450.4414
   4321215.85946   3368683.18843  24407474.1804                   24407477.9264
 11  9 24 18 36 30.0000000  0  7G08G17G24G26G28G04G20
  10244248.39147   7988772.12145  22004347.1644                   22004349.4614
  -6118963.28948  -4747849.72346  20760498.8284                   20760498.1804
  10621815.34846   8281471.28943  24121675.4224                   24121679.1994
   8362191.52047   6523346.48443  24403236.2584                   24403240.9844
  -3788448.73448  -2944339.40246  21114594.6024                   21114593.0554
 -12706978.80147  -9894745.28545  21755523.0394                   21755524.6954
   4255556.56646   3317520.19543  24394980.1484                   24394983.3284
 11  9 24 18 37  0.0000000  0  7G08G17G24G26G28G04G20
  10315887.79747   8044594.88745  22017979.6334                   22017982.3754
  -6141003.86748  -4765024.20746  20756304.5864                   20756303.7504
  10687528.30946   8332676.03143  24134179.7194                   24134184.6374
   8409027.70347   6559842.03143  24412148.5084                   24412153.7114
  -3821183.14148  -2969846.75046  21108365.1884                   21108363.7114
 -12832365.09847  -9992448.80945  21731662.7894                   21731664.2114
   4190244.70746   3266627.91043  24382551.8204                   24382554.7664
 11  9 24 18 37 30.0000000  0  7G08G17G24G26G28G04G20
  10387902.08647   8100709.75845  22031683.9694                   22031686.1294
  -6162776.28548  -4781989.73446  20752161.3364                   20752160.3754
  10753527.88346   8384104.10943  24146739.1644                   24146743.8524
   8456014.86347   6596455.21943  24421090.4144                   24421094.8404
  -3853676.02748  -2995165.90246  21102181.9694                   21102180.4614
 -12957396.82047 -10089876.04745  21707870.3284                   21707871.5634
   4125290.30546   3216014.14843  24370190.9534                   24370194.3134
 11  9 24 18 38  0.0000000  0  7G08G17G24G26G28G04G20
  10460288.94947   8157114.96545  22045459.1174                   22045461.0394
  -6184281.34848  -4798746.93446  20748069.3204                   20748068.0354
  10819811.58646   8435753.57843  24159352.4774                   24159357.1994
   8503150.21547   6633183.85944  24430059.5864                   24430064.3594
  -3885925.76647  -3020295.59446  21096045.3054                   21096044.2814
 -13082070.89148 -10187024.59445  21684145.6954                   21684146.6214
   4060696.28946   3165681.20743  24357899.6174                   24357902.7304
 11  9 24 18 38 30.0000000  0  7G08G17G24G26G28G04G20
  10533039.37147   8213803.44545  22059303.3204                   22059305.2384
  -6205526.33248  -4815301.47746  20744026.4534                   20744025.2464
  10886370.66846   8487617.65243  24172019.2894                   24172022.8134
   8550424.48847   6670020.77344  24439055.9384                   24439061.1174
  -3917936.93048  -3045239.37946  21089953.3834                   21089952.2584
 -13206390.77747 -10283897.14845  21660488.0394                   21660489.3954
   3996458.66846   3115626.01243  24345675.5164                   24345678.4304
 11  9 24 18 39  0.0000000  0  7G08G17G24G26G28G04G20
  10606150.07447   8270772.67245  22073215.6484                   22073217.9264
  -6226513.39848  -4831655.03947  20740032.7424                   20740031.5554
  10953201.80946   8539693.71943  24184736.8364                   24184740.5514
   8597833.59047   6706962.74243  24448077.8594                   24448082.6844
  -3949708.89548  -3069996.76646  21083907.6334                   21083906.1724
 -13330354.39547 -10380492.10545  21636898.1884                   21636899.5904
   3932579.27346   3065849.91843  24333519.2194                   24333522.3794
 11  9 24 18 39 30.0000000  0  7G08G17G24G26G28G04G20
  10679614.27747   8328017.35545  22087195.4454                   22087197.7854
  -6247247.03148  -4847811.12546  20736087.3754                   20736086.2664
  11020299.13346   8591977.18843  24197505.1804                   24197508.6994
   8645371.05947   6744004.71944  24457124.6884                   24457129.0164
  -3981243.59848  -3094569.28946  21077906.5474                   21077905.5204
 -13453962.30947 -10476809.88745  21613376.8054                   21613377.7114
   3869057.25846   3016352.31643  24321431.2734                   24321434.4494
 11  9 24 18 40  0.0000000  0  7G08G17G24G26G28G04G20
  10753427.15647   8385533.71945  22101242.0084                   22101243.6604
  -6267730.67248  -4863772.41446  20732189.4144                   20732188.0164
  11087657.78547   8644464.38343  24210323.6644                   24210326.4804
   8693031.51647   6781142.53544  24466193.6484                   24466198.8164
  -4012541.52047  -3118957.29746  21071950.7034                   21071949.7584
 -13577213.91847 -10572850.02346  21589922.4534                   21589923.9964
   3805892.77346   2967133.30143  24309412.3444                   24309414.5044
 11  9 24 18 40 30.0000000  0  7G08G17G24G26G28G04G20
  10827583.16847   8443317.47345  22115353.3054                   22115355.5554
  -6287968.21548  -4879541.94146  20728338.4694                   20728337.0944
  11155272.46547   8697151.02343  24223190.3204                   24223192.9494
   8740808.98847   6818371.54343  24475285.9224                   24475290.9734
  -4043603.87947  -3143161.75846  21066040.0784                   21066038.8284
 -13700109.30947 -10668612.58645  21566536.3054                   21566537.4024
   3743085.46946   2918192.59043  24297460.0234                   24297463.0084
 11  9 24 18 41  0.0000000  0  7G08G17G24G26G28G04G20
  10902080.32047   8501367.03545  22129529.8754                   22129531.9694
  -6307960.19148  -4895120.11746  20724534.0944                   20724532.8554
  11223141.13347   8750035.60943  24236105.5394                   24236107.7464
   8788701.25446   6855689.97743  24484399.6024                   24484404.4184
  -4074428.67248  -3167181.10546  21060174.3444                   21060173.1524
 -13822644.87547 -10764094.76245  21543218.5634                   21543219.6524
   3680638.10946   2869532.35943  24285576.2114                   24285579.1414
 11  9 24 18 41 30.0000000  0  7G08G17G24G26G28G04G20
  10976909.16047   8559675.05145  22143769.5944                   22143771.6954
  -6327714.23848  -4910512.89846  20720775.1724                   20720773.8164
  11291254.94147   8803111.23043  24249066.8594                   24249069.6954
   8836698.50446   6893090.23844  24493532.8364                   24493538.1564
  -4105020.82448  -3191019.17246  21054352.8204                   21054351.3554
 -13944824.17647 -10859299.33646  21519968.2584                   21519969.4574
   3618546.73446   2821149.52743  24273761.1724                   24273763.4024
 11  9 24 18 42  0.0000000  0  7G08G17G24G26G28G04G20
  11052065.24647   8618238.08245  22158071.1414                   22158073.5634
  -6347232.98048  -4925722.32046  20717060.6094                   20717059.5354
  11359609.60546   8856374.46943  24262074.7664                   24262077.3444
   8884796.10246   6930568.66043  24502685.9614                   24502691.2704
  -4135380.52348  -3214676.09846  21048575.7194                   21048574.4924
 -14066646.28947 -10954225.58245  21496786.1094                   21496787.7584
   3556812.43446   2773044.92243  24262013.9774                   24262015.8714
 11  9 24 18 42 30.0000000  0  7G08G17G24G26G28G04G20
  11127545.23447   8677053.48045  22172434.8134                   22172437.2384
  -6366518.31248  -4940749.86746  20713390.7734                   20713389.8404
  11428202.05946   8909823.03143  24275126.8984                   24275130.1954
   8932990.44546   6968122.50443  24511856.9694                   24511861.8594
  -4165506.75447  -3238151.11346  21042842.9384                   21042841.3014
 -14188108.71547 -11048871.54745  21473673.0004                   21473674.2854
   3495437.00046   2725219.98443  24250333.3984                   24250337.1884
 11  9 24 18 43  0.0000000  0  7G08G17G24G26G28G04G20
  11203342.67647   8736116.25845  22186858.7114                   22186860.8594
  -6385575.21548  -4955599.41046  20709764.4454                   20709763.2974
  11497025.54346   8963451.58243  24288223.7114                   24288228.1174
   8981274.62546   7005746.30543  24521045.1174                   24521050.9144
  -4195401.55947  -3261445.79346  21037153.5394                   21037152.4144
 -14309212.72747 -11143238.23446  21450627.1094                   21450628.5434
   3434418.87146   2677673.44543  24238721.4694                   24238725.0274
 11  9 24 18 43 30.0000000  0  7G08G17G24G26G28G04G20
  11279455.19547   8795424.53145  22201342.6024                   22201344.8244
  -6404403.80148  -4970271.05146  20706181.4064                   20706180.5594
  11566078.64846   9017259.04343  24301364.2814                   24301367.8634
   9029646.17246   7043438.22743  24530250.5314                   24530255.6094
  -4225062.62548  -3284558.33246  21031509.8054                   21031508.2584
 -14429954.60247 -11237322.73846  21427650.8364                   21427652.0704
   3373761.25846   2630407.82843  24227179.9064                   24227182.3094
 11  9 24 18 44  0.0000000  0  7G08G17G24G26G28G04G20
  11355880.13347   8854976.23845  22215885.9064                   22215888.5904
  -6423004.94548  -4984765.46146  20702641.8134                   20702640.8244
  11635359.30146   9071243.85243  24314548.1954                   24314551.5434
   9078102.45346   7081196.17243  24539471.4384                   24539476.6294
  -4254488.08647  -3307487.29346  21025910.1724                   21025908.8484
 -14550331.34847 -11331122.71946  21404743.7274                   21404744.9264
   3313466.76246   2583425.18043  24215706.3594                   24215708.9344
 11  9 24 18 44 30.0000000  0  8G09G08G17G24G26G28G04G20
   6142474.19956   4797063.93853  24086665.6334                   24086667.5784
  11432610.24647   8914765.76645  22230487.0864                   22230489.7704
  -6441384.84448  -4999087.47346  20699143.9924                   20699143.1454
  11704859.71146   9125399.82043  24327773.5784                   24327777.6914
   9126635.45746   7119013.85943  24548706.8524                   24548712.3954
  -4283681.43048  -3330235.38346  21020355.3284                   21020353.6884
 -14670344.79347 -11424639.61746  21381906.0474                   21381907.2194
   3253533.05946   2536723.61343  24204301.1334                   24204303.7664
 11  9 24 18 45  0.0000000  0  8G09G08G17G24G26G28G04G20
   6011105.09046   4694698.50843  24061666.3134                   24061669.5664
  11509633.71547   8974783.86345  22245145.0394                   22245147.0784
  -6459553.18448  -5013244.63746  20695687.0634                   20695685.7154
  11774568.60946   9179718.32043  24341038.5864                   24341042.7974
   9175233.41446   7156882.17243  24557955.3524                   24557960.2464
  -4312650.04348  -3352808.35546  21014842.4844                   21014840.9924
 -14790001.36347 -11517878.43446  21359136.4304                   21359136.6914
   3193953.59446   2490298.12143  24192963.0004                   24192965.4304
 11  9 24 18 45 30.0000000  0  8G09G08G17G24G26G28G04G20
   5880012.16446   4592548.27743  24036719.3204                   24036722.7774
  11586937.27747   9035020.22344  22259854.5944                   22259857.3404
  -6477521.78948  -5027246.15246  20692267.5864                   20692266.6024
  11844473.19946   9234189.29743  24354341.2664                   24354345.9804
   9223882.76646   7194790.53543  24567213.1724                   24567218.3524
  -4341402.45347  -3375212.85246  21009371.0394                   21009369.7074
 -14909308.66847 -11610845.09046  21336432.6414                   21336433.7814
   3134720.08646   2444142.16043  24181690.4774                   24181693.7934
 11  9 24 18 46  0.0000000  0  8G09G08G17G24G26G28G04G20
   5749204.20246   4490620.15243  24011827.5864                   24011830.7544
  11664523.78547   9095477.07444  22274619.0164                   22274621.8404
  -6495286.32848  -5041088.66447  20688887.0474                   20688885.9264
  11914576.39146   9288815.02343  24367681.7584                   24367685.7504
   9272585.84046   7232740.76643  24576480.6094                   24576486.6844
  -4369931.86348  -3397443.59446  21003942.2894                   21003940.5514
 -15028258.36347 -11703533.09046  21313797.2974                   21313797.9774
   3075840.36345   2398261.87143  24170486.8204                   24170490.0634
 11  9 24 18 46 30.0000000  0  8G09G08G17G24G26G28G04G20
   5618690.38746   4388921.13343  23986991.7344                   23986994.7584
  11742395.77747   9156156.36745  22289437.8754                   22289440.7344
  -6512841.87148  -5054768.31647  20685546.5164                   20685545.4924
  11984881.48046   9343598.07444  24381060.9924                   24381064.6684
   9321345.60946   7270735.19143  24585760.0084                   24585765.4344
  -4398230.72748  -3419494.68446  20998556.9774                   20998555.3714
 -15146841.86747 -11795935.75446  21291231.3674                   21291232.4694
   3017322.56346   2352663.63743  24159351.7274                   24159354.2234
 11  9 24 18 47  0.0000000  0  8G09G08G17G24G26G28G04G20
   5488475.02346   4287454.72743  23962212.7034                   23962215.2544
  11820551.96547   9217057.10245  22304310.4224                   22304313.5864
  -6530188.34048  -5068285.04746  20682245.9304                   20682244.2194
  12055387.04346   9398537.34843  24394477.2274                   24394481.7704
   9370160.13746   7308772.25043  24595049.2584                   24595054.4924
  -4426296.41048  -3441364.07446  20993216.1024                   20993214.4694
 -15265055.19148 -11888049.96146  21268736.2584                   21268737.2274
   2959170.23846   2307350.19543  24148285.8834                   24148287.4144
 11  9 24 18 47 30.0000000  0  8G09G08G17G24G26G28G04G20
   5358564.47346   4186225.80543  23937491.3054                   23937493.8524
  11898992.30147   9278179.23845  22319237.9144                   22319240.1414
  -6547323.87948  -5081637.43446  20678984.6884                   20678983.4924
  12126093.67646   9453633.27743  24407932.1334                   24407937.0044
   9419029.61746   7346852.14543  24604349.0234                   24604354.7854
  -4454124.44948  -3463048.28546  20987921.0704                   20987919.4224
 -15382892.71948 -11979871.35246  21246312.3834                   21246313.0164
   2901388.58645   2262325.54743  24137290.0004                   24137292.2664
 11  9 24 18 48  0.0000000  0  8G09G08G17G24G26G28G04G20
   5228966.13746   4085240.21543  23912829.1644                   23912832.5704
  11977718.15247   9339523.87145  22334218.9224                   22334221.4024
  -6564245.46548  -5094823.09846  20675764.9224                   20675763.6214
  12197003.10946   9508887.28543  24421426.7584                   24421430.5594
   9467954.90646   7384975.53143  24613659.6334                   24613665.4344
  -4481709.02047  -3484542.78546  20982671.4924                   20982670.2304
 -15500347.39848 -12071394.41446  21223961.7734                   21223962.4884
   2843984.21945   2217594.85543  24126365.5234                   24126367.9344
 11  9 24 18 48 30.0000000  0  8G09G08G17G24G26G28G04G20
   5099686.61346   3984503.02043  23888227.6724                   23888231.0744
  12056730.59847   9401091.80944  22349254.7424                   22349257.2154
  -6580950.66048  -5107840.14146  20672586.0394                   20672584.6294
  12268116.30146   9564300.03143  24434958.4614                   24434962.9924
   9516936.78946   7423143.00043  24622980.8284                   24622986.2704
  -4509044.90248  -3505843.50446  20977470.0164                   20977468.3444
 -15617413.15248 -12162614.41846  21201684.8444                   21201685.5704
   2786963.30146   2173162.99243  24115515.1094                   24115517.6524
 11  9 24 18 49  0.0000000  0  8G09G08G17G24G26G28G04G20
   4970731.55946   3884018.64843  23863689.0704                   23863691.6564
  12136028.74247   9462882.37945  22364344.8204                   22364347.2074
  -6597438.12548  -5120687.52746  20669448.4924                   20669447.0394
  12339433.09046   9619871.43842  24448529.5164                   24448533.7854
   9565974.44546   7461353.94543  24632312.1254                   24632317.7274
  -4536128.16047  -3526947.35946  20972315.9774                   20972314.6954
 -15734084.88747 -12253527.38746  21179482.5704                   21179483.1844
   2730329.56346   2129032.82043  24104738.6484                   24104741.6294
 11  9 24 18 49 30.0000000  0  8G09G08G17G24G26G28G04G20
   4842104.91046   3783790.21943  23839212.4774                   23839214.7154
  12215610.62147   9524894.03144  22379488.2504                   22379491.6334
  -6613708.14548  -5133365.48846  20666352.7194                   20666351.0984
  12410951.77046   9675600.16442  24462139.1884                   24462143.8054
   9615065.66446   7499606.58244  24641654.7034                   24641660.1094
  -4562956.65248  -3547852.71946  20967210.8914                   20967209.5514
 -15850358.91047 -12344130.46546  21157356.4534                   21157357.1334
   2674086.77746   2085207.28543  24094035.4144                   24094037.7384
 11  9 24 18 50  0.0000000  0  7G09G08G17G26G28G04G20
   6289238.29346   4911426.73443  24114592.2344                   24114594.9344
  13870894.78147  10814725.62544  22694479.1254                   22694482.1294
  -5054337.19548  -3918271.25446  20963090.5944                   20963089.5824
  11239630.11346   8765500.73443  24950798.9614                   24950805.0984
  -3014103.75047  -2340954.37946  21261948.0704                   21261946.3554
 -14390804.69547 -11206815.42646  21435100.3134                   21435101.3014
   4193662.80946   3269292.52343  24383200.7894                   24383203.6724
 11  9 24 18 50 30.0000000  0  7G09G08G17G26G28G04G20
   6161285.11346   4811723.04344  24090243.4614                   24090246.3054
  13951042.41847  10877178.12544  22709730.7034                   22709734.0274
  -5070168.68048  -3930607.48846  20960077.9614                   20960076.9844
  11288826.53546   8803835.37943  24960160.3914                   24960167.1684
  -3040410.90248  -2361453.49646  21256941.8364                   21256940.4384
 -14506268.51647 -11296787.16446  21413128.2894                   21413129.3954
   4138215.01646   3226086.44543  24372649.3524                   24372651.6484
 11  9 24 18 51  0.0000000  0  7G09G08G17G26G28G04G20
   6033679.69146   4712290.33643  24065960.9694                   24065963.5514
  14031474.85247  10939852.52345  22725036.5864                   22725040.0554
  -5085776.43448  -3942769.39146  20957108.0314                   20957107.0004
  11338077.30946   8842212.35944  24969532.6334                   24969538.9024
  -3066448.95747  -2381742.91446  21251986.5084                   21251985.5124
 -14621317.11347 -11386435.36746  21391235.4454                   21391235.8284
   4083174.30945   3183197.57443  24362176.4844                   24362178.9384
 11  9 24 18 51 30.0000000  0  7G09G08G17G26G28G04G20
   5906430.59046   4613135.28543  24041746.2504                   24041748.5434
  14112194.39547  11002750.66445  22740397.2584                   22740400.2074
  -5101156.00448  -3954753.48446  20954181.5314                   20954180.3594
  11387384.95346   8880633.66844  24978916.0704                   24978922.5474
  -3092210.64147  -2401816.98846  21247084.6564                   21247083.2814
 -14735942.51247 -11475753.79746  21369422.6884                   21369423.3594
   4028548.45346   3140631.95743  24351780.4224                   24351783.8054
 11  9 24 18 52  0.0000000  0  7G09G08G17G26G28G04G20
   5779537.80146   4514257.86743  24017599.4454                   24017601.3984
  14193195.49247  11065868.18444  22755811.1094                   22755814.7504
  -5116311.91848  -3966563.30146  20951297.5554                   20951296.2114
  11436743.34046   8919094.48843  24988308.8444                   24988315.7344
  -3117697.66447  -2421677.03946  21242234.5394                   21242233.2274
 -14850145.03147 -11564742.71546  21347690.5784                   21347691.4574
   3974335.96946   3098388.47743  24341464.8134                   24341467.3714
 11  9 24 18 52 30.0000000  0  8G09G08G02G17G26G28G04G20
   5652995.93446   4415653.91043  23993518.7424                   23993521.9884
  14274466.56347  11129196.06344  22771276.9454                   22771280.3984
   7717040.93456   6023983.87153  24856081.5784                   24856087.7034
  -5131253.66048  -3978206.23046  20948454.1954                   20948452.7114
  11486140.73446   8957585.71543  24997709.1954                   24997715.0274
  -3142917.12948  -2441328.60946  21237435.6804                   21237434.1804
 -14963930.58247 -11653406.71946  21326037.5944                   21326038.7234
   3920530.71146   3056462.29743  24331226.9534                   24331228.0234
 11  9 24 18 53  0.0000000  0  8G09G08G02G17G26G28G04G20
   5526795.82446   4317316.24643  23969503.7194                   23969506.4414
  14355991.95347  11192722.12144  22786790.7424                   22786794.0164
   7584762.41846   5920910.06643  24830910.2274                   24830915.7074
  -5145994.44948  -3989692.57046  20945649.0164                   20945647.9574
  11535561.93846   8996095.50843  25007113.7194                   25007120.2034
  -3167879.93748  -2460780.17246  21232685.4064                   21232683.8364
 -15077309.11348 -11741753.57046  21304462.8914                   21304463.6174
   3867122.23846   3014845.28143  24321063.0234                   24321064.4534
 11  9 24 18 53 30.0000000  0  8G09G08G02G17G26G28G04G20
   5400929.56646   4219238.73043  23945551.9224                   23945555.0044
  14437757.39547  11256435.21944  22802349.9694                   22802353.9384
   7452525.14146   5817868.35943  24805745.8364                   24805751.1724
  -5160546.77348  -4001032.06246  20942879.6724                   20942878.6484
  11584992.76246   9034612.78143  25016520.6094                   25016526.5124
  -3192595.98047  -2480039.46546  21227981.7664                   21227980.9024
 -15190289.16447 -11829789.92246  21282963.1884                   21282963.9184
   3814101.56646   2973530.47743  24310973.8444                   24310975.8834
 11  9 24 18 54  0.0000000  0  8G09G08G02G17G26G28G04G20
   5275401.28547   4121424.58643  23921664.8674                   23921667.9224
  14519761.33247  11320334.18044  22817955.4064                   22817958.9574
   7320332.05146   5714861.12543  24780589.2974                   24780595.8714
  -5174910.40248  -4012224.51646  20940146.7274                   20940145.4734
  11634430.89846   9073135.76643  25025928.6954                   25025934.1334
  -3217062.65248  -2499104.43746  21223326.2424                   21223325.0784
 -15302867.37148 -11917513.13746  21261540.0554                   21261540.4264
   3761471.67646   2932520.18443  24300958.5554                   24300960.3834
 11  9 24 18 54 30.0000000  0  8G09G08G02G17G26G28G04G20
   5150218.25846   4023879.46543  23897843.2424                   23897846.1564
  14602005.35947  11384420.20744  22833606.0084                   22833609.6914
   7188189.90246   5611893.55143  24755444.0704                   24755449.4774
  -5189082.68048  -4023267.87146  20937449.4694                   20937448.3674
  11683878.03546   9111665.72743  25035338.0944                   25035344.6604
  -3241273.64548  -2517970.17646  21218719.1414                   21218717.7544
 -15415036.56648 -12004917.64846  21240195.2034                   21240195.6294
   3709239.19946   2891819.55543  24291018.5314                   24291020.9804
 11  9 24 18 55  0.0000000  0  8G09G08G02G17G26G28G04G20
   5025385.82046   3926607.53943  23874088.6884                   23874090.7194
  14684488.27047  11448692.37144  22849301.7734                   22849305.3134
   7056102.77046   5508968.85543  24730307.8364                   24730313.9144
  -5203062.60948  -4034161.33246  20934789.7344                   20934788.0944
  11733333.31346   9150202.02043  25044749.8754                   25044755.3204
  -3265225.85548  -2536634.27346  21214161.0634                   21214159.5234
 -15526792.27748 -12091999.96546  21218928.5634                   21218929.2464
   3657407.89846   2851431.50043  24281155.7344                   24281157.7974
 11  9 24 18 55 30.0000000  0  8G09G08G02G17G26G28G04G20
   4900906.02346   3829610.37143  23850400.3524                   23850402.5824
  14767205.79347  11513147.36344  22865042.4534                   22865046.7114
   6924071.74646   5406087.91443  24705182.7504                   24705188.7814
  -5216852.18748  -4044906.48446  20932165.3914                   20932164.4494
  11782792.53546   9188741.44543  25054161.1254                   25054167.5704
  -3288918.77748  -2555096.31646  21209652.6644                   21209651.3164
 -15638132.99648 -12178758.91046  21197741.3364                   21197741.9574
   3605978.91046   2811356.97343  24271368.6254                   24271371.2464
 11  9 24 18 56  0.0000000  0  8G09G08G02G17G26G28G04G20
   4776782.79746   3732891.05543  23826780.6174                   23826783.0904
  14850156.18047  11577783.78544  22880828.0084                   22880831.7304
   6792100.00446   5303253.13343  24680069.7034                   24680075.0164
  -5230451.28948  -4055503.20346  20929577.4694                   20929576.4064
  11832253.77046   9227282.39843  25063573.7344                   25063580.4104
  -3312350.19148  -2573354.59446  21205194.1484                   21205192.7664
 -15749055.45348 -12265191.94146  21176633.3284                   21176634.0514
   3554955.10946   2771598.15643  24261659.6414                   24261662.0314
 11  9 24 18 56 30.0000000  0  8G09G08G02G17G26G28G04G20
   4653019.13746   3636451.89843  23803229.6564                   23803230.9884
  14933336.59847  11642599.44544  22896657.0634                   22896660.5664
   6660189.33246   5200465.97743  24654967.3134                   24654973.2464
  -5243861.55148  -4065952.77746  20927025.5234                   20927024.6764
  11881713.84046   9265822.43843  25072985.1334                   25072992.4184
  -3335518.43048  -2591407.78946  21200785.0944                   21200783.9144
 -15859557.22348 -12351297.15646  21155605.4614                   21155606.0354
   3504338.39846   2732156.55943  24252027.1094                   24252030.0904
 11  9 24 18 57  0.0000000  0  8G09G08G02G17G26G28G04G20
   4529618.26246   3540295.48043  23779746.5474                   23779748.9534
  15016743.98047  11707591.96144  22912529.2734                   22912532.5274
   6528342.02746   5097728.16044  24629877.8524                   24629882.5124
  -5257084.05948  -4076256.04346  20924509.7274                   20924508.6214
  11931169.91046   9304359.35943  25082396.6024                   25082404.1844
  -3358422.06648  -2609254.80946  21196426.4694                   21196425.4184
 -15969635.66848 -12437072.50446  21134657.9384                   21134658.8754
   3454130.69146   2693033.67243  24242472.9844                   24242475.9184
 11  9 24 18 57 30.0000000  0  8G09G08G02G17G26G28G04G20
   4406581.84446   3444423.01643  23756333.8204                   23756336.1214
  15100373.58647  11772757.64844  22928443.7274                   22928447.4534
   6396558.78146   4995040.28143  24604799.5474                   24604805.3984
  -5270121.29348  -4086414.94146  20922028.5864                   20922027.2704
  11980617.27346   9342889.48843  25091807.2734                   25091813.5904
  -3381061.17248  -2626895.69546  21192118.6334                   21192117.3164
 -16079289.91848 -12522517.31246  21113791.6564                   21113792.4534
   3404332.29346   2654229.73043  24232996.8834                   24232999.5044
 11  9 24 18 58  0.0000000  0  8G09G08G02G17G26G28G04G20
   4283913.86746   3348837.64843  23732990.9614                   23732992.8134
  15184223.76647  11838095.22344  22944399.4844                   22944403.3714
   6264842.74646   4892404.76644  24579735.1484                   24579740.1724
  -5282972.98448  -4096429.27046  20919582.8594                   20919581.6884
  12030054.27046   9381411.55543  25101214.4384                   25101221.7664
  -3403433.27748  -2644328.53946  21187861.3754                   21187860.0824
 -16188516.70348 -12607629.03146  21093006.5164                   21093007.4224
   3354946.16046   2615747.03143  24223598.9614                   24223602.0314
 11  9 24 18 58 30.0000000  0  8G09G08G02G17G26G28G04G20
   4161617.18446   3253541.60543  23709718.5474                   23709720.8134
  15268291.47347  11903602.28944  22960397.4384                   22960401.8404
   6133195.76646   4789823.05143  24554682.9064                   24554687.7544
  -5295641.06248  -4106300.52746  20917172.5704                   20917171.4654
  12079477.75046   9419923.13343  25110619.6414                   25110626.0704
  -3425537.24248  -2661552.43746  21183655.0864                   21183653.8524
 -16297313.65648 -12692405.81246  21072303.1094                   21072303.7114
   3305974.17246   2577587.02043  24214280.1414                   24214282.4694
 11  9 24 18 59  0.0000000  0  8G09G08G02G17G26G28G04G20
   4039691.89547   3158534.96943  23686516.5784                   23686519.1054
  15352570.24247  11969273.80944  22976435.0474                   22976439.5904
   6001616.91046   4687294.42643  24529643.5084                   24529649.0864
  -5308129.30948  -4116031.63746  20914795.8674                   20914794.8954
  12128881.42246   9458419.19543  25120021.5634                   25120028.5594
  -3447374.59448  -2678568.58246  21179499.5234                   21179498.0234
 -16405681.52048 -12776848.23046  21051681.1334                   21051681.6804
   3257415.06346   2539748.75043  24205039.8364                   24205042.1804
 11  9 24 18 59 30.0000000  0  8G09G08G02G17G26G28G04G20
   3918144.59846   3063822.84443  23663387.0004                   23663389.5044
  15437060.82447  12035110.38744  22992513.4384                   22992517.8524
   5870111.68446   4584823.19143  24504619.0554                   24504624.4414
  -5320435.50048  -4125620.89546  20912453.9774                   20912453.2114
  12178265.92246   9496900.39542  25129418.7814                   25129426.1954
  -3468940.33648  -2695373.09046  21175395.5314                   21175394.6914
 -16513614.27748 -12860951.61346  21031142.0634                   21031142.7384
   3209274.08646   2502236.30943  24195878.5784                   24195880.9414
 11  9 24 19  0  0.0000000  0  8G09G08G02G17G26G28G04G20
   3796976.59447   2969406.29744  23640329.6254                   23640331.9924
  15521758.55147  12101108.33644  23008631.5234                   23008635.6024
   5738680.47746   4482409.63743  24479608.1414                   24479612.8364
  -5332562.26248  -4135070.34446  20910146.5234                   20910145.5044
  12227626.93446   9535363.27042  25138812.7974                   25138819.2854
  -3490235.11748  -2711966.45346  21171343.5554                   21171342.2154
 -16621111.39848 -12944715.54746  21010686.0864                   21010686.4844
   3161551.67246   2465050.01643  24186797.1564                   24186799.8164
 11  9 24 19  0 30.0000000  0  7G09G08G02G17G28G04G20
   3676191.92246   2875288.42644  23617344.7894                   23617347.4144
  15606661.42247  12167266.16444  23024788.0554                   23024792.5514
   5607326.46946   4380056.23043  24454611.8914                   24454616.8094
  -5344509.73848  -4144380.08646  20907872.8524                   20907872.1054
  -3511255.90648  -2728346.32046  21167343.4844                   21167342.0664
 -16728169.32848 -13028137.24246  20990313.4614                   20990314.2304
   3114250.57046   2428192.02343  24177796.0004                   24177798.9064
 11  9 24 19  1  0.0000000  0  7G09G08G02G17G28G04G20
   3555795.20746   2781472.87944  23594434.1024                   23594436.2774
  15691767.71147  12233582.50044  23040983.3834                   23040988.0044
   5476053.28946   4277765.81343  24429631.7894                   24429636.3554
  -5356277.53148  -4153549.81646  20905633.6954                   20905632.6484
  -3531999.99248  -2744510.58246  21163396.1884                   21163394.9064
 -16834784.18048 -13111213.69546  20970025.3364                   20970025.7894
   3067373.91046   2391664.76243  24168876.4844                   24168879.1644
 11  9 24 19  1 30.0000000  0  7G09G08G02G17G28G04G20
   3435795.12546   2687966.39844  23571598.9454                   23571601.4494
  15777080.33647  12300059.59444  23057218.1804                   23057222.6024
   5344868.57846   4175544.33643  24404667.3364                   24404672.0664
  -5367860.94948  -4162575.87147  20903429.4694                   20903428.4884
  -3552460.48048  -2760453.85946  21159502.7584                   21159501.3244
 -16940948.27348 -13193938.90246  20949823.3594                   20949823.6294
   3020929.25446   2355474.14143  24160037.5944                   24160040.6804
 11  9 24 19  2  0.0000000  0  7G09G08G02G17G28G04G20
   3316199.48047   2594775.07844  23548841.0704                   23548842.6484
  15862601.23847  12366699.00044  23073492.1564                   23073496.7894
   5213779.63346   4073397.46943  24379722.2664                   24379726.0944
  -5379256.34448  -4171455.41846  20901260.7894                   20901259.8794
  -3572631.11748  -2776171.27346  21155664.2424                   21155662.8874
 -17046654.26248 -13276307.14546  20929707.8364                   20929708.3634
   2974923.21546   2319625.30944  24151283.5704                   24151285.2894
 11  9 24 19  2 30.0000000  0  7G09G08G02G17G28G04G20
   3197010.15646   2501900.35244  23526159.6484                   23526161.8594
  15948325.88347  12433497.15244  23089805.2734                   23089810.1214
   5082786.97346   3971325.65243  24354794.6094                   24354799.1644
  -5390465.94148  -4180190.18446  20899127.9534                   20899126.9304
  -3592511.54748  -2791662.55546  21151881.0314                   21151879.9454
 -17151901.05948 -13358317.58646  20909679.8594                   20909680.3484
   2929355.93846   2284118.36343  24142611.6804                   24142614.8984
 11  9 24 19  3  0.0000000  0  7G09G08G02G17G28G04G20
   3078226.04746   2409341.37543  23503555.5944                   23503557.9024
  16034247.22747  12500448.59044  23106155.7894                   23106160.4574
   4951888.60546   3869327.28943  24329885.0704                   24329889.3404
  -5401494.83248  -4188784.14146  20897029.2974                   20897028.0434
  -3612104.57048  -2806929.87946  21148152.8054                   21148151.5984
 -17256690.64148 -13439971.75846  20889738.9304                   20889739.7584
   2884225.47746   2248951.75843  24134023.9304                   24134026.6214
 11  9 24 19  3 30.0000000  0  7G09G08G02G17G28G04G20
   2959843.72746   2317095.49644  23481027.9924                   23481030.0554
  16120356.25047  12567546.26244  23122541.9384                   23122547.0744
   4821080.52746   3767399.24643  24304993.1484                   24304996.9454
  -5412350.78148  -4197243.33246  20894963.3204                   20894962.3754
  -3631415.01648  -2821977.02346  21144478.0474                   21144477.0354
 -17361026.73448 -13521272.55946  20869884.7114                   20869885.2464
   2839527.28946   2214122.04743  24125517.2274                   24125520.3094
 11  9 24 19  4  0.0000000  0  7G09G08G02G17G28G04G20
   2841861.89846   2225161.67244  23458576.3834                   23458578.6294
  16206645.10247  12634784.08243  23138962.7424                   23138967.1374
   4690360.28146   3665539.66444  24280117.1414                   24280121.9304
  -5423039.17248  -4205571.96546  20892929.6564                   20892928.5594
  -3650445.94148  -2836806.34446  21140856.8204                   21140855.5434
 -17464911.82848 -13602221.93746  20850115.7274                   20850116.2304
   2795258.49246   2179626.90243  24117093.5784                   24117096.1214
 11  9 24 19  4 30.0000000  0  7G09G08G02G17G28G04G20
   2724285.06346   2133543.46544  23436202.7114                   23436204.9024
  16293112.54347  12702161.03943  23155416.7974                   23155420.8244
   4559731.67246   3563751.48044  24255259.3284                   24255263.5314
  -5433559.05548  -4213769.29346  20890927.6414                   20890926.5704
  -3669194.37548  -2851415.54746  21137289.0554                   21137287.9224
 -17568341.94548 -13682816.78146  20830433.7194                   20830434.3244
   2751422.33246   2145468.85543  24108752.3754                   24108754.8554
 11  9 24 19  5  0.0000000  0  7G09G08G02G17G28G04G20
   2607113.49646   2042241.02044  23413905.7194                   23413908.0274
  16379752.94147  12769672.76244  23171904.3754                   23171909.2274
   4429193.84046   3462034.01244  24230418.1414                   24230422.4264
  -5443914.67648  -4221838.62946  20888957.2424                   20888956.1254
  -3687661.60548  -2865805.64146  21133774.6024                   21133773.6884
 -17671317.55548 -13763057.46146  20810837.9844                   20810838.5434
   2708017.84046   2111647.18843  24100492.0234                   24100495.1844
 11  9 24 19  5 30.0000000  0  7G09G08G02G17G28G04G20
   2490349.60247   1951256.26244  23391685.6724                   23391688.0784
  16466562.89847  12837316.60544  23188424.2974                   23188428.8954
   4298748.39146   3360388.54344  24205595.2974                   24205599.6484
  -5454107.28948  -4229780.95346  20887017.7424                   20887016.4024
  -3705846.80548  -2879975.96546  21130314.2194                   21130313.2814
 -17773837.09048 -13842942.76646  20791329.1564                   20791329.6954
   2665046.18046   2078162.81643  24092316.1254                   24092317.5984
 11  9 24 19  6  0.0000000  0  7G09G08G02G17G28G04G20
   2373996.39546   1860591.50444  23369544.4144                   23369546.9384
  16553539.12947  12905090.02044  23204975.2504                   23204980.4844
   4168397.44146   3258816.68044  24180790.8984                   24180793.5594
  -5464138.16048  -4237597.23446  20885108.7424                   20885107.5514
  -3723748.61348  -2893925.45746  21126907.6724                   21126906.3404
 -17875898.34448 -13922470.95746  20771907.7734                   20771908.2544
   2622508.69546   2045016.75043  24084220.5634                   24084222.7854
 11  9 24 19  6 30.0000000  0  7G09G08G02G17G28G04G20
   2258055.22346   1770247.80944  23347481.6644                   23347483.5554
  16640676.89547  12972989.29344  23221557.5554                   23221562.6334
   4038141.55946   3157318.89144  24156003.5004                   24156006.5784
  -5474009.76248  -4245289.41046  20883230.4454                   20883229.4534
  -3741367.37548  -2907654.40646  21123555.2274                   21123554.1134
 -17977500.69548 -14001641.56646  20752573.2114                   20752573.7114
   2580405.61746   2012209.16443  24076209.4924                   24076212.0474
 11  9 24 19  7  0.0000000  0  7G09G08G02G17G28G04G20
   2142531.94547   1680229.76244  23325498.1564                   23325500.3594
  16727976.19147  13041014.44144  23238170.0784                   23238175.1844
   3907985.46146   3055898.84044  24131235.2504                   24131238.5474
  -5483720.00447  -4252855.84046  20881382.2034                   20881381.8954
  -3758698.83248  -2921159.48046  21120257.0234                   21120256.0824
 -18078639.16448 -14080450.71946  20733327.3364                   20733327.9454
   2538741.69946   1979743.80143  24068280.2034                   24068283.0164
 11  9 24 19  7 30.0000000  0  7G09G08G02G17G28G04G20
   2027428.71946   1590539.00444  23303594.6414                   23303596.6334
  16815433.62947  13109162.79744  23254812.8054                   23254817.5434
   3777930.61746   2954557.71544  24106485.8984                   24106489.5824
  -5493270.88347  -4260298.11746  20879564.7974                   20879564.2344
  -3775742.09048  -2934439.98046  21117013.9144                   21117012.7894
 -18179312.00847 -14158897.04346  20714169.7274                   20714170.1024
   2497517.21546   1947620.84043  24060435.6024                   24060438.3054
 11  9 24 19  8  0.0000000  0  7G09G08G02G17G28G04G20
   1912751.75047   1501180.42644  23281772.7344                   23281774.5434
  16903049.18847  13177434.38344  23271484.6334                   23271491.0744
   3647982.51646   2853299.72743  24081758.0864                   24081760.9574
  -5502660.60948  -4267614.81246  20877777.9844                   20877777.1454
  -3792492.84448  -2947492.55946  21113826.1094                   21113825.3094
 -18279514.42248 -14236976.78946  20695102.0004                   20695102.3094
   2456736.95346   1915844.03143  24052675.8204                   24052677.5004
 11  9 24 19  8 30.0000000  0  7G09G08G02G17G28G04G20
   1798502.12147   1412154.81644  23260031.0004                   23260033.5204
  16990818.28146  13245825.55143  23288187.3674                   23288192.9614
   3518141.28546   2752125.02343  24057049.5634                   24057053.1374
  -5511891.55548  -4274807.77746  20876021.6884                   20876020.7344
  -3808951.23448  -2960317.32446  21110694.4454                   21110693.3714
 -18379245.87948 -14314689.56246  20676123.5474                   20676123.9574
   2416400.70746   1884413.19543  24044998.9694                   24045001.5314
 11  9 24 19  9  0.0000000  0  7G09G08G02G17G28G04G20
   1684684.89847   1323466.12144  23238372.5864                   23238374.4734
  17078739.89146  13314335.60543  23304918.5634                   23304924.1334
   3388411.20346   2651036.90243  24032362.3134                   24032364.8404
  -5520962.48848  -4281876.05946  20874295.3754                   20874294.5394
  -3825114.25048  -2972911.93746  21107618.6724                   21107617.7814
 -18478502.19948 -14392032.10246  20657235.9534                   20657236.1454
   2376512.38346   1853331.41843  24037409.0084                   24037411.6804
 11  9 24 19  9 30.0000000  0  7G09G08G02G17G28G04G20
   1571302.52747   1235116.30544  23216796.4224                   23216798.6024
  17166810.55546  13382961.78143  23321677.9224                   23321683.9024
   3258793.95346   2550036.69943  24007696.8204                   24007699.8834
  -5529875.33648  -4288821.16446  20872599.5554                   20872598.4344
  -3840980.94148  -2985275.63746  21104599.0554                   21104598.2344
 -18577281.43048 -14469002.89546  20638438.6954                   20638438.8914
   2337073.06645   1822599.49643  24029904.2194                   24029907.0594
 11  9 24 19 10  0.0000000  0  7G09G08G02G17G28G04G20
   1458357.37547   1147107.14144  23195303.8204                   23195305.8014
  17255026.81646  13451701.42643  23338464.8834                   23338470.6684
   3129290.82846   2449125.41843  23983052.9924                   23983055.6884
  -5538631.10948  -4295643.86346  20870933.3754                   20870932.3204
  -3856550.23448  -2997407.60546  21101636.7734                   21101635.6174
 -18675582.40248 -14545601.00046  20619732.4384                   20619733.0084
   2298083.53146   1792218.05543  24022484.5864                   24022487.4844
 11  9 24 19 10 30.0000000  0  7G09G08G02G17G28G04G20
   1345853.46147   1059441.81644  23173894.9844                   23173897.2624
  17343386.70346  13520552.96143  23355280.0704                   23355285.3984
   2999904.96146   2348305.49244  23958431.2584                   23958434.3204
  -5547229.83648  -4302344.21146  20869296.8364                   20869295.9144
  -3871819.72348  -3009305.96146  21098730.9694                   21098730.0944
 -18773401.71948 -14621823.81246  20601118.1954                   20601118.5044
   2259546.27746   1762189.01643  24015151.2584                   24015153.7424
 11  9 24 19 11  0.0000000  0  7G09G08G02G17G28G04G20
   1233789.73047    972119.46144  23152569.8674                   23152571.9184
  17431883.68047  13589511.32844  23372120.4224                   23372125.9924
   2870634.90246   2247575.77744  23933832.3984                   23933835.1804
  -5555676.38348  -4308925.97346  20867689.7194                   20867688.6374
  -3886792.07448  -3020972.78546  21095882.0704                   21095881.1024
 -18870741.16048 -14697672.68446  20582594.6334                   20582595.2774
   2221459.04346   1732510.60243  24007903.2274                   24007905.9494
 11  9 24 19 11 30.0000000  0  7G09G08G02G17G28G04G20
   1122169.28147    885142.52044  23131329.8364                   23131331.3594
  17520514.65247  13658574.11743  23388986.9844                   23388992.2234
   2741482.68846   2146937.90644  23909255.7194                   23909258.4734
  -5563971.75448  -4315389.93046  20866111.3204                   20866110.1684
  -3901465.73048  -3032406.86746  21093089.7814                   21093088.8134
 -18967598.88748 -14773146.19546  20564163.0314                   20564163.7074
   2183823.26246   1703183.98443  24000741.4384                   24000743.6254
 11  9 24 19 12  0.0000000  0  7G09G08G02G17G28G04G20
   1010996.53947    798514.41844  23110173.6644                   23110175.9694
  17609278.03947  13727740.05144  23405878.5084                   23405884.1134
   2612451.97346   2046394.68444  23884701.5784                   23884704.1844
  -5572115.27348  -4321735.58246  20864561.5394                   20864560.4494
  -3915837.88748  -3043606.01646  21090354.6644                   21090353.7544
 -19063971.12948 -14848241.43446  20545824.1724                   20545824.7424
   2146641.97346   1674211.53143  23993666.1954                   23993668.6994
 11  9 24 19 12 30.0000000  0  7G09G08G02G17G28G04G20
    900274.53147    712237.54744  23089104.1644                   23089106.1454
  17698171.09847  13797007.03544  23422794.9694                   23422800.0784
   2483545.00446   1945947.89844  23860171.1564                   23860174.0554
  -5580107.45748  -4327963.29346  20863040.7274                   20863039.3674
  -3929906.84848  -3054568.89846  21087677.6884                   21087676.7304
 -19159855.71548 -14922956.67246  20527578.1174                   20527578.3324
   2109916.68046   1645594.37143  23986677.5554                   23986680.1884
 11  9 24 19 13  0.0000000  0  7G09G08G02G17G28G04G20
    790006.16447    626314.18844  23068120.6094                   23068122.1914
  17787191.02046  13866372.87544  23439733.9844                   23439740.0164
   2354763.69546   1845599.04344  23835664.2114                   23835667.9024
  -5587949.68748  -4334074.16446  20861548.4694                   20861547.5274
  -3943671.72348  -3065294.82446  21085058.4224                   21085057.7544
 -19255250.84848 -14997290.50446  20509425.1884                   20509425.4964
   2073648.43046   1617333.39543  23979776.3594                   23979778.6134
 11  9 24 19 13 30.0000000  0  7G09G08G02G17G28G04G20
    680193.37947    540745.81344  23047224.2814                   23047226.0984
  17876334.14846  13935834.68843  23456697.6414                   23456703.7664
   2226109.52046   1745349.24644  23811182.5394                   23811185.2034
  -5595643.55548  -4340069.41846  20860084.4304                   20860083.6054
  -3957131.87148  -3075783.31646  21082496.9924                   21082496.3874
 -19350155.41048 -15071242.08246  20491365.4454                   20491365.9184
   2037838.10946   1589429.21943  23972961.5164                   23972964.8284
 11  9 24 19 14  0.0000000  0  7G09G08G02G17G28G04G20
    570838.03947    455533.91044  23026413.8754                   23026416.3324
  17965596.28146  14005389.24643  23473683.8204                   23473691.1914
   2097583.67646   1645199.46944  23786724.7734                   23786727.2424
  -5603190.71548  -4345950.35246  20858647.9844                   20858647.4534
  -3970286.82048  -3086033.96946  21079993.6724                   21079992.8874
 -19444568.07848 -15144810.35946  20473399.1334                   20473399.4614
   2002486.55946   1561882.52043  23966233.7584                   23966237.0314
 11  9 24 19 14 30.0000000  0  7G09G08G02G17G28G04G20
    461945.05947    370682.29344  23005692.2814                   23005694.2274
  18054976.49646  14075035.79743  23490692.5634                   23490699.4694
   1969190.06346   1545152.72744  23762291.5704                   23762294.4774
  -5610590.03948  -4351716.09046  20857240.0234                   20857239.3324
  -3983133.28148  -3096044.25446  21077549.2274                   21077548.2464
 -19538484.96948 -15217992.31246  20455527.1644                   20455527.5824
   1967596.56346   1534695.48043  23959595.1644                   23959597.4734
 11  9 24 19 15  0.0000000  0  7G09G08G02G17G28G04G20
    353514.57447    286191.03544  22985058.5944                   22985061.3984
  18144469.53146  14144770.25043  23507723.1564                   23507729.4614
   1840928.44546   1445208.83644  23737883.7344                   23737887.0354
  -5617844.94948  -4357369.30946  20855859.7504                   20855858.6524
  -3995672.23048  -3105814.91846  21075163.3594                   21075162.0824
 -19631906.63748 -15290788.38746  20437749.7424                   20437750.3634
   1933167.08246   1507867.28543  23953043.0944                   23953046.1994
 11  9 24 19 15 30.0000000  0  7G09G08G02G17G28G04G20
    245550.39147    202063.15244  22964513.8524                   22964516.1334
  18234073.21546  14214590.93443  23524773.8754                   23524781.4694
   1712801.44546   1345369.84844  23713502.5004                   23713504.9064
  -5624955.84048  -4362910.28546  20854506.5554                   20854505.7154
  -4007901.69548  -3115344.41446  21072835.9844                   21072834.9654
 -19724830.41448 -15363196.48446  20420066.9144                   20420067.3324
   1899200.39546   1481399.72743  23946580.2344                   23946581.6684
 11  9 24 19 16  0.0000000  0  7G09G08G02G17G28G04G20
    138052.62147    118298.73044  22944057.9534                   22944060.0824
  18323782.05946  14284493.56643  23541846.6254                   23541852.5164
   1584808.63346   1245635.38744  23689146.1724                   23689148.1684
  -5631926.04348  -4368341.64846  20853180.2274                   20853179.3484
  -4019823.03948  -3124633.83246  21070567.6174                   21070566.4344
 -19817257.05948 -15435217.21146  20402478.4224                   20402479.1524
   1865694.94146   1455291.59043  23940203.9694                   23940205.8594
 11  9 24 19 16 30.0000000  0  7G09G08G02G17G28G04G20
     31026.35947     34901.69144  22923691.4844                   22923692.9734
  18413595.26646  14354477.56643  23558936.8524                   23558943.5394
   1456954.75047   1146009.18844  23664816.3754                   23664818.8524
  -5638753.84048  -4373662.03546  20851880.8914                   20851880.2544
  -4031432.92248  -3133680.54746  21068358.3914                   21068357.6254
 -19909182.47348 -15506847.36346  20384985.7114                   20384986.1844
   1832654.33246   1429545.61343  23933915.6564                   23933918.8714
 11  9 24 19 17  0.0000000  0  7G09G08G02G17G28G04G20
   1499900.65247   1179479.14144  23203208.5234                   23203210.5864
  20078929.87546  15652140.56643  23875839.9454                   23875846.1804
   2904668.27347   2274097.85944  23940306.4534                   23940308.9224
  -4070017.54748  -3151270.14546  21150401.2664                   21150400.9534
  -2467306.66448  -1914880.91446  21366001.8364                   21366000.8364
 -18425179.00448 -14350480.98846  20667382.4144                   20667382.7304
   3375503.76246   2631765.94143  24227510.7814                   24227513.8204
 11  9 24 19 17 30.0000000  0  7G09G08G02G17G28G04G20
   1393832.20747   1096828.46544  23183024.3284                   23183026.5044
  20168950.05146  15722285.84843  23892970.6644                   23892976.8984
   2777104.19947   2174697.47344  23916031.9384                   23916034.3444
  -4076557.14848  -3156365.96546  21149156.8674                   21149156.5004
  -2478282.79348  -1923433.79746  21363912.8754                   21363912.4144
 -18516089.87148 -14421320.58646  20650082.3444                   20650082.5824
   3343403.09846   2606752.41443  24221402.7504                   24221405.4144
 11  9 24 19 18  0.0000000  0  7G09G08G02G17G28G04G20
   1288245.57447   1014553.23844  23162932.2194                   23162934.1294
  20259068.01646  15792507.29343  23910120.1334                   23910126.1604
   2649686.88347   2075411.43844  23891784.6954                   23891786.8954
  -4082955.11748  -3161351.41446  21147939.3594                   21147938.6524
  -2488941.52348  -1931739.35546  21361884.4304                   21361883.9844
 -18606491.98848 -14491763.75446  20632879.5474                   20632879.9534
   3311773.15646   2582105.70743  24215383.0554                   24215385.8594
 11  9 24 19 18 30.0000000  0  7G09G08G02G17G28G04G20
   1183139.04347    932652.10244  23142930.7274                   23142932.6564
  20349276.22346  15862799.02043  23927285.9224                   23927294.0704
   2522413.94947   1976237.89844  23867565.3444                   23867568.0004
  -4089217.02048  -3166230.84446  21146747.8754                   21146747.1724
  -2499286.13748  -1939800.15246  21359916.1334                   21359915.3484
 -18696388.01648 -14561812.57446  20615772.8364                   20615773.3014
   3280610.34846   2557822.96943  24209453.1564                   24209455.8524
 11  9 24 19 19  0.0000000  0  7G09G08G02G17G28G04G20
   1078519.31347    851130.29744  23123022.7194                   23123024.0434
  20439576.26646  15933162.32043  23944469.7034                   23944476.8324
   2395291.47747   1877181.63744  23843374.9614                   23843377.1724
  -4095339.50448  -3171001.64146  21145582.8524                   21145582.1094
  -2509310.94548  -1947611.73846  21358008.7814                   21358007.9344
 -18785771.90648 -14631462.32846  20598763.8134                   20598764.0084
   3249920.07846   2533908.45743  24203612.9534                   24203615.3554
 11  9 24 19 19 30.0000000  0  7G09G08G02G17G28G04G20
    974389.98847    769990.63744  23103207.0554                   23103209.1684
  20529965.80146  16003595.32044  23961671.1564                   23961677.8204
   2268322.40647   1778244.88344  23819213.6884                   23819215.6804
  -4101322.38348  -3175663.64846  21144444.4224                   21144443.6804
  -2519014.20748  -1955172.77046  21356162.3914                   21356161.3794
 -18874641.19148 -14700711.09046  20581852.2194                   20581852.7274
   3219704.41446   2510363.78143  24197863.2034                   24197865.6214
 11  9 24 19 20  0.0000000  0  7G09G08G02G17G28G04G20
    870751.52047    689233.43844  23083485.4924                   23083487.2304
  20620439.43046  16074093.87144  23978887.3984                   23978895.0084
   2141506.50846   1679427.51644  23795080.8284                   23795082.8594
  -4107169.03948  -3180219.50446  21143331.7274                   21143331.2194
  -2528396.80148  -1962483.93446  21354376.6644                   21354375.9454
 -18962996.59448 -14769559.41846  20565038.6804                   20565038.8594
   3189961.83246   2487187.70343  24192203.4144                   24192205.9494
 11  9 24 19 20 30.0000000  0  7G09G08G02G17G28G04G20
    767605.99247    608860.34844  23063857.3914                   23063858.9534
  20710993.88746  16144655.37944  23996120.0314                   23996127.1334
   2014845.35946   1580730.72744  23770977.7114                   23770979.8914
  -4112880.74648  -3184670.19546  21142245.2894                   21142244.2274
  -2537457.98048  -1969544.64846  21352652.4694                   21352651.9774
 -19050836.88348 -14838006.37146  20548323.2034                   20548323.7154
   3160692.92646   2464380.74243  24186634.2974                   24186636.1454
 11  9 24 19 21  0.0000000  0  7G09G08G02G17G28G04G20
    664956.85547    528874.03944  23044323.8134                   23044325.6454
  20801627.30946  16215278.42243  24013366.9224                   24013374.6524
   1888341.82046   1482156.76244  23746904.7734                   23746906.9924
  -4118457.33648  -3189015.60946  21141183.5554                   21141182.8094
  -2546196.01248  -1976353.56246  21350989.9304                   21350988.8324
 -19138159.46948 -14906049.91446  20531706.2504                   20531706.9384
   3131899.91446   2441944.56643  24181155.0234                   24181157.3444
 11  9 24 19 21 30.0000000  0  7G09G08G02G17G28G04G20
    562808.71147    449278.14144  23024886.2814                   23024887.2304
  20892338.77746  16285962.27743  24030629.8054                   24030636.2934
   1762000.08646   1383708.87144  23722862.5314                   23722864.8674
  -4123897.23448  -3193254.52046  21140148.5474                   21140147.7704
  -2554607.31248  -1982907.87946  21349389.4774                   21349388.5084
 -19224960.31248 -14973686.90646  20515188.6094                   20515189.1454
   3103585.78146   2419881.57843  24175766.5084                   24175769.3204
 11  9 24 19 22  0.0000000  0  7G09G08G02G17G28G04G20
    461162.59047    370073.39544  23005542.6414                   23005544.8094
  20983124.03946  16356703.66443  24047905.3914                   24047912.9264
   1635820.37546   1285387.23844  23698851.0084                   23698854.0594
  -4129203.53948  -3197389.33646  21139139.1954                   21139138.0824
  -2562691.83648  -1989207.56246  21347850.7114                   21347849.8284
 -19311239.65248 -15040917.53146  20498770.0784                   20498770.4024
   3075750.27046   2398191.57443  24170469.9064                   24170472.1054
 11  9 24 19 22 30.0000000  0  7G09G08G02G17G28G04G20
    360021.93847    291262.54344  22986296.6564                   22986298.5314
  21073981.09046  16427500.93043  24065194.5234                   24065202.5824
   1509805.71146   1187194.19944  23674871.2114                   23674873.4534
  -4134375.94148  -3201419.80946  21138154.9454                   21138153.7344
  -2570448.43748  -1995251.72346  21346375.0004                   21346374.0314
 -19396994.94548 -15107739.80546  20482451.4064                   20482452.0314
   3048394.77346   2376875.54343  24165264.8984                   24165267.2384
 11  9 24 19 23  0.0000000  0  7G09G08G02G17G28G04G20
    259391.61747    212849.35944  22967147.0784                   22967149.3054
  21164908.66046  16498353.19142  24082498.0084                   24082506.5904
   1383959.91447   1089132.75444  23650923.3834                   23650925.6094
  -4139412.87148  -3205344.71146  21137196.2114                   21137195.0744
  -2577873.79348  -2001037.76646  21344962.2114                   21344961.3204
 -19482222.77348 -15174151.06646  20466232.8984                   20466233.2344
   3021522.56346   2355936.14843  24160150.8134                   24160153.0704
 11  9 24 19 23 30.0000000  0  7G09G08G02G17G28G04G20
    159271.47747    134833.69544  22948094.7114                   22948096.3984
  21255901.14046  16569256.04343  24099814.1644                   24099822.1254
   1258282.80547    991202.73044  23627008.1094                   23627009.7704
  -4144317.97748  -3209166.90246  21136262.8364                   21136262.1374
  -2584969.05948  -2006566.60246  21343611.9224                   21343610.7734
 -19566923.81648 -15240151.84846  20450114.8984                   20450115.1564
   2995131.86346   2335371.93843  24155128.8134                   24155130.8794
 11  9 24 19 24  0.0000000  0  7G09G08G02G17G28G04G20
     59666.95347     57219.82044  22929140.7664                   22929142.7304
  21346958.97346  16640209.69143  24117141.8754                   24117149.5864
   1132779.13346    893407.85244  23603125.2274                   23603127.3164
  -4149089.47748  -3212884.98446  21135354.8834                   21135354.3244
  -2591730.39848  -2011835.23046  21342325.0704                   21342324.6334
 -19651093.98848 -15305738.96146  20434098.0864                   20434097.9224
   2969226.28546   2315185.73843  24150199.5864                   24150201.5514
 11  9 24 19 24 30.0000000  0  7G09G08G02G17G28G04G20
    -39422.78547    -19992.91444  22910284.7504                   22910286.3714
  21438075.63747  16711209.22744  24134481.2194                   24134489.6294
   1007447.14147    795746.73844  23579275.0784                   23579276.5664
  -4153731.05547  -3216501.83246  21134471.3984                   21134470.6764
  -2598159.82047  -2016845.22346  21341101.7344                   21341100.7384
 -19734734.86748 -15370913.64846  20418181.8444                   20418181.9064
   2943803.54746   2295375.78143  24145361.5394                   24145364.3554
 11  9 24 19 25  0.0000000  0  7G09G08G02G17G28G04G20
   -137993.23447    -96801.02344  22891527.0704                   22891529.0314
  21529250.62546  16782254.23444  24151832.1954                   24151840.2584
    882291.02747    698222.68444  23555458.7424                   23555460.5634
  -4158241.64548  -3220016.60946  21133613.0944                   21133612.4184
  -2604254.45748  -2021594.34046  21339942.1334                   21339941.4454
 -19817842.90648 -15435673.11346  20402366.7274                   20402367.0314
   2918866.64846   2275944.41843  24140615.7274                   24140619.1724
 11  9 24 19 25 30.0000000  0  8G09G08G02G17G10G28G04G20
   -236044.17647   -173204.29744  22872868.5474                   22872870.8054
  21620478.15647  16853340.15244  24169192.8054                   24169200.3244
    757310.55546    600835.48044  23531675.1954                   23531677.1134
  -4162624.27748  -3223431.68446  21132779.5314                   21132779.0004
   9308439.89856   7262981.54353  24684531.3914                   24684540.7074
  -2610015.28548  -2026083.34846  21338845.6484                   21338844.8094
 -19900419.03148 -15500018.11746  20386652.7974                   20386653.1604
   2894414.19946   2256890.57843  24135963.0474                   24135965.3094
 11  9 24 19 26  0.0000000  0  8G09G08G02G17G10G28G04G20
   -333582.35947   -249208.02344  22854307.5864                   22854310.0394
  21711746.55147  16924457.93044  24186560.9924                   24186568.4574
    632498.81346    503579.77344  23507924.3674                   23507925.7074
  -4166889.14148  -3226754.97746  21131967.8524                   21131967.0744
   9189138.46946   7170019.73043  24661828.9534                   24661837.9844
  -2615450.10248  -2030318.31246  21337811.5944                   21337810.6884
 -19982470.73848 -15563954.47746  20371038.9224                   20371039.3134
   2870437.94946   2238207.80143  24131400.0474                   24131402.4964
 11  9 24 19 26 30.0000000  0  8G09G08G02G17G10G28G04G20
   -430610.71547   -324814.46945  22835844.2424                   22835845.7814
  21803047.87546  16995601.36743  24203935.1334                   24203942.7464
    507851.90646    406452.50444  23484204.2894                   23484206.3954
  -4171042.08648  -3229991.07046  21131177.6724                   21131177.0554
   9069687.67246   7076941.52343  24639098.2114                   24639107.8204
  -2620563.57048  -2034302.87946  21336838.5314                   21336837.8594
 -20064002.11348 -15627485.37946  20355524.0864                   20355524.5594
   2846933.13346   2219892.35243  24126928.2974                   24126930.0124
 11  9 24 19 27  0.0000000  0  8G09G08G02G17G10G28G04G20
   -527126.64847   -400021.64545  22817477.8524                   22817479.0664
  21894379.12946  17066768.12143  24221314.2194                   24221323.4064
    383372.16846    309455.49644  23460516.8054                   23460518.8244
  -4175083.81647  -3233140.50446  21130408.3524                   21130407.6914
   8950090.10546   6983748.97343  24616339.2274                   24616347.9384
  -2625354.55547  -2038036.16446  21335927.1024                   21335926.3134
 -20145011.65648 -15690609.66046  20340108.5474                   20340108.6254
   2823900.80946   2201945.08643  24122544.3524                   24122547.0554
 11  9 24 19 27 30.0000000  0  8G09G08G02G17G10G28G04G20
   -623122.73047   -474823.73445  22799210.6094                   22799211.6724
  21985742.09845  17137959.52042  24238701.1724                   24238709.5904
    259066.27746    212593.94144  23436862.1024                   23436864.1764
  -4179010.30947  -3236200.13346  21129661.2274                   21129660.1644
   8830353.55946   6890448.07043  24593553.8444                   24593562.1524
  -2629816.99647  -2041513.43046  21335077.5234                   21335076.5394
 -20225493.02348 -15753322.38346  20324793.4614                   20324793.5664
   2801346.55147   2184370.36743  24118253.4304                   24118254.8984
 11  9 24 19 28  0.0000000  0  8G09G08G02G17G10G28G04G20
   -718594.15646   -549216.99245  22781042.5864                   22781044.1764
  22077136.61745  17209175.49642  24256092.7734                   24256101.2934
    134938.89146    115871.50444  23413241.1254                   23413242.9774
  -4182819.53947  -3239168.40646  21128936.4224                   21128935.5554
   8710483.20746   6797042.95343  24570742.8284                   24570751.4924
  -2633947.47347  -2044732.02346  21334291.6564                   21334291.1024
 -20305442.58248 -15815620.70746  20309579.4454                   20309579.9924
   2779273.41046   2167170.51643  24114052.7664                   24114055.0514
 11  9 24 19 28 30.0000000  0  8G09G08G02G17G10G28G04G20
   -813537.41047   -623198.68444  22762975.2974                   22762977.0984
  22168561.32445  17280415.09442  24273491.2814                   24273499.6094
     10993.16046     19290.60244  23389654.8204                   23389656.7894
  -4186511.18748  -3242045.03546  21128234.0004                   21128233.3794
   8590483.03946   6703536.65243  24547907.7194                   24547916.3674
  -2637743.56248  -2047690.07446  21333569.3914                   21333568.8054
 -20384857.56248 -15877502.47746  20294467.3594                   20294467.4574
   2757683.51646   2150347.25443  24109943.9844                   24109946.2464
 11  9 24 19 29  0.0000000  0  8G09G08G02G17G10G28G04G20
   -907949.33247   -696766.36745  22745008.9694                   22745011.1604
  22260014.02746  17351676.48842  24290894.6884                   24290903.3914
   -112768.26647    -77146.69145  23366103.9774                   23366105.8984
  -4190085.10547  -3244829.93746  21127553.9224                   21127553.2664
   8470356.60946   6609931.94943  24525047.5084                   24525056.3634
  -2641203.28947  -2050385.99646  21332911.3364                   21332910.5554
 -20463735.61348 -15938965.86746  20279457.2424                   20279457.3914
   2736578.51246   2133901.80143  24105927.9304                   24105930.0004
 11  9 24 19 29 30.0000000  0  8G09G08G02G17G10G28G04G20
  -1001826.03547   -769917.01245  22727144.9224                   22727146.5904
  22351492.94946  17422958.30543  24308302.6414                   24308311.6564
   -236342.21946   -173437.88345  23342588.6644                   23342590.2504
  -4193540.55147  -3247522.51646  21126896.3444                   21126895.8554
   8350108.18046   6516232.20343  24502164.8754                   24502173.2584
  -2644324.36347  -2052818.04746  21332317.1334                   21332316.6414
 -20542074.10248 -16000008.82046  20264550.1804                   20264550.0124
   2715960.50446   2117835.83243  24102004.6954                   24102006.5164
 11  9 24 19 30  0.0000000  0  8G09G08G02G17G10G28G04G20
  -1095163.85247   -842647.73444  22709383.0394                   22709384.6914
  22442996.94546  17494259.62543  24325715.2504                   24325724.8164
   -359724.96547   -269580.12545  23319109.1254                   23319111.1644
  -4196876.80947  -3250122.22346  21126261.7584                   21126260.9104
   8229741.56346   6422440.37142  24479259.5634                   24479267.8594
  -2647104.22347  -2054984.21146  21331788.2734                   21331787.8284
 -20619870.46948 -16060629.34446  20249745.8134                   20249745.8094
   2695831.49246   2102150.92243  24098173.5704                   24098176.0634
 11  9 24 19 30 30.0000000  0  8G09G08G02G17G10G28G04G20
  -1187959.30147   -914955.84845  22691725.2664                   22691726.8244
  22534524.52746  17565579.32443  24343133.5394                   24343142.5434
   -482913.57047   -365571.07445  23295667.0164                   23295668.6764
  -4200093.78148  -3252628.97746  21125649.4454                   21125648.5124
   8109261.10245   6328559.78542  24456331.9454                   24456340.9454
  -2649540.98448  -2056883.03546  21331324.7114                   21331324.0554
 -20697122.08248 -16120825.37546  20235045.3364                   20235045.2034
   2676193.33646   2086848.47343  24094436.8914                   24094438.9494
 11  9 24 19 31  0.0000000  0  8G09G08G02G17G10G28G04G20
  -1280211.99646   -986841.03544  22674169.8834                   22674171.1994
  22626070.64146  17636913.41844  24360554.3984                   24360564.3094
   -605908.23446   -461410.90245  23272262.1804                   23272263.0704
  -4203193.82848  -3255044.61346  21125059.4224                   21125058.7814
   7988667.31345   6234590.94942  24433384.0394                   24433392.6914
  -2651635.22748  -2058514.96146  21330926.0314                   21330925.1684
 -20773829.92248 -16180597.69546  20220448.3444                   20220448.0744
   2657044.64546   2071927.41843  24090792.8674                   24090795.2344
 11  9 24 19 31 30.0000000  0  8G09G08G02G17G10G28G04G20
  -1371917.13347  -1058299.55544  22656719.5704                   22656720.5784
  22717635.79746  17708262.38743  24377979.4614                   24377988.4304
   -728703.89847   -557095.67245  23248894.8754                   23248895.7274
  -4206174.73847  -3257367.41846  21124491.9924                   21124491.6134
   7867965.95345   6140538.31343  24410415.4144                   24410423.4734
  -2653383.50448  -2059877.30546  21330593.6024                   21330592.5664
 -20849989.73048 -16239942.96946  20205955.6724                   20205955.8444
   2638388.62947   2057390.28543  24087242.5944                   24087245.3674
 11  9 24 19 32  0.0000000  0  8G09G08G02G17G10G28G04G20
  -1463074.54347  -1129331.27044  22639372.0394                   22639373.4494
  22809214.41846  17779621.81343  24395406.0084                   24395415.8404
   -851301.09447   -652625.78545  23225565.1094                   23225566.3164
  -4209039.80548  -3259599.96946  21123946.6804                   21123946.2424
   7747157.61745   6046402.28943  24387426.0084                   24387434.6844
  -2654786.84448  -2060970.87546  21330326.2194                   21330325.9304
 -20925602.68748 -16298862.12946  20191566.8754                   20191567.0824
   2620223.72347   2043235.81343  24083786.0004                   24083788.2464
 11  9 24 19 32 30.0000000  0  7G09G02G17G10G28G04G20
  -1553681.23446  -1199933.85944  22622129.6094                   22622131.6374
   -973697.23047   -747999.24645  23202273.7504                   23202274.4614
  -4211788.77047  -3261742.03546  21123424.0634                   21123423.3404
   7626245.69946   5952185.54343  24364417.4614                   24364425.6994
  -2655843.69947  -2061794.45346  21330125.4614                   21330124.9184
 -21000666.86348 -16357353.67246  20177282.4844                   20177282.3324
   2602551.53147   2029465.27343  24080423.6804                   24080426.5554
 11  9 24 19 33  0.0000000  0  7G09G02G17G10G28G04G20
  -1643733.86747  -1270104.71944  22604993.6174                   22604994.8794
  -1095889.40246   -843213.75044  23179021.1174                   23179021.7704
  -4214421.00048  -3263793.14846  21122923.2664                   21122922.7934
   7505233.93846   5857890.99243  24341388.8834                   24341397.2624
  -2656552.09047  -2062346.51646  21329990.3594                   21329989.8204
 -21075180.00848 -16415415.82846  20163103.1094                   20163103.1054
   2585373.25046   2016079.57443  24077154.1174                   24077157.0274
 11  9 24 19 33 30.0000000  0  7G09G02G17G10G28G04G20
  -1733221.89547  -1339835.62144  22587964.9614                   22587966.3054
  -1217867.31646   -938261.33244  23155809.2504                   23155810.1914
  -4216928.90648  -3265747.37946  21122445.9774                   21122445.1954
   7384133.52046   5763527.36344  24318343.8364                   24318351.9024
  -2656902.81647  -2062619.86746  21329923.9454                   21329923.6914
 -21149132.85948 -16473041.40246  20149030.3914                   20149030.5124
   2568697.83246   2003085.74643  24073980.9614                   24073982.8914
 11  9 24 19 34  0.0000000  0  7G09G02G17G10G28G04G20
  -1822138.06246  -1409120.91444  22571044.6804                   22571045.9734
  -1339623.76647  -1033136.32444  23132639.9144                   23132640.8754
  -4219307.97348  -3267601.22346  21121992.9534                   21121992.6564
   7262953.09446   5669101.39544  24295283.7114                   24295291.7464
  -2656889.33647  -2062609.42246  21329926.5784                   21329926.1524
 -21222518.58648 -16530225.05146  20135065.5314                   20135065.7734
   2552531.07446   1990488.27743  24070904.9454                   24070907.2344
 11  9 24 19 34 30.0000000  0  7G09G02G17G10G28G04G20
  -1910484.05147  -1477961.91044  22554232.7274                   22554234.2274
  -1461160.44547  -1127840.07445  23109512.0394                   23109512.8794
  -4221562.55548  -3269358.06246  21121563.8914                   21121563.4574
   7141691.48846   5574612.14544  24272208.1174                   24272216.6954
  -2656514.51648  -2062317.41446  21329998.2424                   21329997.4264
 -21295339.94548 -16586968.92646  20121207.8984                   20121208.1644
   2536869.78146   1978284.64543  24067924.5164                   24067926.5084
 11  9 24 19 35  0.0000000  0  7G09G02G17G10G28G04G20
  -1998261.85947  -1546360.14845  22537529.5394                   22537530.9304
  -1582480.13746  -1222374.74244  23086425.5394                   23086426.5864
  -4223697.56247  -3271021.72746  21121157.9924                   21121157.1174
   7020347.05546   5480058.34044  24249117.3754                   24249124.9844
  -2655781.88348  -2061746.59446  21330137.1954                   21330137.1174
 -21367600.49248 -16643275.81246  20107457.2424                   20107457.3404
   2521709.92646   1966471.77743  24065040.2114                   24065041.9344
 11  9 24 19 35 30.0000000  0  7G09G02G17G10G28G04G20
  -2085473.20747  -1614317.01644  22520933.3524                   22520935.0634
  -1703584.32546  -1316741.44944  23063380.3054                   23063381.0314
  -4225717.40248  -3272595.66046  21120773.3674                   21120772.9264
   6898919.03146   5385439.39844  24226010.0864                   24226017.9694
  -2654694.58247  -2060899.40246  21330344.3914                   21330343.9024
 -21439302.73848 -16699147.66046  20093812.8914                   20093812.8674
   2507048.25447   1955047.11343  24062250.2034                   24062251.9414
 11  9 24 19 36  0.0000000  0  7G09G02G17G10G28G04G20
  -2172119.89547  -1681833.85545  22504445.1954                   22504446.7584
  -1824475.47347  -1410942.23445  23040374.9224                   23040375.8524
  -4227627.02048  -3274083.69946  21120409.8364                   21120409.2304
   6777406.24646   5290754.38743  24202886.6484                   24202894.0084
  -2653255.28948  -2059777.93746  21330618.4224                   21330618.0704
 -21510449.78548 -16754586.88746  20080273.9614                   20080274.0824
   2492881.15247   1944007.75443  24059553.6884                   24059555.7304
 11  9 24 19 36 30.0000000  0  7G09G02G17G10G28G04G20
  -2258199.32847  -1748908.68744  22488064.5704                   22488066.1294
  -1945151.21547  -1504975.12545  23017411.0704                   23017412.1214
  -4229425.99248  -3275485.52346  21120067.8914                   21120067.0664
   6655812.05945   5196005.98043  24179747.5314                   24179755.4494
  -2651462.44548  -2058380.97346  21330959.5394                   21330959.1054
 -21581040.05548 -16809592.25846  20066840.7814                   20066841.2234
   2479209.60547   1933354.60543  24056951.8594                   24056955.1374
 11  9 24 19 37  0.0000000  0  7G09G02G17G10G28G04G20
  -2343710.52347  -1815540.73844  22471792.4844                   22471793.8754
  -2065610.49247  -1598839.34845  22994488.0784                   22994489.5124
  -4231115.72348  -3276802.23046  21119746.4144                   21119745.6254
   6534138.50845   5101195.71143  24156593.8524                   24156601.5274
  -2649316.27348  -2056708.69546  21331367.9454                   21331367.5944
 -21651073.27048 -16864163.56646  20053514.1094                   20053514.1054
   2466033.14147   1923087.21143  24054444.6884                   24054448.0164
 11  9 24 19 37 30.0000000  0  7G09G02G17G10G28G04G20
  -2428651.01647  -1881728.10545  22455628.5394                   22455630.2464
  -2185851.13347  -1692533.19145  22971607.0394                   22971608.3524
  -4232697.02047  -3278034.44546  21119445.4064                   21119445.0554
   6412388.79345   5006326.10242  24133424.5704                   24133432.9144
  -2646815.80548  -2054760.32846  21331843.6644                   21331843.3524
 -21720548.32048 -16918299.93746  20040293.3444                   20040293.5124
   2453352.29747   1913206.00843  24052031.7424                   24052033.5784
 11  9 24 19 38  0.0000000  0  7G09G02G17G10G28G04G20
  -2513020.48847  -1947470.50845  22439573.4534                   22439575.4574
  -2305872.74247  -1786056.36745  22948767.7274                   22948768.5124
  -4234171.89147  -3279183.72346  21119165.0634                   21119163.9654
   6290564.27345   4911398.21142  24110242.1414                   24110249.8484
  -2643961.66848  -2052536.38746  21332386.8594                   21332386.4804
 -21789465.77348 -16972001.82446  20027178.8674                   20027178.8754
   2441165.58647   1903709.88743  24049712.9304                   24049715.2194
 11  9 24 19 38 30.0000000  0  7G09G02G17G10G28G04G20
  -2596815.65647  -2012765.40245  22423627.8674                   22423629.5434
  -2425672.30547  -1879406.50845  22925970.4224                   22925971.4454
  -4235539.43747  -3280249.38346  21118904.5704                   21118904.0984
   6168669.10946   4816415.18442  24087046.3444                   24087052.9614
  -2640751.68748  -2050035.15646  21332997.7424                   21332997.1524
 -21857823.64148 -17025267.66446  20014170.6804                   20014170.5434
   2429474.84047   1894600.21143  24047488.3054                   24047490.0434
 11  9 24 19 39  0.0000000  0  7G09G02G17G10G28G04G20
  -2680034.06647  -2077610.89545  22407792.0314                   22407793.8364
  -2545247.53947  -1972581.86345  22903215.8754                   22903216.8134
  -4236799.43447  -3281231.23046  21118664.4844                   21118664.1914
   6046706.93446   4721379.97343  24063838.1804                   24063844.4734
  -2637184.73448  -2047255.76646  21333676.5314                   21333676.2734
 -21925620.53148 -17078096.38746  20001269.1644                   20001269.3524
   2418280.93047   1885877.68843  24045357.6334                   24045359.8524
 11  9 24 19 39 30.0000000  0  7G09G02G17G10G28G04G20
  -2762675.69547  -2142006.92645  22392065.8914                   22392067.2464
  -2664598.51647  -2065582.45345  22880503.6094                   22880504.6484
  -4237954.76648  -3282131.52746  21118445.0314                   21118444.4614
   5924678.97346   4626293.50843  24040616.4844                   24040623.4694
  -2633261.51648  -2044198.76246  21334423.2194                   21334423.3364
 -21992857.19548 -17130488.56646  19988474.5634                   19988474.5864
   2407582.14146   1877540.95343  24043322.0474                   24043324.2194
 11  9 24 19 40  0.0000000  0  7G09G02G17G10G28G04G20
  -2844739.64547  -2205952.84445  22376449.3134                   22376450.9804
  -2783724.45347  -2158407.69545  22857834.8674                   22857836.3524
  -4239007.17248  -3282951.61746  21118244.6484                   21118244.2624
   5802586.85546   4531157.04744  24017383.0864                   24017389.8484
  -2628982.63348  -2040864.63346  21335237.3524                   21335237.2424
 -22059533.94148 -17182444.44946  19975786.4924                   19975786.4224
   2397377.43446   1869589.22343  24041380.1804                   24041382.5784
 11  9 24 19 40 30.0000000  0  7G09G02G17G10G28G04G20
  -2926221.19947  -2269444.94545  22360944.3524                   22360946.0944
  -2902620.43446  -2251053.75445  22835209.9144                   22835210.6134
  -4239954.17248  -3283689.57046  21118064.7114                   21118063.9884
   5680436.80946   4435975.43444  23994138.1094                   23994145.7774
  -2624344.43448  -2037250.50446  21336120.1484                   21336120.0124
 -22125647.33248 -17233961.35546  19963205.4064                   19963205.6764
   2387670.09446   1862025.02343  24039532.3914                   24039536.0124
 11  9 24 19 41  0.0000000  0  7G09G02G17G10G28G04G20
  -3007119.45347  -2332482.52045  22345549.9384                   22345551.4454
  -3021285.81247  -2343520.12145  22812628.4224                   22812628.7544
  -4240797.03948  -3284346.38746  21117904.3204                   21117903.6054
   5558230.80146   4340750.22744  23970883.4924                   23970889.8484
  -2619346.67248  -2033356.20746  21337071.1644                   21337071.0474
 -22191197.10248 -17285039.07447  19950731.9304                   19950731.4574
   2378459.63746   1854848.02343  24037779.8134                   24037782.1024
 11  9 24 19 41 30.0000000  0  7G09G02G17G10G28G04G20
  -3087435.21147  -2395066.20745  22330266.3364                   22330267.6724
  -3139721.77347  -2435807.72745  22790090.8364                   22790091.5744
  -4241538.98847  -3284924.56246  21117762.9144                   21117762.6294
   5435968.84447   4245481.43444  23947616.8674                   23947623.8794
  -2613991.48048  -2029183.39146  21338090.0394                   21338090.0084
 -22256185.73848 -17335679.55546  19938364.9224                   19938364.8754
   2369743.01246   1848055.81343  24036121.6024                   24036123.7424
 11  9 24 19 42  0.0000000  0  7G09G02G17G10G28G04G20
  -3167163.37947  -2457192.02045  22315094.2814                   22315095.7344
  -3257922.83647  -2527912.30945  22767597.6644                   22767597.9774
  -4242177.03947  -3285421.78146  21117641.3984                   21117641.1334
   5313656.91446   4150173.69543  23924341.9144                   23924349.0474
  -2608275.06648  -2024729.10246  21339178.4304                   21339177.9614
 -22320608.73848 -17385879.27046  19926105.5474                   19926105.1914
   2361524.06346   1841651.39543  24034556.9774                   24034559.6644
 11  9 24 19 42 30.0000000  0  7G09G02G17G10G28G04G20
  -3246303.88747  -2518859.93045  22300034.5864                   22300035.9024
  -3375889.04747  -2619833.89145  22745149.2194                   22745149.3404
  -4242713.94548  -3285840.18046  21117539.5084                   21117539.3834
   5191296.95346   4054828.51643  23901057.3444                   23901064.0704
  -2602198.04348  -2019993.81646  21340334.5394                   21340334.7424
 -22384467.17248 -17435639.06246  19913953.6254                   19913953.2584
   2353801.03146   1835633.39143  24033087.1024                   24033090.0984
 11  9 24 19 43  0.0000000  0  7G09G02G17G10G28G04G20
  -3324852.13747  -2580066.32445  22285087.3524                   22285089.0084
  -3493616.03147  -2711569.07045  22722746.5004                   22722746.9614
  -4243147.55948  -3286178.09046  21117456.7664                   21117456.5394
   5068894.41046   3959450.18043  23877764.3444                   23877771.2234
  -2595757.32048  -2014975.13346  21341560.3754                   21341560.0554
 -22447757.75848 -17484956.37546  19901909.9844                   19901909.6564
   2346576.53946   1830003.87143  24031712.2114                   24031714.5354
 11  9 24 19 43 30.0000000  0  7G09G02G17G10G28G04G20
  -3402806.92647  -2640810.28145  22270252.7974                   22270254.2234
  -3611102.14847  -2803116.56645  22700389.7344                   22700389.9614
  -4243478.43047  -3286435.94546  21117394.0234                   21117393.6134
   4946452.18846   3864040.92243  23854464.0004                   23854470.8984
  -2588952.25048  -2009672.53946  21342855.4774                   21342854.9144
 -22510479.88748 -17533830.73046  19889974.1254                   19889974.0514
   2339850.59046   1824762.82842  24030432.5784                   24030435.6994
 11  9 24 19 44  0.0000000  0  7G09G02G17G10G28G04G20
  -1904742.45347  -1473487.27745  22555325.2814                   22555326.6884
  -2152920.39847  -1666870.91445  22977872.9384                   22977872.7344
  -2668285.26247  -2059012.73046  21417143.4304                   21417142.9964
   6399398.66845   4996207.25843  24130949.8364                   24130957.8914
  -1006360.91448   -776484.55946  21644012.5704                   21644012.2814
 -20997209.63748 -16354659.08646  20177939.9844                   20177939.5744
   3909044.84446   3047511.55143  24329039.5634                   24329043.4494
 11  9 24 19 44 30.0000000  0  7G09G02G17G10G28G04G20
  -1981503.25047  -1533300.84044  22540717.5394                   22540719.5394
  -2269917.95747  -1758037.72345  22955608.6254                   22955608.4414
  -2668409.89847  -2059109.88746  21417119.6564                   21417119.1884
   6276887.72346   4900744.43843  24107637.0004                   24107643.6724
   -998823.45348   -770611.27046  21645447.1254                   21645446.5594
 -21058791.76248 -16402645.12946  20166221.3524                   20166221.3014
   3903317.77746   3043048.86743  24327951.0944                   24327953.2544
 11  9 24 19 45  0.0000000  0  7G09G02G17G10G28G04G20
  -2057664.68747  -1592647.37945  22526224.9844                   22526226.2034
  -2386668.63747  -1849012.16445  22933391.2504                   22933391.8094
  -2668432.55148  -2059127.56646  21417115.3204                   21417114.7704
   6154346.98846   4805258.37543  24084318.4064                   24084325.1954
   -990918.87948   -764451.93046  21646951.0394                   21646950.6764
 -21119802.97748 -16450186.30946  20154610.8754                   20154610.5744
   3898090.00846   3038975.27343  24326956.3134                   24326958.7664
 11  9 24 19 45 30.0000000  0  7G09G02G17G10G28G04G20
  -2133223.66847  -1651524.45745  22511846.6954                   22511848.0044
  -2503169.65647  -1939792.04345  22911222.1024                   22911222.1644
  -2668352.28147  -2059065.05146  21417131.0004                   21417130.1454
   6031780.84446   4709752.48843  24060995.3054                   24061001.2504
   -982645.16048   -758004.94946  21648525.9224                   21648525.2464
 -21180241.41448 -16497281.17246  20143109.9064                   20143109.7504
   3893362.93046   3035291.77043  24326056.9064                   24326059.3484
 11  9 24 19 46  0.0000000  0  7G09G02G17G10G28G04G20
  -2208180.48047  -1709932.31245  22497582.1484                   22497583.9884
  -2619420.27747  -2030376.82045  22889099.9694                   22889100.2274
  -2668170.64548  -2058923.55146  21417165.2814                   21417164.9104
   5909190.91446   4614228.04743  24037666.8754                   24037672.6374
   -974003.00448   -751270.86346  21650169.9844                   21650170.0204
 -21240107.82048 -16543930.29747  20131717.9384                   20131717.8134
   3889135.16446   3031997.39843  24325252.2194                   24325255.1914
 11  9 24 19 46 30.0000000  0  7G09G02G17G10G28G04G20
  -2282533.89847  -1767869.99245  22483433.5634                   22483435.1644
  -2735419.63347  -2120765.80945  22867025.8054                   22867026.6024
  -2667888.88347  -2058704.02746  21417219.1334                   21417218.4574
   5786579.60246   4518686.94143  24014334.4694                   24014340.5044
   -964992.52348   -744249.77346  21651885.1954                   21651884.8874
 -21299402.49648 -16590133.92246  20120434.3444                   20120434.3054
   3885405.77046   3029091.30143  24324542.4064                   24324545.8634
 11  9 24 19 47  0.0000000  0  7G09G02G17G10G28G04G20
  -2356280.33647  -1825334.70745  22469399.9534                   22469400.9774
  -2851164.12947  -2210956.20345  22845000.0554                   22845000.7274
  -2667505.77047  -2058405.52346  21417291.6094                   21417291.2034
   5663951.87547   4423133.03543  23990998.9144                   23991004.5944
   -955611.01648   -736939.57046  21653670.0234                   21653670.4144
 -21358122.96947 -16635890.10546  20109260.1644                   20109260.1454
   3882176.67246   3026575.07843  24323928.4694                   24323930.9264
 11  9 24 19 47 30.0000000  0  7G09G02G17G10G28G04G20
  -2429420.84047  -1882327.25845  22455481.4844                   22455483.3714
  -2966654.82847  -2300948.84045  22823023.1254                   22823023.1914
  -2667024.16447  -2058030.28146  21417383.6254                   21417383.4184
   5541308.21547   4327566.72743  23967660.7504                   23967666.3324
   -945861.04748   -729342.25846  21655525.6564                   21655525.5044
 -21416271.35947 -16681200.51246  20098194.4304                   20098194.8524
   3879445.28946   3024446.69143  24323408.6334                   24323411.4574
 11  9 24 19 48  0.0000000  0  7G09G02G17G10G28G04G20
  -2501951.77047  -1938844.83645  22441679.6484                   22441680.8094
  -3081887.44947  -2390740.36345  22801094.9774                   22801095.3984
  -2666442.23847  -2057576.85246  21417494.3754                   21417493.7274
   5418653.89547   4231992.12943  23944319.9924                   23944326.8714
   -935739.48448   -721455.38346  21657451.8364                   21657451.7194
 -21473844.98848 -16726063.05946  20087238.9144                   20087238.8324
   3877213.58246   3022707.64543  24322984.5634                   24322986.5784
 11  9 24 19 48 30.0000000  0  7G09G02G17G10G28G04G20
  -2573873.71147  -1994887.87145  22427993.2114                   22427994.5124
  -3196862.68747  -2480331.34045  22779215.9144                   22779216.3754
  -2665762.61348  -2057047.30146  21417623.6094                   21417623.3674
   5295990.25446   4136410.29744  23920976.9534                   23920983.9614
   -925247.63348   -713279.97346  21659448.1024                   21659447.8094
 -21530845.50448 -16770479.02346  20076392.2584                   20076391.8674
   3875479.23445   3021356.18043  24322653.3054                   24322656.9384
 11  9 24 19 49  0.0000000  0  7G09G02G17G10G28G04G20
  -2645185.80947  -2050455.71945  22414422.4614                   22414424.4924
  -3311579.10547  -2569720.63745  22757386.0314                   22757386.0434
  -2664985.60948  -2056441.86746  21417771.4534                   21417771.0664
   5173319.76646   4040823.12143  23897633.8444                   23897640.6804
   -914385.37548   -704815.93446  21661515.1884                   21661515.4734
 -21587272.98448 -16814448.46946  20065654.3594                   20065654.0824
   3874242.08245   3020392.10543  24322417.4774                   24322421.0944
 11  9 24 19 49 30.0000000  0  7G09G02G17G10G28G04G20
  -2715885.10947  -2105546.05545  22400969.5704                   22400970.7504
  -3426033.63347  -2658905.87145  22735606.1484                   22735606.4064
  -2664110.53548  -2055760.01646  21417938.0084                   21417937.6254
   5050647.09046   3945234.27043  23874289.9694                   23874296.2934
   -903150.66048   -696061.67646  21663653.1094                   21663653.1564
 -21643125.40248 -16857969.81246  20055026.0394                   20055025.8094
   3873503.19146   3019816.30943  24322278.1564                   24322280.8674
 11  9 24 19 50  0.0000000  0  7G09G02G17G10G28G04G20
  -2785968.98047  -2160156.84445  22387632.7814                   22387633.9804
  -3540223.67247  -2747885.00445  22713876.4304                   22713875.8954
  -2663136.91848  -2055001.38346  21418123.4614                   21418122.8244
   4927976.17246   3849646.79344  23850946.7894                   23850952.6254
   -891542.27048   -687016.24646  21665862.3284                   21665862.4844
 -21698401.78548 -16901042.30146  20044507.3204                   20044506.9454
   3873263.50046   3019629.48443  24322232.3754                   24322235.3164
 11  9 24 19 50 30.0000000  0  7G09G02G17G10G28G04G20
  -2855438.48447  -2214288.90245  22374413.1954                   22374414.3984
  -3654150.00047  -2836658.65245  22692196.7274                   22692196.3754
  -2662067.41048  -2054168.02046  21418327.0234                   21418326.3714
   4805308.10246   3754061.52744  23827603.2274                   23827609.3914
   -879561.88348   -677680.95345  21668142.2194                   21668142.0314
 -21753104.03548 -16943667.41446  20034097.5864                   20034097.3914
   3873519.68846   3019829.08243  24322281.2194                   24322283.8054
 11  9 24 19 51  0.0000000  0  7G09G02G17G10G28G04G20
  -2924292.46947  -2267941.34045  22361310.4454                   22361311.8834
  -3767810.84447  -2925225.44145  22670567.7274                   22670567.6414
  -2660902.30548  -2053260.17246  21418548.2344                   21418548.0434
   4682645.78146   3658480.76243  23804260.9534                   23804267.2584
   -867209.05148   -668055.44146  21670493.0004                   21670493.0514
 -21807231.68048 -16985844.78546  20023797.6254                   20023797.6484
   3874271.91846   3020415.19543  24322424.4454                   24322427.1294
 11  9 24 19 51 30.0000000  0  7G09G02G17G10G28G04G20
  -2992529.43747  -2321112.99245  22348325.3204                   22348326.9924
  -3881204.67247  -3013584.15245  22648989.8134                   22648989.6954
  -2659642.18448  -2052278.28946  21418788.6564                   21418787.9184
   4559992.48446   3562906.99244  23780920.9774                   23780926.7384
   -854483.18048   -658139.25446  21672914.7194                   21672914.5594
 -21860784.55948 -17027574.28146  20013606.5004                   20013606.7074
   3875519.94946   3021387.66043  24322661.6564                   24322665.0204
 11  9 24 19 52  0.0000000  0  7G09G02G17G10G28G04G20
  -3060149.98447  -2373804.30545  22335457.4384                   22335458.7504
  -3994331.60547  -3101734.91445  22627462.0164                   22627461.9694
  -2658288.98847  -2051223.87946  21419046.0554                   21419045.3014
   4437349.66047   3467341.36344  23757582.8834                   23757588.5664
   -841385.25848   -647933.16846  21675407.0084                   21675407.1764
 -21913764.09048 -17068857.02346  20003524.9694                   20003525.0594
   3877261.65646   3022744.80543  24322992.8524                   24322996.2424
 11  9 24 19 52 30.0000000  0  7G09G02G17G10G28G04G20
  -3127149.18747  -2426011.45745  22322708.0864                   22322709.5594
  -4107186.37947  -3189673.59045  22605986.8674                   22605986.4534
  -2656839.52348  -2050094.45746  21419321.6644                   21419321.3364
   4314724.03947   3371789.14844  23734247.7344                   23734253.0474
   -827911.73848   -637434.40246  21677971.0394                   21677971.4654
 -21966166.60548 -17109690.14146  19993553.1484                   19993553.1054
   3879500.62946   3024489.39843  24323419.5084                   24323422.5124
 11  9 24 19 53  0.0000000  0  7G09G02G17G10G28G04G20
  -3193527.42247  -2477734.73845  22310076.7974                   22310078.1644
  -4219769.08247  -3277400.26245  22584562.3984                   22584562.3874
  -2655295.80947  -2048891.60246  21419616.0084                   21419615.2664
   4192117.08247   3276251.46544  23710916.2734                   23710921.3794
   -814063.70748   -626643.80945  21680606.4454                   21680606.7664
 -22017993.46948 -17150074.69546  19983690.9304                   19983690.9224
   3882234.47346   3026619.64143  24323939.7194                   24323942.5984
 11  9 24 19 53 30.0000000  0  7G09G02G17G10G28G04G20
  -3259282.07847  -2528972.11345  22297564.1884                   22297565.3634
  -4332076.75047  -3364912.62145  22563190.9534                   22563190.7934
  -2653656.79748  -2047614.47346  21419927.6414                   21419927.4384
   4069533.70347   3180732.15643  23687589.8204                   23687593.8164
   -799839.17648   -615559.84845  21683313.3284                   21683313.6214
 -22069243.16848 -17190009.50446  19973938.2814                   19973938.2384
   3885464.59446   3029136.58243  24324554.4774                   24324558.0824
 11  9 24 19 54  0.0000000  0  7G09G02G17G10G28G04G20
  -3324413.80547  -2579724.09445  22285170.0394                   22285171.3714
  -4444109.46147  -3452210.73045  22541871.8364                   22541871.7274
  -2651924.54348  -2046264.71146  21420257.1884                   21420256.4614
   3946974.98846   3085232.04743  23664266.7584                   23664271.4694
   -785239.70348   -604183.71545  21686091.6644                   21686091.9344
 -22119917.30948 -17229495.83247  19964295.3914                   19964295.1644
   3889188.64146   3032038.38343  24325263.4844                   24325266.4454
 11  9 24 19 54 30.0000000  0  7G09G02G17G10G28G04G20
  -3388921.16847  -2629989.55945  22272894.4144                   22272895.9104
  -4555865.35247  -3539293.14145  22520605.0634                   22520605.3244
  -2650098.93048  -2044842.18446  21420604.9844                   21420604.1024
   3824444.55546   2989753.96943  23640949.1644                   23640954.8134
   -770264.32448   -592514.67645  21688941.4774                   21688941.7894
 -22170015.44548 -17268533.32846  19954761.9774                   19954761.7934
   3893406.32446   3035324.82844  24326065.8054                   24326069.0824
 11  9 24 19 55  0.0000000  0  7G09G02G17G10G28G04G20
  -3452800.71947  -2679765.81245  22260738.7114                   22260740.0394
  -4667340.66847  -3626156.91045  22499392.1804                   22499392.2544
  -2648178.03148  -2043345.41046  21420970.1724                   21420969.6994
   3701948.07446   2894302.37543  23617639.0554                   23617644.6604
   -754910.51648   -580550.75445  21691862.8754                   21691863.3244
 -22219535.16048 -17307120.10246  19945338.8674                   19945338.5354
   3898119.81346   3038997.66843  24326962.6644                   24326965.4344
 11  9 24 19 55 30.0000000  0  7G09G02G17G10G28G04G20
  -3516052.55147  -2729052.94945  22248702.3674                   22248703.4574
  -4778534.89847  -3712801.66445  22478232.6804                   22478232.6374
  -2646163.32047  -2041775.53546  21421353.6334                   21421353.3444
   3579487.15246   2798878.48844  23594334.8054                   23594341.0864
   -739179.15248   -568292.62945  21694856.5634                   21694857.2194
 -22268477.50848 -17345256.98046  19936025.3524                   19936025.1914
   3903327.47746   3043055.50043  24327953.4774                   24327956.6054
 11  9 24 19 56  0.0000000  0  7G09G02G17G10G28G04G20
  -3578675.78547  -2777850.25445  22236785.5234                   22236787.0044
  -4889446.56247  -3799226.24245  22457126.4614                   22457126.2114
  -2644055.14548  -2040132.84046  21421754.5944                   21421754.6524
   3457065.40246   2703485.10944  23571039.1804                   23571044.9614
   -723069.59447   -555739.80545  21697922.4064                   21697922.6644
 -22316842.55948 -17382944.01246  19926821.7734                   19926821.2624
   3909028.28146   3047497.62144  24329038.5474                   24329041.5864
 11  9 24 19 56 30.0000000  0  7G09G02G17G10G28G04G20
  -3640668.28947  -2826156.08245  22224989.0004                   22224990.0664
  -5000073.61748  -3885429.04345  22436074.8284                   22436074.6254
  -2641852.77748  -2038416.74646  21422173.9144                   21422173.5824
   3334686.80546   2608125.36344  23547751.4694                   23547756.4574
   -706580.87948   -542891.53545  21701060.1484                   21701060.1844
 -22364629.42248 -17420180.51647  19917728.3754                   19917727.7464
   3915222.91046   3052324.55543  24330218.2114                   24330220.8674
 11  9 24 19 57  0.0000000  0  7G09G02G17G10G28G04G20
  -3702031.45347  -2873971.50445  22213311.7734                   22213313.2584
  -5110416.33248  -3971410.28945  22415077.2274                   22415077.1334
  -2639558.98048  -2036629.40246  21422610.3364                   21422609.7384
   3212352.31347   2512799.95344  23524472.3134                   23524477.2274
   -689714.87148   -529749.27345  21704269.6564                   21704269.8324
 -22411840.30548 -17456968.20346  19908744.3134                   19908744.0204
   3921908.50846   3057534.07043  24331489.6254                   24331492.5634
 11  9 24 19 57 30.0000000  0  7G09G02G17G10G28G04G20
  -3762762.14547  -2921294.10245  22201754.8204                   22201756.2504
  -5220471.14848  -4057167.18745  22394134.7114                   22394134.3914
  -2637171.98048  -2034769.43046  21423064.7664                   21423064.5704
   3090067.14847   2417513.00844  23501201.8984                   23501207.0234
   -672469.15647   -516311.14145  21707551.2974                   21707551.9264
 -22458473.07848 -17493305.40646  19899870.1804                   19899869.9924
   3929086.80146   3063127.48843  24332855.4144                   24332858.6644
 11  9 24 19 58  0.0000000  0  7G09G02G17G10G28G04G20
  -3822860.44147  -2968123.92645  22190318.8284                   22190320.4654
  -5330237.70348  -4142699.46545  22373246.7034                   22373246.1954
  -2634692.92248  -2032837.72346  21423536.4774                   21423536.0664
   2967833.68847   2322266.33644  23477940.6884                   23477946.8984
   -654844.53948   -502577.75845  21710905.1804                   21710905.6954
 -22504528.93448 -17529193.07446  19891106.2974                   19891105.8444
   3936756.33646   3069103.66443  24334315.1254                   24334318.0904
 11  9 24 19 58 30.0000000  0  7G09G02G17G10G28G04G20
  -3882326.15247  -3014460.82445  22179002.8594                   22179003.8714
  -5439715.02048  -4228006.37145  22352413.8364                   22352413.3594
  -2632122.55548  -2030834.87946  21424025.4924                   21424025.1684
   2845654.73447   2227062.10544  23454690.8674                   23454696.6214
   -636841.19548   -488549.26645  21714331.4224                   21714331.6454
 -22550008.40648 -17564631.61346  19882451.8444                   19882451.6604
   3944915.75446   3075461.58643  24335868.1174                   24335871.7034
 11  9 24 19 59  0.0000000  0  7G09G02G17G10G28G04G20
  -3941156.43447  -3060302.58245  22167807.8284                   22167809.4734
  -5548899.98047  -4313085.47345  22331636.2344                   22331635.7934
  -2629459.62948  -2028759.89846  21424532.4304                   21424532.0864
   2723534.91847   2131903.94544  23431452.9924                   23431457.3594
   -618457.06648   -474224.06245  21717829.9454                   21717830.1884
 -22594910.00848 -17599619.86346  19873907.3914                   19873906.7854
   3953566.10546   3082202.05543  24337514.3524                   24337517.3714
 11  9 24 19 59 30.0000000  0  7G09G02G17G10G28G04G20
  -3999350.54747  -3105648.62145  22156733.5004                   22156735.1914
  -5657791.13748  -4397935.62545  22310914.9774                   22310914.5044
  -2626704.29347  -2026612.91446  21425056.6414                   21425056.3874
   2601477.64547   2036794.54744  23408226.0634                   23408230.1644
   -599692.06248   -459602.05545  21721400.5704                   21721400.9104
 -22639233.79748 -17634157.87547  19865472.6334                   19865472.4494
   3962706.88746   3089324.69543  24339253.1334                   24339256.9884
 11  9 24 20  0  0.0000000  0  7G09G02G17G10G28G04G20
  -4056905.68747  -3150496.76245  22145781.2584                   22145782.8284
  -5766384.94948  -4482554.08645  22290250.1484                   22290249.5554
  -2623854.82448  -2024392.57446  21425599.3054                   21425598.6414
   2479488.10247   1941737.90244  23385011.7344                   23385016.2424
   -580543.82848   -444681.43745  21725044.5164                   21725044.9884
 -22682978.07048 -17668244.31247  19857148.4224                   19857148.1254
   3972339.19547   3096830.31643  24341087.3364                   24341089.8554
 11  9 24 20  0 30.0000000  0  7G09G02G17G10G28G04G20
  -4113824.47347  -3194849.03945  22134950.2814                   22134951.2154
  -5874683.44548  -4566942.43045  22269641.9694                   22269641.0664
  -2620914.64548  -2022101.56246  21426158.4384                   21426158.0514
   2357566.57447   1846734.27744  23361810.6254                   23361816.0004
   -561015.47348   -429464.62145  21728761.0314                   21728761.2114
 -22726146.18448 -17701881.79747  19848933.6254                   19848933.7194
   3982459.19946   3104715.96943  24343012.8754                   24343015.1644
 11  9 24 20  1  0.0000000  0  7G09G02G17G10G28G04G20
  -4170104.44147  -3238703.56245  22124240.1954                   22124241.5704
  -5982683.43747  -4651098.17245  22249089.5704                   22249089.4454
  -2617882.67648  -2019739.03546  21426735.7344                   21426735.1334
   2235717.62947   1751787.18444  23338623.4144                   23338627.9064
   -541105.38747   -413950.34845  21732550.0634                   21732550.1954
 -22768736.82448 -17735069.30146  19840829.2894                   19840828.7114
   3993067.98046   3112982.51643  24345031.5314                   24345034.0314
 11  9 24 20  1 30.0000000  0  7G09G02G17G10G28G04G20
  -4225744.44147  -3282059.40245  22113652.1024                   22113653.6724
  -6090382.85248  -4735019.69145  22228595.1724                   22228594.8984
  -2614758.35248  -2017304.53546  21427330.1644                   21427329.5664
   2113945.09046   1656899.63343  23315450.4614                   23315454.9144
   -520812.68448   -398137.94145  21736411.4454                   21736411.7934
 -22810749.73848 -17767806.63347  19832834.3054                   19832834.4064
   4004164.98846   3121629.45343  24347143.1254                   24347146.2624
 11  9 24 20  2  0.0000000  0  7G09G02G17G10G28G04G20
  -4280745.74247  -3324917.57445  22103186.1254                   22103187.5394
  -6197782.59048  -4818707.69945  22208157.5314                   22208157.3914
  -2611543.87548  -2014799.78946  21427941.8134                   21427941.4304
   1992250.53546   1562072.86743  23292292.8594                   23292297.6454
   -500139.32847   -382028.91445  21740345.2894                   21740345.6844
 -22852186.96948 -17800095.37946  19824948.9454                   19824948.8054
   4015747.76246   3130654.94943  24349347.3594                   24349350.2154
 11  9 24 20  2 30.0000000  0  7G09G02G17G10G28G04G20
  -4335106.78147  -3367276.83245  22092841.5474                   22092842.6684
  -6304880.25448  -4902160.32045  22187777.2734                   22187777.1764
  -2608238.62148  -2012224.31646  21428570.6954                   21428570.4694
   1870638.38346   1467310.32043  23269150.5394                   23269154.8984
   -479083.98047   -365622.23445  21744352.1094                   21744352.5634
 -22893047.99248 -17831935.13747  19817173.2344                   19817173.3524
   4027816.25446   3140058.87142  24351644.2504                   24351646.2664
 11  9 24 20  3  0.0000000  0  7G09G02G17G10G28G04G20
  -4388826.96547  -3409136.71945  22082619.0554                   22082619.8244
  -6411674.44548  -4985376.46145  22167454.8834                   22167454.7974
  -2604842.93748  -2009578.36746  21429216.6564                   21429217.0084
   1749111.43446   1372614.18044  23246025.2734                   23246029.2814
   -457646.65247   -348917.89845  21748431.5084                   21748432.2974
 -22933333.32448 -17863326.28946  19809507.2664                   19809506.9804
   4040369.74646   3149840.80943  24354032.9144                   24354035.6454
 11  9 24 20  3 30.0000000  0  7G09G02G17G10G28G04G20
  -4441905.75447  -3450496.80545  22072518.1024                   22072519.7344
  -6518163.83648  -5068355.09845  22147190.6804                   22147190.1684
  -2601356.94948  -2006862.04746  21429880.4694                   21429880.2814
   1627673.01647   1277987.00844  23222915.6954                   23222920.4964
   -435827.53147   -331916.05945  21752583.7034                   21752584.4344
 -22973043.10548 -17894268.96947  19801950.8984                   19801950.7734
   4053407.52046   3160000.09843  24356513.7504                   24356516.8984
 11  9 24 20  4  0.0000000  0  7G09G02G17G10G28G04G20
  -4494344.12947  -3491357.86345  22062539.5314                   22062541.0474
  -6624348.51248  -5151096.29345  22126984.2424                   22126984.0824
  -2597782.57048  -2004076.85946  21430560.5784                   21430560.4694
   1506324.75447   1183430.11344  23199823.6724                   23199828.8164
   -413628.07047   -314617.84845  21756807.8444                   21756808.3984
 -23012179.53548 -17924764.86747  19794503.6174                   19794503.1414
   4066926.87546   3170534.64542  24359085.5164                   24359089.3094
 11  9 24 20  4 30.0000000  0  7G09G02G17G10G28G04G20
  -4546141.34847  -3531719.33645  22052682.7814                   22052684.1914
  -6730227.03948  -5233598.94146  22106836.5944                   22106835.8054
  -2594119.62148  -2001222.65246  21431257.7734                   21431257.5944
   1385070.36347   1088946.37144  23176749.8674                   23176754.5394
   -391047.80147   -297022.90645  21761104.9224                   21761105.9104
 -23050742.54348 -17954813.95346  19787165.0084                   19787164.9064
   4080927.20346   3181444.00442  24361749.0004                   24361753.6414
 11  9 24 20  5  0.0000000  0  7G09G02G17G10G28G04G20
  -4597297.00847  -3571580.88345  22042948.1954                   22042949.6484
  -6835798.07848  -5315861.98846  22086746.7894                   22086746.1994
  -2590368.27748  -1998299.57446  21431971.8284                   21431971.4064
   1263912.87947    994538.12544  23153694.5164                   23153699.3754
   -368086.62147   -279131.14145  21765474.6174                   21765474.9264
 -23088732.63348 -17984416.60247  19779935.9064                   19779935.6094
   4095407.66846   3192727.45342  24364505.7584                   24364508.8484
 11  9 24 20  5 30.0000000  0  7G09G02G17G10G28G04G20
  -4647811.60947  -3610942.90245  22033335.3834                   22033337.0634
  -6941061.33648  -5397885.21146  22066715.8524                   22066715.3014
  -2586529.77748  -1995308.58246  21432701.9534                   21432701.9494
   1142854.75447    900207.29744  23130657.7274                   23130662.2704
   -344745.45747   -260943.30945  21769916.1484                   21769916.7274
 -23126151.24248 -18013573.94947  19772815.1804                   19772815.1564
   4110366.23446   3204383.39542  24367352.5004                   24367355.8594
 11  9 24 20  6  0.0000000  0  7G09G02G17G10G28G04G20
  -4697686.23047  -3649806.23445  22023844.4224                   22023846.2384
  -7046017.30548  -5479668.98846  22046743.3444                   22046742.8484
  -2582605.95348  -1992251.09446  21433448.7424                   21433448.6684
   1021897.69946    805955.23444  23107640.1174                   23107644.6334
   -321026.10947   -242460.78545  21774429.8284                   21774430.4844
 -23163000.54348 -18042287.67246  19765803.1644                   19765802.9534
   4125800.75846   3216410.30542  24370289.3364                   24370292.9844
 11  9 24 20  6 30.0000000  0  7G09G02G17G10G28G04G20
  -4746921.32047  -3688171.22345  22014475.5314                   22014476.9884
  -7150665.14548  -5561212.67246  22026829.5784                   22026829.3054
  -2578597.63748  -1989127.77046  21434211.5554                   21434211.3244
    901044.50046    711784.08244  23084642.0084                   23084646.8134
   -296929.09047   -223683.97345  21779015.6954                   21779016.0864
 -23199281.56248 -18070558.58646  19758899.1254                   19758898.5314
   4141709.30945   3228806.53542  24373315.2664                   24373320.1214
 11  9 24 20  7  0.0000000  0  7G09G02G17G10G28G04G20
  -4795518.28947  -3726038.99245  22005227.9534                   22005229.5314
  -7255005.46948  -5642516.73046  22006973.9304                   22006973.3364
  -2574506.89148  -1985940.20746  21434990.2194                   21434989.6844
    780296.28146    617694.75044  23061664.2504                   23061669.6724
   -272456.61747   -204614.60545  21783672.6644                   21783673.1644
 -23234997.08648 -18098388.85546  19752102.7344                   19752102.0594
   4158089.08645   3241569.95742  24376433.9224                   24376436.6804
 11  9 24 20  7 30.0000000  0  7G09G02G17G10G28G04G20
  -4843476.29747  -3763408.85545  21996101.9454                   21996103.0594
  -7359036.73048  -5723579.97746  21987177.7974                   21987176.5394
  -2570333.12548  -1982687.96546  21435784.3834                   21435784.2774
    659656.94146    523690.23844  23038707.7344                   23038711.8364
   -247607.87547   -185252.04345  21788400.9304                   21788401.7814
 -23270146.90248 -18125778.31246  19745413.9534                   19745413.4494
   4174939.46545   3254700.02342  24379640.1094                   24379643.5234
 11  9 24 20  8  0.0000000  0  7G09G02G17G10G28G04G20
  -4890794.35547  -3800280.05545  21987097.5864                   21987098.9384
  -7462756.72348  -5804400.66846  21967440.3834                   21967439.3524
  -2566076.25448  -1979370.95746  21436594.5164                   21436594.3874
    539130.50846    429773.71144  23015772.0234                   23015776.1954
   -222382.48447   -165595.98445  21793201.4224                   21793202.5354
 -23304730.82848 -18152726.81246  19738832.8054                   19738832.4844
   4192260.29745   3268196.71942  24382936.6254                   24382940.1414
 11  9 24 20  8 30.0000000  0  7G09G02G17G10G28G04G20
  -4937474.84847  -3836654.46545  21978214.0944                   21978215.8094
  -7566167.04348  -5884980.06245  21947761.5784                   21947760.9734
  -2561738.30148  -1975990.77746  21437419.6254                   21437419.4694
    418717.94546    335945.92244  22992857.8364                   22992862.5784
   -196782.91847   -145648.35545  21798073.0004                   21798073.6334
 -23338752.18748 -18179236.94546  19732358.9614                   19732358.3874
   4210047.78545   3282057.02042  24386322.1484                   24386324.8364
 11  9 24 20  9  0.0000000  0  7G09G02G17G10G28G04G20
  -4983515.71547  -3872530.44945  21969453.0554                   21969454.6054
  -7669264.53548  -5965315.69546  21928142.8674                   21928142.1454
  -2557317.94948  -1972546.37946  21438261.1024                   21438260.6604
    298424.14146    242210.65244  22969966.4844                   22969970.5044
   -170807.27047   -125407.69145  21803016.0394                   21803016.9844
 -23372209.59447 -18205307.64546  19725991.8134                   19725991.3754
   4228303.14546   3296281.96943  24389794.9774                   24389799.0514
 11  9 24 20  9 30.0000000  0  7G09G02G17G10G28G04G20
  -5028918.02347  -3907908.86345  21960813.1954                   21960815.0704
  -7772049.08648  -6045407.47346  21908583.8594                   21908582.9654
  -2552816.71948  -1969038.95746  21439117.6724                   21439117.5274
    178251.30546    148569.64844  22947098.0784                   22947102.8284
   -144457.07047   -104875.16045  21808030.9454                   21808031.0704
 -23405104.76648 -18230940.23847  19719732.1644                   19719732.0944
   4247023.52346   3310869.19543  24393357.9614                   24393361.1414
 11  9 24 20 10  0.0000000  0  7G09G02G17G10G28G04G20
  -5073682.55147  -3942790.30545  21952294.6414                   21952296.4064
  -7874520.43048  -6125255.19546  21889083.7664                   21889083.1414
  -2548235.84048  -1965469.48046  21439989.5474                   21439989.2774
     58201.94946     55024.85544  22924253.3594                   22924257.7734
   -117733.24647    -84051.50845  21813115.6724                   21813116.7624
 -23437439.70748 -18256136.28547  19713578.9774                   19713578.7304
   4266207.20746   3325817.43443  24397009.1644                   24397012.3324
 11  9 24 20 10 30.0000000  0  7G09G02G17G10G28G04G20
  -5117806.30547  -3977172.44945  21943898.5864                   21943899.5044
  -7976674.80948  -6204855.92246  21869644.4064                   21869643.6024
  -2543572.65248  -1961835.85546  21440877.2194                   21440876.7114
    -61717.93746    -38419.04344  22901433.9064                   22901437.6254
    -90633.19947    -62934.67645  21818272.8134                   21818273.5634
 -23469212.25848 -18280894.10947  19707533.0394                   19707532.4264
   4285855.60946   3341127.86343  24400747.5944                   24400750.6054
 11  9 24 20 11  0.0000000  0  7G09G02G17G10G28G04G20
  -3585873.12147  -2783458.27045  22235415.8364                   22235417.0354
  -6503093.20348  -5056610.44546  22150057.7584                   22150057.0204
   -963412.64848   -730542.38346  21741571.4384                   21741571.1564
   1393912.99247   1095838.97744  23178430.8524                   23178434.6024
   1512256.18447   1186069.93045  22123292.8524                   22123293.3794
 -21925007.73048 -17077617.84846  20001385.3984                   20001384.9064
   5881381.46146   4584394.67243  24704366.1644                   24704370.2384
 11  9 24 20 11 30.0000000  0  7G09G02G17G10G28G04G20
  -3628725.32847  -2816849.60545  22227261.4614                   22227262.2704
  -6604620.67247  -5135722.68046  22130737.7584                   22130736.6454
   -958595.09848   -726788.48446  21742488.2424                   21742488.0044
   1274251.37147   1002596.29344  23155660.1724                   23155663.2114
   1540097.46147   1207764.34045  22128590.8054                   22128591.8834
 -21955668.15648 -17101509.08646  19995550.7894                   19995550.5354
   5901946.03146   4600418.98843  24708279.9774                   24708282.6134
 11  9 24 20 12  0.0000000  0  6G09G02G17G10G28G04
  -3670943.27047  -2849746.69545  22219227.3524                   22219228.6024
  -6705833.73848  -5214589.92246  22111477.4454                   22111476.3594
   -953701.82048   -722975.57446  21743419.4924                   21743419.4614
   1154722.55947    909457.12144  23132914.0944                   23132917.9964
   1568307.93847   1229746.43045  22133959.3204                   22133960.1724
 -21985774.91048 -17124968.89146  19989821.6484                   19989821.4734
 11  9 24 20 12 30.0000000  0  6G09G02G17G10G28G04
  -3712526.08247  -2882148.89545  22211314.4694                   22211315.3834
  -6806730.83648  -5293210.96146  22092277.3364                   22092276.4534
   -948731.98848   -719103.01646  21744365.1644                   21744364.9574
   1035330.70346    816424.64544  23110194.9924                   23110198.4384
   1596888.25447   1252016.69945  22139397.8914                   22139398.9804
 -22015327.87948 -17147997.18047  19984197.8204                   19984197.6094
 11  9 24 20 13  0.0000000  0  7G09G12G02G17G10G28G04
  -3753466.56647  -2914050.58245  22203523.5784                   22203525.4224
  12450701.80156   9712163.29353  24773696.5704                   24773699.6844
  -6907303.77748  -5371579.41046  22073138.8054                   22073138.2974
   -943678.84447   -715165.54746  21745326.6724                   21745326.7584
    916086.25046    723507.04344  23087503.3524                   23087506.9064
   1625845.19147   1274580.44945  22144908.2194                   22144909.2814
 -22044320.88348 -17170589.12946  19978680.6414                   19978680.3674
 11  9 24 20 13 30.0000000  0  7G09G12G02G17G10G28G04
  -3793766.13747  -2945452.85245  22195855.2114                   22195856.1844
  12324357.57446   9613713.36743  24749653.7734                   24749657.0824
  -7007552.93748  -5449695.56646  22054061.7344                   22054060.9774
   -938543.87548   -711164.30946  21746303.6724                   21746303.8444
    796991.52046    630706.10544  23064839.9774                   23064843.8634
   1655177.23847   1297436.48845  22150490.0084                   22150491.2384
 -22072756.14848 -17192746.47747  19973269.8204                   19973269.4344
 11  9 24 20 14  0.0000000  0  7G09G12G02G17G10G28G04
  -3833430.48847  -2976360.15645  22188307.1334                   22188308.3674
  12197985.81346   9515241.95343  24725606.0864                   24725609.2624
  -7107482.18448  -5527562.44146  22035046.1334                   22035045.4264
   -933332.45748   -707103.51246  21747295.6334                   21747295.2624
    678044.00046    538019.88744  23042204.6174                   23042208.8244
   1684878.39847   1320580.14545  22156141.8984                   22156143.0234
 -22100640.11348 -17214474.23447  19967963.8524                   19967963.4924
 11  9 24 20 14 30.0000000  0  7G09G12G02G17G10G28G04
  -3872464.73047  -3006776.46545  22180878.8594                   22180880.3554
  12071583.34446   9416746.59843  24701552.6804                   24701555.2854
  -7207096.41048  -5605183.84446  22016090.0784                   22016088.8754
   -928049.71948   -702987.14146  21748301.0314                   21748300.7974
    559242.30546    445447.29744  23019597.1644                   23019601.3634
   1714943.75847   1344007.59845  22161863.4924                   22161864.6294
 -22127978.50848 -17235776.88347  19962761.3914                   19962760.7854
 11  9 24 20 15  0.0000000  0  7G09G12G02G17G10G28G04
  -3910870.60247  -3036703.13345  22173570.5634                   22173572.2624
  11945150.16046   9318227.36743  24677492.8984                   24677496.1724
  -7306395.62148  -5682559.78146  21997193.7504                   21997192.9924
   -922697.58647   -698816.69946  21749319.4454                   21749319.3244
    440587.94946    352989.52044  22997017.9694                   22997021.8714
   1745371.12547   1367717.13345  22167653.6094                   22167654.7034
 -22154774.09848 -17256656.56647  19957662.1414                   19957661.7544
 11  9 24 20 15 30.0000000  0  7G09G12G02G17G10G28G04
  -3948647.24247  -3066139.49645  22166382.1484                   22166383.5434
  11818688.84846   9219686.17643  24653428.3914                   24653431.0044
  -7405377.96548  -5759688.81246  21978358.2584                   21978357.6454
   -917275.11747   -694591.44146  21750351.7344                   21750351.2814
    322085.04746    260649.74644  22974467.4844                   22974471.4774
   1776161.05947   1391709.18045  22173512.8984                   22173513.6994
 -22181026.73048 -17277113.16447  19952666.6564                   19952666.4614
 11  9 24 20 16  0.0000000  0  7G09G12G02G17G10G28G04
  -3985792.60947  -3095083.95345  22159313.7974                   22159314.7464
  11692203.61746   9121126.39843  24629358.2504                   24629361.9844
  -7504039.30148  -5836567.70746  21959583.4844                   21959582.3594
   -911779.65247   -690309.30946  21751396.9534                   21751396.9774
    203739.77747    168432.80944  22951946.8834                   22951951.0594
   1807316.01647   1415985.65645  22179441.5864                   22179442.3444
 -22206734.86348 -17297145.47747  19947774.5394                   19947774.0634
 11  9 24 20 16 30.0000000  0  7G09G12G02G17G10G28G04
  -4022304.39147  -3123534.71945  22152365.8134                   22152367.0664
  11565698.37546   9022550.95343  24605285.3204                   24605288.3594
  -7602377.00448  -5913194.42246  21940870.4534                   21940869.8554
   -906209.10247   -685968.66846  21752457.4534                   21752457.2814
     85557.63347     76342.98044  22929458.4694                   22929461.3484
   1838837.71947   1440547.90645  22185439.6884                   22185441.3244
 -22231897.22748 -17316752.52047  19942986.2894                   19942985.7344
 11  9 24 20 17  0.0000000  0  7G09G12G02G17G10G28G04
  -4058183.96547  -3151492.83245  22145537.9924                   22145539.5044
  11439173.93446   8923960.62543  24581208.1804                   24581211.8714
  -7700390.94548  -5989568.84846  21922218.9224                   21922217.9804
   -900564.51648   -681570.32846  21753531.1954                   21753531.4024
    -32459.09847    -15617.95744  22906999.9694                   22907003.4384
   1870724.92647   1465394.97345  22191507.9144                   22191509.0594
 -22256515.92648 -17335935.92247  19938301.4144                   19938301.0274
 11  9 24 20 17 30.0000000  0  7G09G12G02G17G10G28G04
  -4093432.44547  -3178959.19545  22138830.6884                   22138832.0124
  11312631.22346   8825355.98443  24557128.2584                   24557131.7974
  -7798080.62148  -6065690.60246  21903629.0634                   21903628.3134
   -894846.56247   -677114.82046  21754619.4844                   21754619.6214
   -150307.53547   -107447.78144  22884573.9614                   22884577.9694
   1902976.25047   1490525.76245  22197645.4614                   22197646.5514
 -22280592.44148 -17354696.84847  19933719.8204                   19933719.5394
 11  9 24 20 18  0.0000000  0  7G09G12G02G17G10G28G04
  -4128048.36347  -3205932.64545  22132243.0004                   22132244.5204
  11186073.98846   8726740.09444  24533044.9224                   24533048.6054
  -7895443.46548  -6141557.68446  21885101.8204                   21885100.6484
   -889053.51647   -672600.79746  21755721.4774                   21755721.8984
   -267982.82047   -199142.66044  22862181.6804                   22862184.5944
   1935593.46947   1515941.66445  22203852.0634                   22203853.0124
 -22304126.24248 -17373034.87147  19929241.3594                   19929241.2584
 11  9 24 20 18 30.0000000  0  7G09G12G02G17G10G28G04
  -4162034.67247  -3232415.48845  22125775.9454                   22125777.6884
  11059501.18446   8628112.06644  24508959.1334                   24508962.4844
  -7992481.10248  -6217171.35946  21866635.5634                   21866634.7854
   -883187.97347   -668030.28546  21756837.9224                   21756838.0744
   -385484.14847   -290701.99644  22839821.5944                   22839824.0204
   1968573.71147   1541640.43445  22210128.3984                   22210129.3834
 -22327121.05548 -17390952.91047  19924865.8054                   19924865.7274
 11  9 24 20 19  0.0000000  0  7G09G12G02G17G10G28G04
  -4195390.90247  -3258407.36345  22119428.1884                   22119429.8554
  10932915.87146   8529474.27044  24484870.5474                   24484873.5354
  -8089191.07448  -6292529.70746  21848232.4384                   21848231.4694
   -877248.73047   -663402.34846  21757968.2504                   21757968.3204
   -502806.86747   -382122.15644  22817495.6024                   22817498.0984
   2001917.58647   1567622.56645  22216473.2664                   22216474.8284
 -22349576.55148 -17408450.69547  19920592.3284                   19920592.0554
 11  9 24 20 19 30.0000000  0  7G09G12G02G17G10G28G04
  -4228117.37947  -3283908.52345  22113200.5864                   22113202.2154
  10806319.68046   8430828.00444  24460779.7664                   24460783.2774
  -8185573.02048  -6367632.44946  21829891.8524                   21829890.7894
   -871236.09448   -658717.21146  21759112.5784                   21759112.6214
   -619947.74647   -473400.61344  22795204.0554                   22795206.6454
   2035624.40247   1593887.50045  22222887.4304                   22222889.3954
 -22371494.05548 -17425529.27047  19916421.7584                   19916421.5824
 11  9 24 20 20  0.0000000  0  7G09G12G02G17G10G28G04
  -4260217.32447  -3308921.46545  22107092.0704                   22107093.4884
  10679712.01646   8332172.81643  24436687.0084                   24436689.8524
  -8281628.34848  -6442480.68746  21811613.0234                   21811611.6764
   -865152.77047   -653977.00446  21760270.3054                   21760270.2894
   -736906.17247   -564536.89544  22772947.6884                   22772950.6024
   2069690.94947   1620432.73045  22229370.5474                   22229371.8484
 -22392877.52748 -17442191.71147  19912352.5234                   19912352.0904
 11  9 24 20 20 30.0000000  0  7G09G12G02G17G10G28G04
  -4291690.75847  -3333446.22745  22101102.8984                   22101104.6604
  10553094.77346   8233510.14144  24412592.5784                   24412596.0164
  -8377356.03548  -6517073.62146  21793396.3204                   21793395.2464
   -858998.34448   -649181.37946  21761441.0164                   21761441.5434
   -853678.29347   -655528.01644  22750726.2274                   22750729.4774
   2104117.22347   1647258.28545  22235921.4774                   22235923.1914
 -22413727.61348 -17458438.52347  19908384.7664                   19908384.6804
 11  9 24 20 21  0.0000000  0  7G09G12G02G17G10G28G04
  -4322534.01647  -3357479.94545  22095233.7194                   22095235.0984
  10426473.83647   8134844.61344  24388497.6094                   24388500.2704
  -8472750.66848  -6591407.03946  21775243.3284                   21775242.2544
   -852768.49648   -644326.98846  21762626.4534                   21762626.8834
   -970256.87147   -746368.30944  22728542.0394                   22728545.1134
   2138906.96947   1674367.05145  22242541.9614                   22242543.4804
 -22434041.53948 -17474267.55947  19904519.3984                   19904519.4024
 11  9 24 20 21 30.0000000  0  7G09G12G02G17G10G28G04
  -4352750.15647  -3381025.00445  22089483.9144                   22089485.4344
  10299848.97746   8036176.03544  24364401.0474                   24364404.2814
  -8567814.01648  -6665482.30546  21757153.2504                   21757152.0124
   -846465.20347   -639415.37146  21763826.1334                   21763826.6724
  -1086640.50447   -837056.71544  22706394.7344                   22706398.2464
   2174057.36347   1701756.85245  22249230.8834                   22249232.7664
 -22453822.56248 -17489681.34447  19900754.9694                   19900754.6914
 11  9 24 20 22  0.0000000  0  7G09G12G02G17G10G28G04
  -4382339.64547  -3404081.77045  22083853.2274                   22083854.2074
  10173221.55546   7937505.44544  24340304.7974                   24340307.5824
  -8662544.94548  -6739298.55546  21739126.8054                   21739125.4454
   -840089.16048   -634447.06246  21765039.6804                   21765039.9654
  -1202826.10947   -927590.81645  22684285.0704                   22684288.5124
   2209567.97747   1729427.33245  22255988.3984                   22255990.0434
 -22473071.98848 -17504680.89847  19897092.2584                   19897091.9884
 11  9 24 20 22 30.0000000  0  7G09G12G02G17G10G28G04
  -4411302.87947  -3426650.55145  22078341.7734                   22078343.1294
  10046594.23447   7838834.96144  24316208.6644                   24316211.5704
  -8756941.98048  -6812854.62146  21721163.7194                   21721162.1414
   -833639.42247   -629421.34846  21766266.8134                   21766267.1604
  -1318809.75047  -1017967.52745  22662214.1564                   22662217.5434
   2245438.86747   1757378.56645  22262814.7194                   22262816.3674
 -22491790.46948 -17519266.73047  19893529.8594                   19893529.9104
 11  9 24 20 23  0.0000000  0  7G09G12G02G17G10G28G04
  -4439640.68047  -3448731.97345  22072949.3204                   22072950.3014
   9919968.69547   7740165.83644  24292112.3204                   24292114.9924
  -8851004.82848  -6886150.28946  21703264.0554                   21703262.3874
   -827116.24248   -624338.39846  21767508.4224                   21767508.5274
  -1434588.24647  -1108184.41444  22640182.9064                   22640185.5204
   2281668.80147   1785609.55945  22269709.1094                   22269710.3444
 -22509979.57848 -17533440.06647  19890068.9064                   19890068.6644
 11  9 24 20 23 30.0000000  0  7G09G12G02G17G10G28G04
  -4467351.78147  -3470325.07445  22067675.8754                   22067677.7584
   9793348.12947   7641500.57444  24268017.0164                   24268019.6564
  -8944731.09048  -6959183.68046  21685428.1174                   21685427.0554
   -820518.53147   -619197.36746  21768763.9924                   21768764.1454
  -1550156.85247  -1198237.73445  22618190.1724                   22618193.4414
   2318258.87947   1814121.18845  22276672.0474                   22276673.6214
 -22527639.00848 -17547200.66447  19886708.2424                   19886708.3714
 11  9 24 20 24  0.0000000  0  7G09G12G02G17G10G28G04
  -4494435.62547  -3491429.40245  22062522.3444                   22062523.7814
   9666736.23047   7542842.07444  24243923.6254                   24243926.7934
  -9038118.04748  -7031952.67246  21667657.7114                   21667656.0514
   -813844.00048   -613996.48446  21770034.0474                   21770034.0664
  -1665510.58647  -1288123.63745  22596238.9924                   22596242.0124
   2355210.30147   1842914.38345  22283703.7114                   22283705.2774
 -22544768.55948 -17560548.37547  19883448.7894                   19883448.5704
 11  9 24 20 24 30.0000000  0  7G09G12G02G17G10G28G04
  -4520894.96947  -3512047.11345  22057487.1954                   22057488.4144
   9540132.80147   7444190.16043  24219831.7274                   24219833.8954
  -9131166.82048  -7104458.15246  21649950.4774                   21649949.6604
   -807094.54347   -608737.21546  21771318.5394                   21771318.7274
  -1780647.78947  -1377840.81645  22574328.9144                   22574332.4184
   2392520.61347   1871987.23845  22290804.0164                   22290805.1764
 -22561371.40648 -17573485.66447  19880289.3674                   19880289.1414
 11  9 24 20 25  0.0000000  0  7G09G12G02G17G10G28G04
  -4546732.91847  -3532180.61345  22052570.5634                   22052571.7154
   9413537.02746   7345544.22343  24195740.7894                   24195743.7624
  -9223879.37548  -7176701.64146  21632307.6564                   21632306.5314
   -800272.95347   -603421.73846  21772616.3134                   21772616.9494
  -1895567.67247  -1467388.64545  22552460.5554                   22552463.7584
   2430186.44547   1901337.11745  22297971.8444                   22297972.9964
 -22577451.34448 -17586015.50047  19877229.4304                   19877229.4184
 11  9 24 20 25 30.0000000  0  7G09G12G02G17G10G28G04
  -4571947.11347  -3551828.06245  22047772.3524                   22047773.7664
   9286954.36747   7246908.51643  24171653.5314                   24171655.4344
  -9316251.37148  -7248679.77046  21614730.0944                   21614729.0664
   -793375.60247   -598047.24246  21773928.9384                   21773929.4264
  -2010263.74247  -1556762.06244  22530634.0704                   22530637.0704
   2468210.81647   1930966.37145  22305207.0164                   22305209.0904
 -22593006.54748 -17598136.44947  19874269.2734                   19874269.0554
 11  9 24 20 26  0.0000000  0  7G09G12G02G17G10G28G04
  -4596541.30947  -3570992.39845  22043091.8054                   22043093.5004
   9160383.93847   7148282.32444  24147567.5164                   24147570.2384
  -9408285.06248  -7320394.27746  21597216.5084                   21597215.3634
   -786405.33247   -592615.92246  21775255.6724                   21775256.0044
  -2124735.43447  -1645960.65645  22508851.1954                   22508853.9304
   2506589.97747   1960872.09845  22312510.4064                   22312512.3134
 -22608041.14148 -17609851.73447  19871408.4774                   19871408.3794
 11  9 24 20 26 30.0000000  0  7G09G12G02G17G10G28G04
  -4620513.83247  -3589672.32045  22038530.3524                   22038532.0474
   9033829.71947   7049668.75444  24123485.1334                   24123487.4024
  -9499977.27048  -7391842.69146  21579768.2584                   21579766.7894
   -779359.75447   -587125.91046  21776596.1334                   21776596.6804
  -2238977.12547  -1734980.01245  22487111.3204                   22487114.8524
   2545325.73847   1991055.67645  22319882.1334                   22319883.8324
 -22622554.19548 -17621160.61347  19868646.6334                   19868646.5164
 11  9 24 20 27  0.0000000  0  7G09G12G02G17G10G28G04
  -4643864.59047  -3607867.74645  22034086.8834                   22034088.3834
   8907294.74247   6951070.18044  24099405.4614                   24099408.8954
  -9591326.02348  -7463023.47746  21562384.9304                   21562383.6414
   -772237.62147   -581576.25046  21777951.9844                   21777951.8794
  -2352984.23447  -1823816.57445  22465416.4304                   22465419.6334
   2584418.42247   2021517.37545  22327321.0234                   22327322.9264
 -22636546.29348 -17632063.56247  19865984.1174                   19865983.9224
 11  9 24 20 27 30.0000000  0  7G09G12G02G17G10G28G04
  -4666592.24647  -3625577.63345  22029761.7194                   22029763.6884
   8780783.37146   6852490.02743  24075331.6884                   24075334.5594
  -9682328.61748  -7533934.53146  21545067.4534                   21545066.5234
   -765036.52748   -575965.05946  21779322.0004                   21779322.1214
  -2466750.80547  -1912465.72745  22443766.9774                   22443769.9804
   2623869.65247   2052258.46145  22334828.5944                   22334830.4614
 -22650016.16448 -17642559.58247  19863420.8204                   19863420.7894
 11  9 24 20 28  0.0000000  0  7G09G12G02G17G10G28G04
  -4688697.42647  -3642802.48045  22025555.9614                   22025556.9614
   8654298.17647   6753930.22344  24051261.8984                   24051264.5234
  -9772983.43448  -7604574.60546  21527816.9774                   21527815.6024
   -757756.14547   -570292.08246  21780707.3984                   21780707.7704
  -2580273.38747  -2000924.75045  22422164.6954                   22422167.1914
   2663679.09047   2083278.68445  22342404.0394                   22342405.9414
 -22662965.14848 -17652649.71147  19860956.6644                   19860956.6724
 11  9 24 20 28 30.0000000  0  7G09G12G02G17G10G28G04
  -4710181.60547  -3659543.43445  22021467.0704                   22021468.2274
   8527840.14147   6655391.60944  24027197.9304                   24027200.3634
  -9863290.46548  -7674943.66046  21510631.5634                   21510630.3794
   -750396.65247   -564557.46946  21782107.8054                   21782108.2544
  -2693549.30547  -2089191.56245  22400608.6644                   22400611.7544
   2703845.69547   2114577.19945  22350047.5314                   22350049.5944
 -22675394.98048 -17662335.30947  19858591.2344                   19858591.2734
 11  9 24 20 29  0.0000000  0  7G09G12G02G17G10G28G04
  -4731044.37547  -3675800.16045  22017497.2114                   22017498.9384
   8401413.04347   6556877.09444  24003139.6024                   24003142.7624
  -9953247.50448  -7745040.00046  21493513.3674                   21493512.2154
   -742956.44547   -558759.96146  21783523.6884                   21783524.1844
  -2806573.65247  -2177262.34445  22379101.5394                   22379104.0234
   2744370.05547   2146154.48445  22357759.5944                   22357761.4024
 -22687305.76648 -17671616.46147  19856324.7584                   19856324.8714
 11  9 24 20 29 30.0000000  0  7G09G12G02G17G10G28G04
  -4751284.01247  -3691571.34045  22013645.7034                   22013647.4494
   8275021.48047   6458390.28544  23979087.8204                   23979090.7624
 -10042851.49248  -7814861.23446  21476462.2034                   21476460.7274
   -735432.76648   -552897.40646  21784955.5634                   21784955.7854
  -2919340.25047  -2265132.28545  22357641.5944                   22357644.8674
   2785254.18447   2178012.11345  22365539.7734                   22365541.3834
 -22698696.28548 -17680492.20347  19854157.2664                   19854157.3324
 11  9 24 20 30  0.0000000  0  7G09G12G02G17G10G28G04
  -4770903.60947  -3706859.38745  22009912.2344                   22009913.5634
   8148665.17247   6359930.92644  23955043.2504                   23955045.7344
 -10132103.34848  -7884408.09046  21459478.2734                   21459477.1024
   -727827.54348   -546971.30546  21786402.6564                   21786403.3914
  -3031847.96147  -2352800.49245  22336232.5084                   22336235.3594
   2826495.32447   2210147.92645  22373387.2424                   22373389.5004
 -22709570.15248 -17688965.36747  19852088.2424                   19852088.0824
 11  9 24 20 30 30.0000000  0  7G09G12G02G17G10G28G04
  -4789903.73447  -3721664.71545  22006296.9844                   22006298.7114
   8022346.90247   6261501.22744  23931005.6254                   23931008.1524
 -10221001.80148  -7953679.55946  21442561.3054                   21442559.7774
   -720140.13748   -540981.16846  21787865.5314                   21787865.9384
  -3144092.84447  -2440263.90245  22314872.2894                   22314875.6524
   2868093.03947   2242561.59445  22381303.3054                   22381305.4534
 -22719928.32848 -17697036.68047  19850116.9614                   19850116.6644
 11  9 24 20 31  0.0000000  0  7G09G12G02G17G10G28G04
  -4808282.27047  -3735985.68445  22002799.2194                   22002801.3954
   7896072.09047   6163105.37944  23906976.0474                   23906978.7774
 -10309543.34048  -8022672.91446  21425712.4384                   21425710.9344
   -712367.18448   -534924.37146  21789345.1564                   21789345.3794
  -3256068.04347  -2527517.18045  22293564.3284                   22293567.4654
   2910050.06347   2275255.24244  22389287.4534                   22389289.7384
 -22729768.91848 -17704704.68447  19848244.1724                   19848243.9614
 11  9 24 20 31 30.0000000  0  7G09G12G02G17G10G28G04
  -4826042.80147  -3749825.10545  21999420.1024                   21999421.7344
   7769840.09447   6064742.88344  23882955.3594                   23882957.8714
 -10397729.48448  -8091389.34846  21408930.6804                   21408929.7814
   -704510.66848   -528802.45346  21790840.3914                   21790840.5634
  -3367772.81247  -2614559.73845  22272306.9144                   22272310.1334
   2952363.14847   2308226.32844  22397339.0784                   22397341.3164
 -22739096.04748 -17711972.59047  19846469.5634                   19846469.3914
 11  9 24 20 32  0.0000000  0  7G09G12G02G17G10G28G04
  -4843186.87947  -3763184.16845  21996157.2894                   21996159.0944
   7643652.62546   5966415.10544  23858942.1724                   23858944.8164
 -10485559.85248  -8159828.54346  21392217.7034                   21392216.2304
   -696570.62547   -522615.44946  21792351.0634                   21792351.3914
  -3479204.38747  -2701389.40645  22251102.9144                   22251105.6214
   2995031.09447   2341473.94544  22405459.0474                   22405461.2934
 -22747911.57848 -17718841.84047  19844792.0554                   19844791.8914
 11  9 24 20 32 30.0000000  0  7G09G12G02G17G10G28G04
  -4859715.66447  -3776063.77745  21993011.7974                   21993013.9064
   7517511.83646   5868123.70344  23834938.3984                   23834940.8674
 -10573033.91048  -8227990.10246  21375571.6174                   21375570.1294
   -688547.00048   -516363.32446  21793878.1254                   21793878.4654
  -3590358.79747  -2788003.12945  22229950.8754                   22229953.6214
   3038053.16847   2374997.50444  22413646.3444                   22413647.9414
 -22756217.09048 -17725313.68047  19843211.3204                   19843211.4104
 11  9 24 20 33  0.0000000  0  7G09G12G02G17G10G28G04
  -4875631.59847  -3788465.84045  21989983.6024                   21989984.9534
   7391418.46146   5769869.23844  23810943.7114                   23810946.2384
 -10660152.27348  -8295874.49246  21358993.4064                   21358992.4144
   -680441.28547   -510047.22346  21795420.3914                   21795420.8554
  -3701234.54747  -2874399.70345  22208851.9064                   22208854.4884
   3081427.19147   2408795.29744  22421900.3914                   22421901.5004
 -22764015.56648 -17731390.42247  19841727.6334                   19841727.2854
 11  9 24 20 33 30.0000000  0  7G09G12G02G17G10G28G04
  -4890936.04747  -3800391.41845  21987071.1414                   21987072.8594
   7265374.61746   5671653.35944  23786958.2114                   23786960.5554
 -10746914.29348  -8363481.21146  21342483.1724                   21342481.6954
   -672252.88748   -503666.69946  21796978.7734                   21796979.1954
  -3811828.05147  -2960576.35545  22187806.5164                   22187809.6134
   3125152.40247   2442866.75044  22430221.0004                   22430222.3874
 -22771308.50848 -17737073.23847  19840339.6024                   19840339.4734
 11  9 24 20 34  0.0000000  0  7G09G12G02G17G10G28G04
  -4905630.35547  -3811841.56645  21984275.3674                   21984276.3834
   7139382.15646   5573477.52044  23762982.5784                   23762985.3484
 -10833319.52048  -8430809.91446  21326041.1174                   21326039.9024
   -663981.64547   -497221.61346  21798552.7274                   21798553.1484
  -3922135.87947  -3046530.41445  22166815.8054                   22166818.3364
   3169227.65647   2477210.96145  22438608.1644                   22438609.8404
 -22778097.53548 -17742363.40647  19839047.5554                   19839047.6724
 11  9 24 20 34 30.0000000  0  7G09G12G02G17G10G28G04
  -4919716.10947  -3822817.52045  21981594.3834                   21981596.1334
   7013443.04747   5475343.25844  23739016.7664                   23739019.0634
 -10919367.47348  -8497860.21946  21309666.4144                   21309664.9964
   -655627.69548   -490712.10246  21800142.0784                   21800143.1684
  -4032155.00047  -3132259.50845  22145879.2734                   22145882.1604
   3213652.18847   2511827.34045  22447061.9924                   22447064.0514
 -22784384.69148 -17747262.49647  19837851.4534                   19837851.6454
 11  9 24 20 35  0.0000000  0  7G09G12G02G17G10G28G04
  -4933194.89547  -3833320.53545  21979029.7424                   21979031.6174
   6887558.98446   5377251.83644  23715061.8364                   23715064.3054
 -11005057.84048  -8564631.91046  21293360.0944                   21293358.6024
   -647191.42647   -484138.46946  21801747.8204                   21801748.3094
  -4141882.43047  -3217761.34045  22124998.9384                   22125001.2584
   3258424.46547   2546714.64545  22455581.9534                   22455584.5474
 -22790171.90648 -17751772.05147  19836749.9224                   19836749.8834
 11  9 24 20 35 30.0000000  0  7G09G12G02G17G10G28G04
  -4946068.06647  -3843351.64145  21976579.6414                   21976581.3954
   6761731.93446   5279204.82044  23691117.6414                   23691119.7664
 -11090390.38748  -8631124.77746  21277121.8444                   21277120.4804
   -638672.51248   -477500.43046  21803368.8834                   21803369.3984
  -4251315.05147  -3303033.44945  22104174.7114                   22104177.2154
   3303543.54347   2581872.18445  22464168.4064                   22464170.7774
 -22795461.05948 -17755893.49646  19835743.3754                   19835743.7584
 11  9 24 20 36  0.0000000  0  7G09G12G02G17G10G28G04
  -4958338.09047  -3852912.73445  21974245.0944                   21974246.8554
   6635963.38746   5181203.45344  23667184.6724                   23667186.6214
 -11175365.43748  -8697339.05946  21260951.3984                   21260950.2934
   -630071.48448   -470798.38746  21805005.7584                   21805006.3674
  -4360450.25447  -3388073.78945  22083406.9304                   22083409.6604
   3349007.78947   2617298.69545  22472819.7424                   22472822.5354
 -22800254.69548 -17759628.81647  19834831.6254                   19834831.4774
 11  9 24 20 36 30.0000000  0  7G09G12G02G17G10G28G04
  -4970005.43747  -3862004.21545  21972024.9064                   21972026.4264
   6510256.21146   5083249.88744  23643263.2344                   23643266.0474
 -11259981.36348  -8763273.50446  21244849.6804                   21244848.4574
   -621387.28948   -464031.54746  21806658.2504                   21806658.8284
  -4469283.93447  -3472879.17245  22062696.2274                   22062698.9304
   3394817.14847   2652994.13345  22481537.4224                   22481540.1134
 -22804553.30548 -17762978.40646  19834013.2894                   19834013.5434
 11  9 24 20 37  0.0000000  0  7G09G12G02G17G10G28G04
  -4981071.93047  -3870627.48445  21969919.1644                   21969920.5164
   6384611.91446   4985345.30144  23619353.6724                   23619355.5904
 -11344237.85548  -8828927.86346  21228816.0474                   21228814.6214
   -612619.63348   -457199.67646  21808326.9064                   21808327.4184
  -4577812.73447  -3557447.00045  22042044.0084                   22042046.8134
   3440970.48447   2688957.60945  22490319.7814                   22490322.5314
 -22808359.12148 -17765943.99647  19833289.5164                   19833289.3984
 11  9 24 20 37 30.0000000  0  7G09G12G02G17G10G28G04
  -3416119.22347  -2651183.86345  22267719.8834                   22267721.4844
   7834456.96547   6115094.78544  23895250.2114                   23895252.3484
  -9852712.47348  -7666700.24646  21512644.0784                   21512642.8674
    971650.43848    777296.41846  22109803.2274                   22109803.6374
  -3110610.28147  -2414172.27745  22321243.2894                   22321245.9614
   5062884.73847   3952786.72344  22798959.5004                   22798962.9064
 -21236254.36348 -16540927.32047  20132450.8984                   20132450.9384
 11  9 24 20 38  0.0000000  0  7G09G12G02G17G10G28G04
  -3425988.86747  -2658874.53545  22265841.5084                   22265843.1054
   7708945.48047   6017293.71944  23871365.4384                   23871368.7704
  -9936249.55548  -7731794.03146  21496747.4614                   21496746.0164
    980584.83248    784258.22746  22111503.8754                   22111503.9654
  -3218520.16047  -2498257.81645  22300708.5314                   22300711.3164
   5109722.29747   3989283.35244  22807872.7504                   22807875.9454
 -21239080.20748 -16543129.29347  20131913.1254                   20131913.1684
 11  9 24 20 38 30.0000000  0  7G09G12G02G17G10G28G04
  -3435263.01647  -2666101.18445  22264076.9144                   22264078.1884
   7583502.82847   5919546.30544  23847495.1724                   23847497.4144
 -10019426.55948  -7796607.23846  21480919.2114                   21480917.8794
    989602.33648    791284.79346  22113220.0004                   22113220.0274
  -3326116.18447  -2582098.77345  22280233.8594                   22280236.1134
   5156899.93047   4026044.97344  22816850.3524                   22816853.1214
 -21241419.50448 -16544952.14547  20131467.8914                   20131467.7774
 11  9 24 20 39  0.0000000  0  7G09G12G02G17G10G28G04
  -3443942.82047  -2672864.68745  22262425.0474                   22262426.5474
   7458131.46947   5821854.42644  23823636.8204                   23823640.0204
 -10102242.86748  -7861139.37946  21465159.7894                   21465158.4104
    998703.65647    798376.68046  22114951.6644                   22114952.3244
  -3433394.84047  -2665692.42645  22259819.4304                   22259822.1764
   5204417.17247   4063071.22744  22825892.9064                   22825895.4144
 -21243273.59048 -16546396.90647  20131115.1024                   20131115.0234
 11  9 24 20 39 30.0000000  0  7G09G12G02G17G10G28G04
  -3452030.51247  -2679166.82445  22260886.2194                   22260887.7194
   7332833.27347   5724219.59844  23799793.5234                   23799795.7304
 -10184698.51248  -7925390.48046  21449468.8134                   21449467.0944
   1007888.40247    805533.57046  22116699.7034                   22116699.9574
  -3540353.04347  -2749036.37945  22239465.8134                   22239468.1764
   5252272.26247   4100360.76244  22834999.5784                   22835001.9574
 -21244644.58248 -16547465.22746  20130854.2974                   20130854.3484
 11  9 24 20 40  0.0000000  0  7G09G12G02G17G10G28G04
  -3459526.39847  -2685007.80945  22259459.8284                   22259461.6484
   7207611.55947   5626644.32844  23775964.9384                   23775967.3984
 -10266791.93048  -7989359.32446  21433847.2974                   21433845.8444
   1017158.23847    812756.75446  22118463.4844                   22118464.6564
  -3646986.37547  -2832127.18045  22219173.9224                   22219176.2624
   5300465.58647   4137913.84444  22844170.6484                   22844173.4264
 -21245533.18448 -16548157.66446  20130685.5944                   20130685.4344
 11  9 24 20 40 30.0000000  0  7G09G12G02G17G10G28G04
  -3466432.87947  -2690389.52045  22258145.2894                   22258147.3404
   7082467.53547   5529129.61744  23752150.8524                   23752153.1054
 -10348523.10948  -8053045.91046  21418294.2194                   21418292.7584
   1026512.59047    820045.79746  22120243.6094                   22120244.1024
  -3753292.50047  -2914963.02345  22198944.5084                   22198947.0354
   5348995.07047   4175728.87944  22853405.7814                   22853407.2624
 -21245942.06648 -16548476.29347  20130607.5004                   20130607.4574
 11  9 24 20 41  0.0000000  0  7G09G12G02G17G10G28G04
  -3472750.60547  -2695312.46545  22256943.4064                   22256944.9654
   6957404.53947   5431678.05544  23728352.0864                   23728354.3404
 -10429890.88748  -8116449.33246  21402810.1024                   21402808.6524
   1035952.45347    827401.47746  22122039.8134                   22122041.0434
  -3859267.18047  -2997540.58645  22178778.3674                   22178779.9924
   5397860.73847   4213805.88344  22862704.6414                   22862706.9804
 -21245871.98448 -16548421.70346  20130620.7114                   20130620.6174
 11  9 24 20 41 30.0000000  0  7G09G12G02G17G10G28G04
  -3478483.91047  -2699780.02045  22255852.2814                   22255854.1994
   6832421.87547   5334289.08244  23704568.6334                   23704570.9844
 -10510897.62948  -8179571.42646  21387395.3914                   21387393.4224
   1045475.94147    834822.32446  22123852.2734                   22123853.1024
  -3964909.79347  -3079859.39845  22158675.1564                   22158677.2504
   5447058.77747   4252141.85944  22872066.8054                   22872069.3014
 -21245327.46948 -16547997.42246  20130724.5394                   20130724.3914
 11  9 24 20 42  0.0000000  0  7G09G12G02G17G10G28G04
  -3483631.65247  -2703791.29745  22254872.8834                   22254875.0084
   6707525.43047   5236967.28144  23680801.1954                   23680803.8094
 -10591539.39148  -8242409.12146  21372049.6254                   21372048.0554
   1055086.42648    842310.95346  22125681.0784                   22125682.0664
  -4070213.88747  -3161914.43045  22138636.1954                   22138638.3634
   5496591.65247   4290738.75444  22881492.5314                   22881495.0124
 -21244307.26648 -16547202.47346  20130918.3284                   20130918.2624
